Wetterdaten: Sonntag, 02.10.2022
Datum Zeit Temp. 2m Temp +5 cm Feuchte A. Luftdruck Regen Wind Richtung Richtung Sonnenschein UV Solar Taupunkt Windchill Windben
02.10.2022 00:00 11,4 C 10,6 C 91 % 1017,3 hPa 0,0 l/m 9,7 km/h (2 Bft) SW 225 0 min 0,0 UV-I 0 W/m 10,0 C 9,3 C 12,9 km/h (3 Bft)
02.10.2022 00:01 11,4 C 10,6 C 91 % 1017,3 hPa 0,0 l/m 6,4 km/h (2 Bft) SW 225 0 min 0,0 UV-I 0 W/m 10,0 C 11,4 C 8,0 km/h (2 Bft)
02.10.2022 00:02 11,4 C 10,6 C 91 % 1017,3 hPa 0,0 l/m 8,0 km/h (2 Bft) S-SW 202 0 min 0,0 UV-I 0 W/m 10,0 C 10,3 C 12,9 km/h (3 Bft)
02.10.2022 00:03 11,4 C 10,6 C 91 % 1017,2 hPa 0,0 l/m 6,4 km/h (2 Bft) SW 225 0 min 0,0 UV-I 0 W/m 10,0 C 11,4 C 8,0 km/h (2 Bft)
02.10.2022 00:04 11,4 C 10,6 C 91 % 1017,4 hPa 0,0 l/m 6,4 km/h (2 Bft) S-SW 202 0 min 0,0 UV-I 0 W/m 10,0 C 11,4 C 9,7 km/h (2 Bft)
02.10.2022 00:05 11,4 C 10,6 C 91 % 1017,4 hPa 0,0 l/m 8,0 km/h (2 Bft) W 270 0 min 0,0 UV-I 0 W/m 10,0 C 10,3 C 14,5 km/h (3 Bft)
02.10.2022 00:06 11,4 C 10,6 C 91 % 1017,4 hPa 0,0 l/m 11,3 km/h (2 Bft) S-SW 202 0 min 0,0 UV-I 0 W/m 10,0 C 8,5 C 14,5 km/h (3 Bft)
02.10.2022 00:07 11,4 C 10,6 C 91 % 1017,4 hPa 0,0 l/m 9,7 km/h (2 Bft) SW 225 0 min 0,0 UV-I 0 W/m 10,0 C 9,3 C 12,9 km/h (3 Bft)
02.10.2022 00:08 11,4 C 10,6 C 91 % 1017,5 hPa 0,0 l/m 8,0 km/h (2 Bft) S-SW 202 0 min 0,0 UV-I 0 W/m 10,0 C 10,3 C 14,5 km/h (3 Bft)
02.10.2022 00:09 11,4 C 10,6 C 91 % 1017,5 hPa 0,0 l/m 8,0 km/h (2 Bft) S 180 0 min 0,0 UV-I 0 W/m 10,0 C 10,3 C 11,3 km/h (2 Bft)
02.10.2022 00:10 11,4 C 10,6 C 91 % 1017,5 hPa 0,0 l/m 8,0 km/h (2 Bft) S-SW 202 0 min 0,0 UV-I 0 W/m 10,0 C 10,3 C 9,7 km/h (2 Bft)
02.10.2022 00:11 11,4 C 10,6 C 91 % 1017,5 hPa 0,0 l/m 6,4 km/h (2 Bft) W-SW 247 0 min 0,0 UV-I 0 W/m 10,0 C 11,4 C 11,3 km/h (2 Bft)
02.10.2022 00:12 11,4 C 10,6 C 91 % 1017,5 hPa 0,0 l/m 8,0 km/h (2 Bft) SW 225 0 min 0,0 UV-I 0 W/m 10,0 C 10,3 C 12,9 km/h (3 Bft)
02.10.2022 00:13 11,4 C 10,6 C 91 % 1017,5 hPa 0,0 l/m 11,3 km/h (2 Bft) S-SW 202 0 min 0,0 UV-I 0 W/m 10,0 C 8,5 C 17,7 km/h (3 Bft)
02.10.2022 00:14 11,4 C 10,6 C 91 % 1017,5 hPa 0,0 l/m 9,7 km/h (2 Bft) S-SW 202 0 min 0,0 UV-I 0 W/m 10,0 C 9,3 C 17,7 km/h (3 Bft)
02.10.2022 00:15 11,4 C 10,6 C 91 % 1017,5 hPa 0,0 l/m 9,7 km/h (2 Bft) S-SW 202 0 min 0,0 UV-I 0 W/m 10,0 C 9,3 C 12,9 km/h (3 Bft)
02.10.2022 00:16 11,4 C 10,6 C 91 % 1017,5 hPa 0,0 l/m 9,7 km/h (2 Bft) W-SW 247 0 min 0,0 UV-I 0 W/m 10,0 C 9,3 C 14,5 km/h (3 Bft)
02.10.2022 00:17 11,4 C 10,6 C 91 % 1017,5 hPa 0,0 l/m 6,4 km/h (2 Bft) W-SW 247 0 min 0,0 UV-I 0 W/m 10,0 C 11,4 C 9,7 km/h (2 Bft)
02.10.2022 00:18 11,4 C 10,6 C 91 % 1017,5 hPa 0,0 l/m 9,7 km/h (2 Bft) S-SW 202 0 min 0,0 UV-I 0 W/m 10,0 C 9,3 C 12,9 km/h (3 Bft)
02.10.2022 00:19 11,4 C 10,6 C 91 % 1017,6 hPa 0,0 l/m 12,9 km/h (3 Bft) S-SW 202 0 min 0,0 UV-I 0 W/m 10,0 C 7,7 C 17,7 km/h (3 Bft)
02.10.2022 00:20 11,4 C 10,6 C 91 % 1017,5 hPa 0,0 l/m 11,3 km/h (2 Bft) S-SW 202 0 min 0,0 UV-I 0 W/m 10,0 C 8,5 C 16,1 km/h (3 Bft)
02.10.2022 00:21 11,4 C 10,6 C 91 % 1017,5 hPa 0,0 l/m 11,3 km/h (2 Bft) SW 225 0 min 0,0 UV-I 0 W/m 10,0 C 8,5 C 17,7 km/h (3 Bft)
02.10.2022 00:22 11,4 C 10,6 C 91 % 1017,6 hPa 0,0 l/m 6,4 km/h (2 Bft) SW 225 0 min 0,0 UV-I 0 W/m 10,0 C 11,4 C 11,3 km/h (2 Bft)
02.10.2022 00:23 11,4 C 10,6 C 91 % 1017,5 hPa 0,0 l/m 9,7 km/h (2 Bft) S 180 0 min 0,0 UV-I 0 W/m 10,0 C 9,3 C 12,9 km/h (3 Bft)
02.10.2022 00:24 11,4 C 10,6 C 91 % 1017,5 hPa 0,0 l/m 8,0 km/h (2 Bft) SW 225 0 min 0,0 UV-I 0 W/m 10,0 C 10,3 C 11,3 km/h (2 Bft)
02.10.2022 00:25 11,4 C 10,6 C 91 % 1017,6 hPa 0,0 l/m 6,4 km/h (2 Bft) S-SW 202 0 min 0,0 UV-I 0 W/m 10,0 C 11,4 C 9,7 km/h (2 Bft)
02.10.2022 00:26 11,4 C 10,6 C 91 % 1017,6 hPa 0,0 l/m 8,0 km/h (2 Bft) S-SW 202 0 min 0,0 UV-I 0 W/m 10,0 C 10,3 C 11,3 km/h (2 Bft)
02.10.2022 00:27 11,4 C 10,6 C 91 % 1017,5 hPa 0,0 l/m 8,0 km/h (2 Bft) SW 225 0 min 0,0 UV-I 0 W/m 10,0 C 10,3 C 14,5 km/h (3 Bft)
02.10.2022 00:28 11,4 C 10,6 C 91 % 1017,6 hPa 0,0 l/m 12,9 km/h (3 Bft) S-SW 202 0 min 0,0 UV-I 0 W/m 10,0 C 7,7 C 19,3 km/h (3 Bft)
02.10.2022 00:29 11,4 C 10,6 C 91 % 1017,7 hPa 0,0 l/m 12,9 km/h (3 Bft) S-SW 202 0 min 0,0 UV-I 0 W/m 10,0 C 7,7 C 17,7 km/h (3 Bft)
02.10.2022 00:30 11,4 C 10,6 C 91 % 1017,7 hPa 0,0 l/m 9,7 km/h (2 Bft) S-SW 202 0 min 0,0 UV-I 0 W/m 10,0 C 9,3 C 16,1 km/h (3 Bft)
02.10.2022 00:31 11,4 C 10,6 C 91 % 1017,7 hPa 0,0 l/m 11,3 km/h (2 Bft) W-SW 247 0 min 0,0 UV-I 0 W/m 10,0 C 8,5 C 20,9 km/h (4 Bft)
02.10.2022 00:32 11,4 C 10,6 C 91 % 1017,7 hPa 0,0 l/m 9,7 km/h (2 Bft) SW 225 0 min 0,0 UV-I 0 W/m 10,0 C 9,3 C 19,3 km/h (3 Bft)
02.10.2022 00:33 11,4 C 10,6 C 91 % 1017,8 hPa 0,0 l/m 9,7 km/h (2 Bft) SW 225 0 min 0,0 UV-I 0 W/m 10,0 C 9,3 C 14,5 km/h (3 Bft)
02.10.2022 00:34 11,4 C 10,6 C 91 % 1017,7 hPa 0,0 l/m 8,0 km/h (2 Bft) SW 225 0 min 0,0 UV-I 0 W/m 10,0 C 10,3 C 11,3 km/h (2 Bft)
02.10.2022 00:35 11,4 C 10,6 C 91 % 1017,7 hPa 0,0 l/m 9,7 km/h (2 Bft) SW 225 0 min 0,0 UV-I 0 W/m 10,0 C 9,3 C 14,5 km/h (3 Bft)
02.10.2022 00:36 11,4 C 10,6 C 91 % 1017,8 hPa 0,0 l/m 6,4 km/h (2 Bft) SW 225 0 min 0,0 UV-I 0 W/m 10,0 C 11,4 C 12,9 km/h (3 Bft)
02.10.2022 00:37 11,4 C 10,6 C 91 % 1017,8 hPa 0,0 l/m 6,4 km/h (2 Bft) SW 225 0 min 0,0 UV-I 0 W/m 10,0 C 11,4 C 11,3 km/h (2 Bft)
02.10.2022 00:38 11,4 C 10,6 C 91 % 1017,7 hPa 0,0 l/m 4,8 km/h (1 Bft) W-SW 247 0 min 0,0 UV-I 0 W/m 10,0 C 11,4 C 6,4 km/h (2 Bft)
02.10.2022 00:39 11,4 C 10,6 C 91 % 1017,7 hPa 0,0 l/m 8,0 km/h (2 Bft) SW 225 0 min 0,0 UV-I 0 W/m 10,0 C 10,3 C 11,3 km/h (2 Bft)
02.10.2022 00:40 11,4 C 10,6 C 91 % 1017,7 hPa 0,0 l/m 11,3 km/h (2 Bft) SW 225 0 min 0,0 UV-I 0 W/m 10,0 C 8,5 C 17,7 km/h (3 Bft)
02.10.2022 00:41 11,4 C 10,6 C 91 % 1017,8 hPa 0,0 l/m 11,3 km/h (2 Bft) SW 225 0 min 0,0 UV-I 0 W/m 10,0 C 8,5 C 16,1 km/h (3 Bft)
02.10.2022 00:42 11,4 C 10,6 C 91 % 1017,6 hPa 0,0 l/m 11,3 km/h (2 Bft) SW 225 0 min 0,0 UV-I 0 W/m 10,0 C 8,5 C 17,7 km/h (3 Bft)
02.10.2022 00:43 11,4 C 10,6 C 91 % 1017,6 hPa 0,0 l/m 8,0 km/h (2 Bft) W 270 0 min 0,0 UV-I 0 W/m 10,0 C 10,3 C 9,7 km/h (2 Bft)
02.10.2022 00:44 11,4 C 10,6 C 91 % 1017,7 hPa 0,0 l/m 9,7 km/h (2 Bft) SW 225 0 min 0,0 UV-I 0 W/m 10,0 C 9,3 C 16,1 km/h (3 Bft)
02.10.2022 00:45 11,4 C 10,6 C 91 % 1017,7 hPa 0,0 l/m 6,4 km/h (2 Bft) SW 225 0 min 0,0 UV-I 0 W/m 10,0 C 11,4 C 14,5 km/h (3 Bft)
02.10.2022 00:46 11,4 C 10,6 C 91 % 1017,7 hPa 0,0 l/m 11,3 km/h (2 Bft) W-SW 247 0 min 0,0 UV-I 0 W/m 10,0 C 8,5 C 16,1 km/h (3 Bft)
02.10.2022 00:47 11,4 C 10,6 C 91 % 1017,8 hPa 0,0 l/m 8,0 km/h (2 Bft) S-SW 202 0 min 0,0 UV-I 0 W/m 10,0 C 10,3 C 14,5 km/h (3 Bft)
02.10.2022 00:48 11,4 C 10,6 C 91 % 1017,8 hPa 0,0 l/m 11,3 km/h (2 Bft) S-SW 202 0 min 0,0 UV-I 0 W/m 10,0 C 8,5 C 17,7 km/h (3 Bft)
02.10.2022 00:49 11,4 C 10,6 C 91 % 1017,9 hPa 0,0 l/m 11,3 km/h (2 Bft) W-SW 247 0 min 0,0 UV-I 0 W/m 10,0 C 8,5 C 17,7 km/h (3 Bft)
02.10.2022 00:50 11,4 C 10,6 C 91 % 1017,8 hPa 0,0 l/m 8,0 km/h (2 Bft) SW 225 0 min 0,0 UV-I 0 W/m 10,0 C 10,3 C 12,9 km/h (3 Bft)
02.10.2022 00:51 11,4 C 10,6 C 91 % 1017,9 hPa 0,0 l/m 8,0 km/h (2 Bft) SW 225 0 min 0,0 UV-I 0 W/m 10,0 C 10,3 C 16,1 km/h (3 Bft)
02.10.2022 00:52 11,4 C 10,6 C 91 % 1017,9 hPa 0,0 l/m 9,7 km/h (2 Bft) W-SW 247 0 min 0,0 UV-I 0 W/m 10,0 C 9,3 C 16,1 km/h (3 Bft)
02.10.2022 00:53 11,4 C 10,6 C 91 % 1017,8 hPa 0,0 l/m 9,7 km/h (2 Bft) SW 225 0 min 0,0 UV-I 0 W/m 10,0 C 9,3 C 17,7 km/h (3 Bft)
02.10.2022 00:54 11,4 C 10,6 C 91 % 1017,8 hPa 0,0 l/m 9,7 km/h (2 Bft) SW 225 0 min 0,0 UV-I 0 W/m 10,0 C 9,3 C 19,3 km/h (3 Bft)
02.10.2022 00:55 11,4 C 10,6 C 91 % 1017,7 hPa 0,0 l/m 9,7 km/h (2 Bft) S-SW 202 0 min 0,0 UV-I 0 W/m 10,0 C 9,3 C 14,5 km/h (3 Bft)
02.10.2022 00:56 11,4 C 10,6 C 91 % 1017,6 hPa 0,2 l/m 12,9 km/h (3 Bft) S-SW 202 0 min 0,0 UV-I 0 W/m 10,0 C 7,7 C 19,3 km/h (3 Bft)
02.10.2022 00:57 11,4 C 10,6 C 91 % 1017,6 hPa 0,0 l/m 8,0 km/h (2 Bft) SW 225 0 min 0,0 UV-I 0 W/m 10,0 C 10,3 C 12,9 km/h (3 Bft)
02.10.2022 00:58 11,4 C 10,6 C 91 % 1017,6 hPa 0,0 l/m 14,5 km/h (3 Bft) SW 225 0 min 0,0 UV-I 0 W/m 10,0 C 7,0 C 20,9 km/h (4 Bft)
02.10.2022 00:59 11,4 C 10,6 C 91 % 1017,7 hPa 0,0 l/m 11,3 km/h (2 Bft) SW 225 0 min 0,0 UV-I 0 W/m 10,0 C 8,5 C 20,9 km/h (4 Bft)
02.10.2022 01:00 11,4 C 10,6 C 91 % 1017,7 hPa 0,0 l/m 6,4 km/h (2 Bft) S-SW 202 0 min 0,0 UV-I 0 W/m 10,0 C 11,4 C 9,7 km/h (2 Bft)
02.10.2022 01:01 11,4 C 10,6 C 91 % 1017,8 hPa 0,0 l/m 9,7 km/h (2 Bft) S-SW 202 0 min 0,0 UV-I 0 W/m 10,0 C 9,3 C 14,5 km/h (3 Bft)
02.10.2022 01:02 11,4 C 10,6 C 91 % 1017,8 hPa 0,0 l/m 6,4 km/h (2 Bft) S-SW 202 0 min 0,0 UV-I 0 W/m 10,0 C 11,4 C 12,9 km/h (3 Bft)
02.10.2022 01:03 11,4 C 10,6 C 91 % 1017,8 hPa 0,0 l/m 8,0 km/h (2 Bft) S-SW 202 0 min 0,0 UV-I 0 W/m 10,0 C 10,3 C 16,1 km/h (3 Bft)
02.10.2022 01:04 11,4 C 10,6 C 91 % 1017,9 hPa 0,0 l/m 8,0 km/h (2 Bft) W-SW 247 0 min 0,0 UV-I 0 W/m 10,0 C 10,3 C 12,9 km/h (3 Bft)
02.10.2022 01:05 11,4 C 10,6 C 91 % 1017,8 hPa 0,0 l/m 9,7 km/h (2 Bft) SW 225 0 min 0,0 UV-I 0 W/m 10,0 C 9,3 C 16,1 km/h (3 Bft)
02.10.2022 01:06 11,4 C 10,6 C 91 % 1017,8 hPa 0,0 l/m 11,3 km/h (2 Bft) SW 225 0 min 0,0 UV-I 0 W/m 10,0 C 8,5 C 17,7 km/h (3 Bft)
02.10.2022 01:07 11,4 C 10,6 C 91 % 1017,6 hPa 0,0 l/m 9,7 km/h (2 Bft) SW 225 0 min 0,0 UV-I 0 W/m 10,0 C 9,3 C 14,5 km/h (3 Bft)
02.10.2022 01:08 11,4 C 10,6 C 91 % 1017,6 hPa 0,0 l/m 8,0 km/h (2 Bft) S-SW 202 0 min 0,0 UV-I 0 W/m 10,0 C 10,3 C 11,3 km/h (2 Bft)
02.10.2022 01:09 11,4 C 10,6 C 91 % 1017,7 hPa 0,0 l/m 11,3 km/h (2 Bft) SW 225 0 min 0,0 UV-I 0 W/m 10,0 C 8,5 C 16,1 km/h (3 Bft)
02.10.2022 01:10 11,4 C 10,6 C 91 % 1017,6 hPa 0,0 l/m 8,0 km/h (2 Bft) SW 225 0 min 0,0 UV-I 0 W/m 10,0 C 10,3 C 14,5 km/h (3 Bft)
02.10.2022 01:11 11,4 C 10,6 C 91 % 1017,8 hPa 0,0 l/m 12,9 km/h (3 Bft) S-SW 202 0 min 0,0 UV-I 0 W/m 10,0 C 7,7 C 17,7 km/h (3 Bft)
02.10.2022 01:12 11,4 C 10,6 C 91 % 1017,7 hPa 0,0 l/m 9,7 km/h (2 Bft) SW 225 0 min 0,0 UV-I 0 W/m 10,0 C 9,3 C 14,5 km/h (3 Bft)
02.10.2022 01:13 11,4 C 10,6 C 91 % 1017,8 hPa 0,0 l/m 6,4 km/h (2 Bft) S-SW 202 0 min 0,0 UV-I 0 W/m 10,0 C 11,4 C 11,3 km/h (2 Bft)
02.10.2022 01:14 11,3 C 10,6 C 91 % 1017,7 hPa 0,0 l/m 8,0 km/h (2 Bft) S-SW 202 0 min 0,0 UV-I 0 W/m 9,9 C 10,2 C 14,5 km/h (3 Bft)
02.10.2022 01:15 11,4 C 10,6 C 91 % 1017,8 hPa 0,0 l/m 9,7 km/h (2 Bft) S-SW 202 0 min 0,0 UV-I 0 W/m 10,0 C 9,3 C 12,9 km/h (3 Bft)
02.10.2022 01:16 11,4 C 10,6 C 91 % 1017,7 hPa 0,0 l/m 6,4 km/h (2 Bft) S-SW 202 0 min 0,0 UV-I 0 W/m 10,0 C 11,4 C 8,0 km/h (2 Bft)
02.10.2022 01:17 11,3 C 10,6 C 91 % 1017,9 hPa 0,0 l/m 6,4 km/h (2 Bft) SW 225 0 min 0,0 UV-I 0 W/m 9,9 C 11,3 C 11,3 km/h (2 Bft)
02.10.2022 01:18 11,4 C 10,6 C 91 % 1017,9 hPa 0,0 l/m 9,7 km/h (2 Bft) S-SW 202 0 min 0,0 UV-I 0 W/m 10,0 C 9,3 C 12,9 km/h (3 Bft)
02.10.2022 01:19 11,4 C 10,6 C 91 % 1017,9 hPa 0,0 l/m 6,4 km/h (2 Bft) SW 225 0 min 0,0 UV-I 0 W/m 10,0 C 11,4 C 11,3 km/h (2 Bft)
02.10.2022 01:20 11,4 C 10,6 C 91 % 1017,9 hPa 0,0 l/m 9,7 km/h (2 Bft) SW 225 0 min 0,0 UV-I 0 W/m 10,0 C 9,3 C 12,9 km/h (3 Bft)
02.10.2022 01:21 11,3 C 10,6 C 91 % 1017,9 hPa 0,0 l/m 12,9 km/h (3 Bft) S-SW 202 0 min 0,0 UV-I 0 W/m 9,9 C 7,6 C 19,3 km/h (3 Bft)
02.10.2022 01:22 11,3 C 10,6 C 91 % 1017,9 hPa 0,0 l/m 8,0 km/h (2 Bft) W-SW 247 0 min 0,0 UV-I 0 W/m 9,9 C 10,2 C 11,3 km/h (2 Bft)
02.10.2022 01:23 11,4 C 10,6 C 91 % 1017,9 hPa 0,0 l/m 8,0 km/h (2 Bft) S 180 0 min 0,0 UV-I 0 W/m 10,0 C 10,3 C 16,1 km/h (3 Bft)
02.10.2022 01:24 11,3 C 10,6 C 91 % 1018,0 hPa 0,0 l/m 6,4 km/h (2 Bft) W-SW 247 0 min 0,0 UV-I 0 W/m 9,9 C 11,3 C 11,3 km/h (2 Bft)
02.10.2022 01:25 11,4 C 10,6 C 91 % 1018,2 hPa 0,0 l/m 8,0 km/h (2 Bft) S 180 0 min 0,0 UV-I 0 W/m 10,0 C 10,3 C 14,5 km/h (3 Bft)
02.10.2022 01:26 11,4 C 10,6 C 91 % 1018,1 hPa 0,0 l/m 8,0 km/h (2 Bft) SW 225 0 min 0,0 UV-I 0 W/m 10,0 C 10,3 C 12,9 km/h (3 Bft)
02.10.2022 01:27 11,3 C 10,6 C 91 % 1017,9 hPa 0,0 l/m 8,0 km/h (2 Bft) S-SW 202 0 min 0,0 UV-I 0 W/m 9,9 C 10,2 C 11,3 km/h (2 Bft)
02.10.2022 01:28 11,3 C 10,6 C 91 % 1018,0 hPa 0,0 l/m 8,0 km/h (2 Bft) SW 225 0 min 0,0 UV-I 0 W/m 9,9 C 10,2 C 11,3 km/h (2 Bft)
02.10.2022 01:29 11,3 C 10,6 C 91 % 1018,1 hPa 0,0 l/m 8,0 km/h (2 Bft) SW 225 0 min 0,0 UV-I 0 W/m 9,9 C 10,2 C 16,1 km/h (3 Bft)
02.10.2022 01:30 11,4 C 10,6 C 91 % 1018,0 hPa 0,0 l/m 6,4 km/h (2 Bft) S-SW 202 0 min 0,0 UV-I 0 W/m 10,0 C 11,4 C 12,9 km/h (3 Bft)
02.10.2022 01:31 11,4 C 10,6 C 91 % 1018,1 hPa 0,0 l/m 11,3 km/h (2 Bft) SW 225 0 min 0,0 UV-I 0 W/m 10,0 C 8,5 C 16,1 km/h (3 Bft)
02.10.2022 01:32 11,3 C 10,6 C 91 % 1018,1 hPa 0,0 l/m 8,0 km/h (2 Bft) S-SW 202 0 min 0,0 UV-I 0 W/m 9,9 C 10,2 C 11,3 km/h (2 Bft)
02.10.2022 01:33 11,3 C 10,6 C 91 % 1018,1 hPa 0,0 l/m 9,7 km/h (2 Bft) SW 225 0 min 0,0 UV-I 0 W/m 9,9 C 9,2 C 14,5 km/h (3 Bft)
02.10.2022 01:34 11,4 C 10,6 C 91 % 1018,1 hPa 0,0 l/m 4,8 km/h (1 Bft) S-SW 202 0 min 0,0 UV-I 0 W/m 10,0 C 11,4 C 6,4 km/h (2 Bft)
02.10.2022 01:35 11,4 C 10,6 C 91 % 1018,1 hPa 0,0 l/m 9,7 km/h (2 Bft) S-SW 202 0 min 0,0 UV-I 0 W/m 10,0 C 9,3 C 11,3 km/h (2 Bft)
02.10.2022 01:36 11,4 C 10,6 C 91 % 1018,0 hPa 0,0 l/m 6,4 km/h (2 Bft) SW 225 0 min 0,0 UV-I 0 W/m 10,0 C 11,4 C 9,7 km/h (2 Bft)
02.10.2022 01:37 11,4 C 10,6 C 91 % 1018,0 hPa 0,0 l/m 4,8 km/h (1 Bft) SW 225 0 min 0,0 UV-I 0 W/m 10,0 C 11,4 C 9,7 km/h (2 Bft)
02.10.2022 01:38 11,4 C 10,6 C 91 % 1018,0 hPa 0,0 l/m 6,4 km/h (2 Bft) S 180 0 min 0,0 UV-I 0 W/m 10,0 C 11,4 C 11,3 km/h (2 Bft)
02.10.2022 01:39 11,4 C 10,6 C 91 % 1018,1 hPa 0,0 l/m 6,4 km/h (2 Bft) S-SW 202 0 min 0,0 UV-I 0 W/m 10,0 C 11,4 C 11,3 km/h (2 Bft)
02.10.2022 01:40 11,4 C 10,6 C 91 % 1018,1 hPa 0,0 l/m 9,7 km/h (2 Bft) S-SW 202 0 min 0,0 UV-I 0 W/m 10,0 C 9,3 C 11,3 km/h (2 Bft)
02.10.2022 01:41 11,3 C 10,6 C 91 % 1018,1 hPa 0,0 l/m 8,0 km/h (2 Bft) S-SW 202 0 min 0,0 UV-I 0 W/m 9,9 C 10,2 C 11,3 km/h (2 Bft)
02.10.2022 01:42 11,3 C 10,6 C 91 % 1018,0 hPa 0,0 l/m 9,7 km/h (2 Bft) S 180 0 min 0,0 UV-I 0 W/m 9,9 C 9,2 C 12,9 km/h (3 Bft)
02.10.2022 01:43 11,3 C 10,6 C 91 % 1018,1 hPa 0,0 l/m 9,7 km/h (2 Bft) S 180 0 min 0,0 UV-I 0 W/m 9,9 C 9,2 C 16,1 km/h (3 Bft)
02.10.2022 01:44 11,3 C 10,6 C 91 % 1018,1 hPa 0,0 l/m 11,3 km/h (2 Bft) S-SW 202 0 min 0,0 UV-I 0 W/m 9,9 C 8,4 C 19,3 km/h (3 Bft)
02.10.2022 01:45 11,3 C 10,6 C 91 % 1018,2 hPa 0,0 l/m 8,0 km/h (2 Bft) S-SW 202 0 min 0,0 UV-I 0 W/m 9,9 C 10,2 C 12,9 km/h (3 Bft)
02.10.2022 01:46 11,3 C 10,6 C 91 % 1018,2 hPa 0,0 l/m 6,4 km/h (2 Bft) SW 225 0 min 0,0 UV-I 0 W/m 9,9 C 11,3 C 12,9 km/h (3 Bft)
02.10.2022 01:47 11,3 C 10,6 C 91 % 1018,2 hPa 0,0 l/m 8,0 km/h (2 Bft) S-SW 202 0 min 0,0 UV-I 0 W/m 9,9 C 10,2 C 12,9 km/h (3 Bft)
02.10.2022 01:48 11,3 C 10,6 C 91 % 1018,0 hPa 0,0 l/m 11,3 km/h (2 Bft) S-SW 202 0 min 0,0 UV-I 0 W/m 9,9 C 8,4 C 17,7 km/h (3 Bft)
02.10.2022 01:49 11,3 C 10,6 C 91 % 1017,9 hPa 0,0 l/m 8,0 km/h (2 Bft) S-SW 202 0 min 0,0 UV-I 0 W/m 9,9 C 10,2 C 14,5 km/h (3 Bft)
02.10.2022 01:50 11,3 C 10,6 C 91 % 1017,9 hPa 0,0 l/m 6,4 km/h (2 Bft) S-SW 202 0 min 0,0 UV-I 0 W/m 9,9 C 11,3 C 11,3 km/h (2 Bft)
02.10.2022 01:51 11,3 C 10,6 C 91 % 1017,8 hPa 0,0 l/m 9,7 km/h (2 Bft) S-SW 202 0 min 0,0 UV-I 0 W/m 9,9 C 9,2 C 16,1 km/h (3 Bft)
02.10.2022 01:52 11,4 C 10,6 C 91 % 1018,0 hPa 0,0 l/m 6,4 km/h (2 Bft) S 180 0 min 0,0 UV-I 0 W/m 10,0 C 11,4 C 8,0 km/h (2 Bft)
02.10.2022 01:53 11,3 C 10,6 C 91 % 1018,0 hPa 0,0 l/m 4,8 km/h (1 Bft) S-SW 202 0 min 0,0 UV-I 0 W/m 9,9 C 11,3 C 8,0 km/h (2 Bft)
02.10.2022 01:54 11,3 C 10,6 C 91 % 1018,0 hPa 0,0 l/m 9,7 km/h (2 Bft) SW 225 0 min 0,0 UV-I 0 W/m 9,9 C 9,2 C 16,1 km/h (3 Bft)
02.10.2022 01:55 11,4 C 10,6 C 91 % 1018,0 hPa 0,0 l/m 11,3 km/h (2 Bft) SW 225 0 min 0,0 UV-I 0 W/m 10,0 C 8,5 C 16,1 km/h (3 Bft)
02.10.2022 01:56 11,4 C 10,6 C 91 % 1018,0 hPa 0,0 l/m 11,3 km/h (2 Bft) S-SW 202 0 min 0,0 UV-I 0 W/m 10,0 C 8,5 C 14,5 km/h (3 Bft)
02.10.2022 01:57 11,4 C 10,6 C 91 % 1018,0 hPa 0,0 l/m 9,7 km/h (2 Bft) S-SW 202 0 min 0,0 UV-I 0 W/m 10,0 C 9,3 C 14,5 km/h (3 Bft)
02.10.2022 01:58 11,4 C 10,6 C 91 % 1018,0 hPa 0,0 l/m 11,3 km/h (2 Bft) SW 225 0 min 0,0 UV-I 0 W/m 10,0 C 8,5 C 16,1 km/h (3 Bft)
02.10.2022 01:59 11,4 C 10,6 C 91 % 1017,9 hPa 0,0 l/m 11,3 km/h (2 Bft) S-SW 202 0 min 0,0 UV-I 0 W/m 10,0 C 8,5 C 14,5 km/h (3 Bft)
02.10.2022 02:00 11,4 C 10,6 C 91 % 1018,0 hPa 0,0 l/m 11,3 km/h (2 Bft) S-SW 202 0 min 0,0 UV-I 0 W/m 10,0 C 8,5 C 17,7 km/h (3 Bft)
02.10.2022 02:01 11,4 C 10,6 C 91 % 1018,0 hPa 0,0 l/m 9,7 km/h (2 Bft) S-SW 202 0 min 0,0 UV-I 0 W/m 10,0 C 9,3 C 14,5 km/h (3 Bft)
02.10.2022 02:02 11,4 C 10,6 C 91 % 1018,0 hPa 0,0 l/m 12,9 km/h (3 Bft) S-SW 202 0 min 0,0 UV-I 0 W/m 10,0 C 7,7 C 20,9 km/h (4 Bft)
02.10.2022 02:03 11,4 C 10,6 C 91 % 1018,0 hPa 0,0 l/m 11,3 km/h (2 Bft) SW 225 0 min 0,0 UV-I 0 W/m 10,0 C 8,5 C 19,3 km/h (3 Bft)
02.10.2022 02:04 11,4 C 10,6 C 91 % 1018,0 hPa 0,0 l/m 11,3 km/h (2 Bft) S-SW 202 0 min 0,0 UV-I 0 W/m 10,0 C 8,5 C 22,5 km/h (4 Bft)
02.10.2022 02:05 11,4 C 10,6 C 91 % 1018,0 hPa 0,0 l/m 6,4 km/h (2 Bft) S-SW 202 0 min 0,0 UV-I 0 W/m 10,0 C 11,4 C 9,7 km/h (2 Bft)
02.10.2022 02:06 11,4 C 10,6 C 91 % 1018,0 hPa 0,0 l/m 8,0 km/h (2 Bft) S-SW 202 0 min 0,0 UV-I 0 W/m 10,0 C 10,3 C 14,5 km/h (3 Bft)
02.10.2022 02:07 11,4 C 10,6 C 91 % 1018,1 hPa 0,0 l/m 9,7 km/h (2 Bft) S-SW 202 0 min 0,0 UV-I 0 W/m 10,0 C 9,3 C 11,3 km/h (2 Bft)
02.10.2022 02:08 11,4 C 10,6 C 91 % 1018,1 hPa 0,0 l/m 8,0 km/h (2 Bft) S 180 0 min 0,0 UV-I 0 W/m 10,0 C 10,3 C 11,3 km/h (2 Bft)
02.10.2022 02:09 11,4 C 10,6 C 91 % 1017,9 hPa 0,0 l/m 8,0 km/h (2 Bft) S-SW 202 0 min 0,0 UV-I 0 W/m 10,0 C 10,3 C 12,9 km/h (3 Bft)
02.10.2022 02:10 11,4 C 10,6 C 91 % 1018,1 hPa 0,0 l/m 9,7 km/h (2 Bft) S-SW 202 0 min 0,0 UV-I 0 W/m 10,0 C 9,3 C 12,9 km/h (3 Bft)
02.10.2022 02:11 11,4 C 10,6 C 91 % 1018,2 hPa 0,0 l/m 12,9 km/h (3 Bft) S-SW 202 0 min 0,0 UV-I 0 W/m 10,0 C 7,7 C 16,1 km/h (3 Bft)
02.10.2022 02:12 11,4 C 10,6 C 91 % 1018,1 hPa 0,0 l/m 8,0 km/h (2 Bft) SW 225 0 min 0,0 UV-I 0 W/m 10,0 C 10,3 C 12,9 km/h (3 Bft)
02.10.2022 02:13 11,4 C 10,6 C 91 % 1018,1 hPa 0,0 l/m 8,0 km/h (2 Bft) S-SW 202 0 min 0,0 UV-I 0 W/m 10,0 C 10,3 C 11,3 km/h (2 Bft)
02.10.2022 02:14 11,4 C 10,6 C 91 % 1018,1 hPa 0,0 l/m 8,0 km/h (2 Bft) SW 225 0 min 0,0 UV-I 0 W/m 10,0 C 10,3 C 12,9 km/h (3 Bft)
02.10.2022 02:15 11,4 C 10,6 C 91 % 1018,1 hPa 0,0 l/m 9,7 km/h (2 Bft) S-SW 202 0 min 0,0 UV-I 0 W/m 10,0 C 9,3 C 16,1 km/h (3 Bft)
02.10.2022 02:16 11,4 C 10,6 C 91 % 1018,1 hPa 0,0 l/m 11,3 km/h (2 Bft) SW 225 0 min 0,0 UV-I 0 W/m 10,0 C 8,5 C 14,5 km/h (3 Bft)
02.10.2022 02:17 11,4 C 10,6 C 91 % 1018,2 hPa 0,0 l/m 11,3 km/h (2 Bft) S-SW 202 0 min 0,0 UV-I 0 W/m 10,0 C 8,5 C 16,1 km/h (3 Bft)
02.10.2022 02:18 11,4 C 10,6 C 91 % 1018,2 hPa 0,0 l/m 11,3 km/h (2 Bft) S-SW 202 0 min 0,0 UV-I 0 W/m 10,0 C 8,5 C 16,1 km/h (3 Bft)
02.10.2022 02:19 11,4 C 10,6 C 91 % 1018,0 hPa 0,0 l/m 8,0 km/h (2 Bft) S 180 0 min 0,0 UV-I 0 W/m 10,0 C 10,3 C 12,9 km/h (3 Bft)
02.10.2022 02:20 11,4 C 10,6 C 91 % 1018,1 hPa 0,0 l/m 9,7 km/h (2 Bft) S 180 0 min 0,0 UV-I 0 W/m 10,0 C 9,3 C 12,9 km/h (3 Bft)
02.10.2022 02:21 11,4 C 10,6 C 91 % 1018,1 hPa 0,0 l/m 11,3 km/h (2 Bft) S-SW 202 0 min 0,0 UV-I 0 W/m 10,0 C 8,5 C 19,3 km/h (3 Bft)
02.10.2022 02:22 11,4 C 10,6 C 91 % 1018,2 hPa 0,0 l/m 11,3 km/h (2 Bft) SW 225 0 min 0,0 UV-I 0 W/m 10,0 C 8,5 C 14,5 km/h (3 Bft)
02.10.2022 02:23 11,4 C 10,6 C 91 % 1018,1 hPa 0,0 l/m 12,9 km/h (3 Bft) S-SW 202 0 min 0,0 UV-I 0 W/m 10,0 C 7,7 C 16,1 km/h (3 Bft)
02.10.2022 02:24 11,4 C 10,6 C 91 % 1018,1 hPa 0,0 l/m 11,3 km/h (2 Bft) S-SW 202 0 min 0,0 UV-I 0 W/m 10,0 C 8,5 C 14,5 km/h (3 Bft)
02.10.2022 02:25 11,4 C 10,6 C 91 % 1018,2 hPa 0,0 l/m 11,3 km/h (2 Bft) S-SW 202 0 min 0,0 UV-I 0 W/m 10,0 C 8,5 C 16,1 km/h (3 Bft)
02.10.2022 02:26 11,4 C 10,6 C 91 % 1018,1 hPa 0,0 l/m 14,5 km/h (3 Bft) SW 225 0 min 0,0 UV-I 0 W/m 10,0 C 7,0 C 20,9 km/h (4 Bft)
02.10.2022 02:27 11,4 C 10,6 C 91 % 1018,1 hPa 0,0 l/m 12,9 km/h (3 Bft) S-SW 202 0 min 0,0 UV-I 0 W/m 10,0 C 7,7 C 19,3 km/h (3 Bft)
02.10.2022 02:28 11,4 C 10,6 C 91 % 1018,1 hPa 0,0 l/m 9,7 km/h (2 Bft) S-SW 202 0 min 0,0 UV-I 0 W/m 10,0 C 9,3 C 14,5 km/h (3 Bft)
02.10.2022 02:29 11,4 C 10,6 C 91 % 1018,1 hPa 0,0 l/m 12,9 km/h (3 Bft) S-SW 202 0 min 0,0 UV-I 0 W/m 10,0 C 7,7 C 17,7 km/h (3 Bft)
02.10.2022 02:30 11,4 C 10,6 C 91 % 1018,2 hPa 0,0 l/m 9,7 km/h (2 Bft) S-SW 202 0 min 0,0 UV-I 0 W/m 10,0 C 9,3 C 12,9 km/h (3 Bft)
02.10.2022 02:31 11,4 C 10,6 C 91 % 1018,1 hPa 0,0 l/m 11,3 km/h (2 Bft) S 180 0 min 0,0 UV-I 0 W/m 10,0 C 8,5 C 12,9 km/h (3 Bft)
02.10.2022 02:32 11,4 C 10,6 C 91 % 1018,2 hPa 0,0 l/m 9,7 km/h (2 Bft) S-SW 202 0 min 0,0 UV-I 0 W/m 10,0 C 9,3 C 19,3 km/h (3 Bft)
02.10.2022 02:33 11,4 C 10,6 C 91 % 1018,2 hPa 0,0 l/m 12,9 km/h (3 Bft) SW 225 0 min 0,0 UV-I 0 W/m 10,0 C 7,7 C 17,7 km/h (3 Bft)
02.10.2022 02:34 11,4 C 10,6 C 91 % 1018,0 hPa 0,0 l/m 6,4 km/h (2 Bft) S-SW 202 0 min 0,0 UV-I 0 W/m 10,0 C 11,4 C 11,3 km/h (2 Bft)
02.10.2022 02:35 11,4 C 10,6 C 91 % 1018,1 hPa 0,0 l/m 8,0 km/h (2 Bft) SW 225 0 min 0,0 UV-I 0 W/m 10,0 C 10,3 C 12,9 km/h (3 Bft)
02.10.2022 02:36 11,4 C 10,6 C 91 % 1018,1 hPa 0,0 l/m 9,7 km/h (2 Bft) S 180 0 min 0,0 UV-I 0 W/m 10,0 C 9,3 C 14,5 km/h (3 Bft)
02.10.2022 02:37 11,4 C 10,6 C 91 % 1018,1 hPa 0,0 l/m 11,3 km/h (2 Bft) S-SW 202 0 min 0,0 UV-I 0 W/m 10,0 C 8,5 C 16,1 km/h (3 Bft)
02.10.2022 02:38 11,4 C 10,6 C 91 % 1018,1 hPa 0,0 l/m 9,7 km/h (2 Bft) S-SW 202 0 min 0,0 UV-I 0 W/m 10,0 C 9,3 C 16,1 km/h (3 Bft)
02.10.2022 02:39 11,4 C 10,6 C 91 % 1018,1 hPa 0,0 l/m 8,0 km/h (2 Bft) S 180 0 min 0,0 UV-I 0 W/m 10,0 C 10,3 C 12,9 km/h (3 Bft)
02.10.2022 02:40 11,4 C 10,6 C 91 % 1018,1 hPa 0,0 l/m 14,5 km/h (3 Bft) SW 225 0 min 0,0 UV-I 0 W/m 10,0 C 7,0 C 20,9 km/h (4 Bft)
02.10.2022 02:41 11,4 C 10,6 C 91 % 1018,1 hPa 0,0 l/m 11,3 km/h (2 Bft) S-SW 202 0 min 0,0 UV-I 0 W/m 10,0 C 8,5 C 16,1 km/h (3 Bft)
02.10.2022 02:42 11,4 C 10,6 C 91 % 1018,2 hPa 0,0 l/m 8,0 km/h (2 Bft) S-SW 202 0 min 0,0 UV-I 0 W/m 10,0 C 10,3 C 9,7 km/h (2 Bft)
02.10.2022 02:43 11,4 C 10,6 C 91 % 1018,2 hPa 0,0 l/m 4,8 km/h (1 Bft) S-SW 202 0 min 0,0 UV-I 0 W/m 10,0 C 11,4 C 8,0 km/h (2 Bft)
02.10.2022 02:44 11,4 C 10,6 C 91 % 1018,1 hPa 0,0 l/m 9,7 km/h (2 Bft) S-SW 202 0 min 0,0 UV-I 0 W/m 10,0 C 9,3 C 14,5 km/h (3 Bft)
02.10.2022 02:45 11,4 C 10,6 C 91 % 1018,2 hPa 0,0 l/m 11,3 km/h (2 Bft) S-SW 202 0 min 0,0 UV-I 0 W/m 10,0 C 8,5 C 14,5 km/h (3 Bft)
02.10.2022 02:46 11,4 C 10,6 C 91 % 1018,2 hPa 0,0 l/m 11,3 km/h (2 Bft) S-SW 202 0 min 0,0 UV-I 0 W/m 10,0 C 8,5 C 16,1 km/h (3 Bft)
02.10.2022 02:47 11,4 C 10,6 C 91 % 1018,2 hPa 0,0 l/m 8,0 km/h (2 Bft) S-SW 202 0 min 0,0 UV-I 0 W/m 10,0 C 10,3 C 16,1 km/h (3 Bft)
02.10.2022 02:48 11,4 C 10,6 C 91 % 1018,1 hPa 0,0 l/m 6,4 km/h (2 Bft) SW 225 0 min 0,0 UV-I 0 W/m 10,0 C 11,4 C 11,3 km/h (2 Bft)
02.10.2022 02:49 11,4 C 10,6 C 91 % 1018,3 hPa 0,0 l/m 8,0 km/h (2 Bft) S 180 0 min 0,0 UV-I 0 W/m 10,0 C 10,3 C 14,5 km/h (3 Bft)
02.10.2022 02:50 11,4 C 10,6 C 91 % 1018,3 hPa 0,0 l/m 11,3 km/h (2 Bft) SW 225 0 min 0,0 UV-I 0 W/m 10,0 C 8,5 C 16,1 km/h (3 Bft)
02.10.2022 02:51 11,4 C 10,6 C 91 % 1018,3 hPa 0,0 l/m 8,0 km/h (2 Bft) S-SW 202 0 min 0,0 UV-I 0 W/m 10,0 C 10,3 C 19,3 km/h (3 Bft)
02.10.2022 02:52 11,4 C 10,6 C 91 % 1018,3 hPa 0,0 l/m 11,3 km/h (2 Bft) SW 225 0 min 0,0 UV-I 0 W/m 10,0 C 8,5 C 17,7 km/h (3 Bft)
02.10.2022 02:53 11,4 C 10,6 C 91 % 1018,3 hPa 0,0 l/m 11,3 km/h (2 Bft) S-SW 202 0 min 0,0 UV-I 0 W/m 10,0 C 8,5 C 14,5 km/h (3 Bft)
02.10.2022 02:54 11,4 C 10,6 C 91 % 1018,2 hPa 0,0 l/m 11,3 km/h (2 Bft) SW 225 0 min 0,0 UV-I 0 W/m 10,0 C 8,5 C 16,1 km/h (3 Bft)
02.10.2022 02:55 11,4 C 10,6 C 91 % 1018,3 hPa 0,0 l/m 14,5 km/h (3 Bft) SW 225 0 min 0,0 UV-I 0 W/m 10,0 C 7,0 C 25,7 km/h (4 Bft)
02.10.2022 02:56 11,4 C 10,6 C 91 % 1018,4 hPa 0,0 l/m 14,5 km/h (3 Bft) S-SW 202 0 min 0,0 UV-I 0 W/m 10,0 C 7,0 C 22,5 km/h (4 Bft)
02.10.2022 02:57 11,5 C 10,6 C 91 % 1018,3 hPa 0,0 l/m 9,7 km/h (2 Bft) W-SW 247 0 min 0,0 UV-I 0 W/m 10,1 C 9,4 C 19,3 km/h (3 Bft)
02.10.2022 02:58 11,5 C 10,6 C 91 % 1018,3 hPa 0,0 l/m 8,0 km/h (2 Bft) W 270 0 min 0,0 UV-I 0 W/m 10,1 C 10,4 C 17,7 km/h (3 Bft)
02.10.2022 02:59 11,5 C 10,6 C 91 % 1018,3 hPa 0,0 l/m 9,7 km/h (2 Bft) SW 225 0 min 0,0 UV-I 0 W/m 10,1 C 9,4 C 14,5 km/h (3 Bft)
02.10.2022 03:00 11,5 C 10,6 C 91 % 1018,4 hPa 0,0 l/m 8,0 km/h (2 Bft) S 180 0 min 0,0 UV-I 0 W/m 10,1 C 10,4 C 11,3 km/h (2 Bft)
02.10.2022 03:01 11,6 C 10,6 C 91 % 1018,4 hPa 0,0 l/m 8,0 km/h (2 Bft) S 180 0 min 0,0 UV-I 0 W/m 10,2 C 10,5 C 12,9 km/h (3 Bft)
02.10.2022 03:02 11,6 C 10,6 C 91 % 1018,3 hPa 0,0 l/m 12,9 km/h (3 Bft) W-SW 247 0 min 0,0 UV-I 0 W/m 10,2 C 7,9 C 17,7 km/h (3 Bft)
02.10.2022 03:03 11,6 C 10,6 C 91 % 1018,3 hPa 0,0 l/m 6,4 km/h (2 Bft) SW 225 0 min 0,0 UV-I 0 W/m 10,2 C 11,6 C 11,3 km/h (2 Bft)
02.10.2022 03:04 11,6 C 10,6 C 91 % 1018,4 hPa 0,0 l/m 8,0 km/h (2 Bft) W-SW 247 0 min 0,0 UV-I 0 W/m 10,2 C 10,5 C 16,1 km/h (3 Bft)
02.10.2022 03:05 11,6 C 10,6 C 91 % 1018,5 hPa 0,0 l/m 6,4 km/h (2 Bft) S-SW 202 0 min 0,0 UV-I 0 W/m 10,2 C 11,6 C 12,9 km/h (3 Bft)
02.10.2022 03:06 11,6 C 10,6 C 91 % 1018,5 hPa 0,0 l/m 6,4 km/h (2 Bft) S-SW 202 0 min 0,0 UV-I 0 W/m 10,2 C 11,6 C 9,7 km/h (2 Bft)
02.10.2022 03:07 11,5 C 10,6 C 91 % 1018,4 hPa 0,0 l/m 8,0 km/h (2 Bft) S-SW 202 0 min 0,0 UV-I 0 W/m 10,1 C 10,4 C 11,3 km/h (2 Bft)
02.10.2022 03:08 11,5 C 10,6 C 91 % 1018,6 hPa 0,0 l/m 6,4 km/h (2 Bft) SW 225 0 min 0,0 UV-I 0 W/m 10,1 C 11,5 C 9,7 km/h (2 Bft)
02.10.2022 03:09 11,6 C 10,6 C 91 % 1018,4 hPa 0,0 l/m 9,7 km/h (2 Bft) S 180 0 min 0,0 UV-I 0 W/m 10,2 C 9,5 C 14,5 km/h (3 Bft)
02.10.2022 03:10 11,5 C 10,6 C 91 % 1018,4 hPa 0,0 l/m 9,7 km/h (2 Bft) S-SW 202 0 min 0,0 UV-I 0 W/m 10,1 C 9,4 C 11,3 km/h (2 Bft)
02.10.2022 03:11 11,6 C 10,6 C 91 % 1018,5 hPa 0,0 l/m 8,0 km/h (2 Bft) S-SW 202 0 min 0,0 UV-I 0 W/m 10,2 C 10,5 C 14,5 km/h (3 Bft)
02.10.2022 03:12 11,6 C 10,6 C 91 % 1018,4 hPa 0,0 l/m 12,9 km/h (3 Bft) S-SW 202 0 min 0,0 UV-I 0 W/m 10,2 C 7,9 C 19,3 km/h (3 Bft)
02.10.2022 03:13 11,5 C 10,6 C 91 % 1018,3 hPa 0,0 l/m 8,0 km/h (2 Bft) SW 225 0 min 0,0 UV-I 0 W/m 10,1 C 10,4 C 11,3 km/h (2 Bft)
02.10.2022 03:14 11,5 C 10,6 C 91 % 1018,3 hPa 0,0 l/m 12,9 km/h (3 Bft) SW 225 0 min 0,0 UV-I 0 W/m 10,1 C 7,8 C 16,1 km/h (3 Bft)
02.10.2022 03:15 11,5 C 10,6 C 91 % 1018,3 hPa 0,0 l/m 12,9 km/h (3 Bft) S-SW 202 0 min 0,0 UV-I 0 W/m 10,1 C 7,8 C 16,1 km/h (3 Bft)
02.10.2022 03:16 11,6 C 10,6 C 91 % 1018,3 hPa 0,0 l/m 11,3 km/h (2 Bft) S-SW 202 0 min 0,0 UV-I 0 W/m 10,2 C 8,7 C 16,1 km/h (3 Bft)
02.10.2022 03:17 11,6 C 10,6 C 91 % 1018,3 hPa 0,0 l/m 12,9 km/h (3 Bft) S-SW 202 0 min 0,0 UV-I 0 W/m 10,2 C 7,9 C 14,5 km/h (3 Bft)
02.10.2022 03:18 11,6 C 10,6 C 91 % 1018,2 hPa 0,0 l/m 9,7 km/h (2 Bft) S 180 0 min 0,0 UV-I 0 W/m 10,2 C 9,5 C 11,3 km/h (2 Bft)
02.10.2022 03:19 11,5 C 10,6 C 91 % 1018,4 hPa 0,0 l/m 11,3 km/h (2 Bft) S-SW 202 0 min 0,0 UV-I 0 W/m 10,1 C 8,6 C 16,1 km/h (3 Bft)
02.10.2022 03:20 11,6 C 10,6 C 91 % 1018,4 hPa 0,0 l/m 11,3 km/h (2 Bft) S-SW 202 0 min 0,0 UV-I 0 W/m 10,2 C 8,7 C 19,3 km/h (3 Bft)
02.10.2022 03:21 11,5 C 10,6 C 91 % 1018,3 hPa 0,0 l/m 8,0 km/h (2 Bft) SW 225 0 min 0,0 UV-I 0 W/m 10,1 C 10,4 C 11,3 km/h (2 Bft)
02.10.2022 03:22 11,5 C 10,6 C 91 % 1018,3 hPa 0,0 l/m 8,0 km/h (2 Bft) S-SW 202 0 min 0,0 UV-I 0 W/m 10,1 C 10,4 C 11,3 km/h (2 Bft)
02.10.2022 03:23 11,5 C 10,6 C 91 % 1018,3 hPa 0,0 l/m 9,7 km/h (2 Bft) S-SW 202 0 min 0,0 UV-I 0 W/m 10,1 C 9,4 C 14,5 km/h (3 Bft)
02.10.2022 03:24 11,5 C 10,6 C 91 % 1018,3 hPa 0,0 l/m 6,4 km/h (2 Bft) S-SW 202 0 min 0,0 UV-I 0 W/m 10,1 C 11,5 C 8,0 km/h (2 Bft)
02.10.2022 03:25 11,5 C 10,6 C 91 % 1018,4 hPa 0,0 l/m 9,7 km/h (2 Bft) S 180 0 min 0,0 UV-I 0 W/m 10,1 C 9,4 C 12,9 km/h (3 Bft)
02.10.2022 03:26 11,5 C 10,6 C 91 % 1018,5 hPa 0,0 l/m 11,3 km/h (2 Bft) S 180 0 min 0,0 UV-I 0 W/m 10,1 C 8,6 C 19,3 km/h (3 Bft)
02.10.2022 03:27 11,5 C 10,6 C 91 % 1018,5 hPa 0,0 l/m 8,0 km/h (2 Bft) S 180 0 min 0,0 UV-I 0 W/m 10,1 C 10,4 C 12,9 km/h (3 Bft)
02.10.2022 03:28 11,5 C 10,6 C 91 % 1018,5 hPa 0,0 l/m 8,0 km/h (2 Bft) S-SW 202 0 min 0,0 UV-I 0 W/m 10,1 C 10,4 C 11,3 km/h (2 Bft)
02.10.2022 03:29 11,5 C 10,6 C 91 % 1018,5 hPa 0,0 l/m 11,3 km/h (2 Bft) S 180 0 min 0,0 UV-I 0 W/m 10,1 C 8,6 C 14,5 km/h (3 Bft)
02.10.2022 03:30 11,5 C 10,6 C 91 % 1018,5 hPa 0,0 l/m 6,4 km/h (2 Bft) SW 225 0 min 0,0 UV-I 0 W/m 10,1 C 11,5 C 16,1 km/h (3 Bft)
02.10.2022 03:31 11,5 C 10,6 C 91 % 1018,5 hPa 0,0 l/m 11,3 km/h (2 Bft) S 180 0 min 0,0 UV-I 0 W/m 10,1 C 8,6 C 17,7 km/h (3 Bft)
02.10.2022 03:32 11,5 C 10,6 C 91 % 1018,5 hPa 0,0 l/m 9,7 km/h (2 Bft) S-SW 202 0 min 0,0 UV-I 0 W/m 10,1 C 9,4 C 16,1 km/h (3 Bft)
02.10.2022 03:33 11,5 C 10,6 C 91 % 1018,6 hPa 0,0 l/m 9,7 km/h (2 Bft) S-SW 202 0 min 0,0 UV-I 0 W/m 10,1 C 9,4 C 12,9 km/h (3 Bft)
02.10.2022 03:34 11,5 C 10,6 C 91 % 1018,6 hPa 0,0 l/m 6,4 km/h (2 Bft) S-SW 202 0 min 0,0 UV-I 0 W/m 10,1 C 11,5 C 11,3 km/h (2 Bft)
02.10.2022 03:35 11,5 C 10,6 C 91 % 1018,5 hPa 0,0 l/m 8,0 km/h (2 Bft) S 180 0 min 0,0 UV-I 0 W/m 10,1 C 10,4 C 12,9 km/h (3 Bft)
02.10.2022 03:36 11,5 C 10,6 C 91 % 1018,6 hPa 0,0 l/m 6,4 km/h (2 Bft) S 180 0 min 0,0 UV-I 0 W/m 10,1 C 11,5 C 14,5 km/h (3 Bft)
02.10.2022 03:37 11,4 C 10,6 C 91 % 1018,5 hPa 0,0 l/m 6,4 km/h (2 Bft) S-SW 202 0 min 0,0 UV-I 0 W/m 10,0 C 11,4 C 12,9 km/h (3 Bft)
02.10.2022 03:38 11,5 C 10,6 C 91 % 1018,6 hPa 0,0 l/m 4,8 km/h (1 Bft) S 180 0 min 0,0 UV-I 0 W/m 10,1 C 11,5 C 8,0 km/h (2 Bft)
02.10.2022 03:39 11,4 C 10,6 C 91 % 1018,5 hPa 0,0 l/m 8,0 km/h (2 Bft) S-SW 202 0 min 0,0 UV-I 0 W/m 10,0 C 10,3 C 9,7 km/h (2 Bft)
02.10.2022 03:40 11,4 C 10,6 C 91 % 1018,5 hPa 0,0 l/m 6,4 km/h (2 Bft) S 180 0 min 0,0 UV-I 0 W/m 10,0 C 11,4 C 9,7 km/h (2 Bft)
02.10.2022 03:41 11,4 C 10,6 C 91 % 1018,5 hPa 0,0 l/m 8,0 km/h (2 Bft) S 180 0 min 0,0 UV-I 0 W/m 10,0 C 10,3 C 12,9 km/h (3 Bft)
02.10.2022 03:42 11,4 C 10,6 C 91 % 1018,5 hPa 0,0 l/m 6,4 km/h (2 Bft) S-SW 202 0 min 0,0 UV-I 0 W/m 10,0 C 11,4 C 11,3 km/h (2 Bft)
02.10.2022 03:43 11,4 C 10,6 C 91 % 1018,5 hPa 0,0 l/m 6,4 km/h (2 Bft) S-SW 202 0 min 0,0 UV-I 0 W/m 10,0 C 11,4 C 9,7 km/h (2 Bft)
02.10.2022 03:44 11,4 C 10,6 C 91 % 1018,5 hPa 0,0 l/m 9,7 km/h (2 Bft) S-SW 202 0 min 0,0 UV-I 0 W/m 10,0 C 9,3 C 11,3 km/h (2 Bft)
02.10.2022 03:45 11,4 C 10,6 C 91 % 1018,6 hPa 0,0 l/m 8,0 km/h (2 Bft) S-SW 202 0 min 0,0 UV-I 0 W/m 10,0 C 10,3 C 11,3 km/h (2 Bft)
02.10.2022 03:46 11,4 C 10,6 C 91 % 1018,6 hPa 0,0 l/m 8,0 km/h (2 Bft) S-SW 202 0 min 0,0 UV-I 0 W/m 10,0 C 10,3 C 12,9 km/h (3 Bft)
02.10.2022 03:47 11,4 C 10,6 C 91 % 1018,6 hPa 0,0 l/m 9,7 km/h (2 Bft) S-SW 202 0 min 0,0 UV-I 0 W/m 10,0 C 9,3 C 12,9 km/h (3 Bft)
02.10.2022 03:48 11,4 C 10,6 C 91 % 1018,6 hPa 0,0 l/m 9,7 km/h (2 Bft) S-SW 202 0 min 0,0 UV-I 0 W/m 10,0 C 9,3 C 16,1 km/h (3 Bft)
02.10.2022 03:49 11,4 C 10,6 C 91 % 1018,5 hPa 0,0 l/m 9,7 km/h (2 Bft) S-SW 202 0 min 0,0 UV-I 0 W/m 10,0 C 9,3 C 14,5 km/h (3 Bft)
02.10.2022 03:50 11,4 C 10,6 C 91 % 1018,7 hPa 0,0 l/m 8,0 km/h (2 Bft) S-SW 202 0 min 0,0 UV-I 0 W/m 10,0 C 10,3 C 12,9 km/h (3 Bft)
02.10.2022 03:51 11,4 C 10,6 C 91 % 1018,5 hPa 0,0 l/m 8,0 km/h (2 Bft) S-SW 202 0 min 0,0 UV-I 0 W/m 10,0 C 10,3 C 9,7 km/h (2 Bft)
02.10.2022 03:52 11,4 C 10,6 C 91 % 1018,6 hPa 0,0 l/m 6,4 km/h (2 Bft) S-SW 202 0 min 0,0 UV-I 0 W/m 10,0 C 11,4 C 8,0 km/h (2 Bft)
02.10.2022 03:53 11,4 C 10,6 C 91 % 1018,6 hPa 0,0 l/m 6,4 km/h (2 Bft) S-SW 202 0 min 0,0 UV-I 0 W/m 10,0 C 11,4 C 11,3 km/h (2 Bft)
02.10.2022 03:54 11,4 C 10,6 C 91 % 1018,6 hPa 0,0 l/m 3,2 km/h (1 Bft) SW 225 0 min 0,0 UV-I 0 W/m 10,0 C 11,4 C 6,4 km/h (2 Bft)
02.10.2022 03:55 11,4 C 10,6 C 91 % 1018,6 hPa 0,0 l/m 9,7 km/h (2 Bft) S-SW 202 0 min 0,0 UV-I 0 W/m 10,0 C 9,3 C 11,3 km/h (2 Bft)
02.10.2022 03:56 11,4 C 10,6 C 91 % 1018,7 hPa 0,0 l/m 8,0 km/h (2 Bft) SW 225 0 min 0,0 UV-I 0 W/m 10,0 C 10,3 C 11,3 km/h (2 Bft)
02.10.2022 03:57 11,4 C 10,6 C 91 % 1018,7 hPa 0,0 l/m 8,0 km/h (2 Bft) SW 225 0 min 0,0 UV-I 0 W/m 10,0 C 10,3 C 11,3 km/h (2 Bft)
02.10.2022 03:58 11,4 C 10,6 C 91 % 1018,8 hPa 0,0 l/m 9,7 km/h (2 Bft) S-SW 202 0 min 0,0 UV-I 0 W/m 10,0 C 9,3 C 12,9 km/h (3 Bft)
02.10.2022 03:59 11,4 C 10,6 C 91 % 1018,7 hPa 0,0 l/m 11,3 km/h (2 Bft) S-SW 202 0 min 0,0 UV-I 0 W/m 10,0 C 8,5 C 16,1 km/h (3 Bft)
02.10.2022 04:00 11,3 C 10,6 C 91 % 1018,7 hPa 0,0 l/m 9,7 km/h (2 Bft) S 180 0 min 0,0 UV-I 0 W/m 9,9 C 9,2 C 12,9 km/h (3 Bft)
02.10.2022 04:01 11,4 C 10,6 C 91 % 1018,7 hPa 0,0 l/m 4,8 km/h (1 Bft) S-SW 202 0 min 0,0 UV-I 0 W/m 10,0 C 11,4 C 14,5 km/h (3 Bft)
02.10.2022 04:02 11,4 C 10,6 C 91 % 1018,7 hPa 0,0 l/m 9,7 km/h (2 Bft) S 180 0 min 0,0 UV-I 0 W/m 10,0 C 9,3 C 12,9 km/h (3 Bft)
02.10.2022 04:03 11,4 C 10,6 C 91 % 1018,7 hPa 0,0 l/m 8,0 km/h (2 Bft) S-SW 202 0 min 0,0 UV-I 0 W/m 10,0 C 10,3 C 12,9 km/h (3 Bft)
02.10.2022 04:04 11,4 C 10,6 C 91 % 1018,7 hPa 0,0 l/m 9,7 km/h (2 Bft) S-SW 202 0 min 0,0 UV-I 0 W/m 10,0 C 9,3 C 12,9 km/h (3 Bft)
02.10.2022 04:05 11,4 C 10,6 C 91 % 1018,7 hPa 0,0 l/m 11,3 km/h (2 Bft) S 180 0 min 0,0 UV-I 0 W/m 10,0 C 8,5 C 17,7 km/h (3 Bft)
02.10.2022 04:06 11,4 C 10,6 C 91 % 1018,7 hPa 0,0 l/m 12,9 km/h (3 Bft) S 180 0 min 0,0 UV-I 0 W/m 10,0 C 7,7 C 17,7 km/h (3 Bft)
02.10.2022 04:07 11,4 C 10,6 C 91 % 1018,6 hPa 0,0 l/m 6,4 km/h (2 Bft) S-SW 202 0 min 0,0 UV-I 0 W/m 10,0 C 11,4 C 9,7 km/h (2 Bft)
02.10.2022 04:08 11,4 C 10,6 C 91 % 1018,6 hPa 0,0 l/m 9,7 km/h (2 Bft) S-SW 202 0 min 0,0 UV-I 0 W/m 10,0 C 9,3 C 14,5 km/h (3 Bft)
02.10.2022 04:09 11,3 C 10,6 C 91 % 1018,5 hPa 0,0 l/m 8,0 km/h (2 Bft) S-SO 157 0 min 0,0 UV-I 0 W/m 9,9 C 10,2 C 11,3 km/h (2 Bft)
02.10.2022 04:10 11,3 C 10,6 C 91 % 1018,5 hPa 0,0 l/m 4,8 km/h (1 Bft) S 180 0 min 0,0 UV-I 0 W/m 9,9 C 11,3 C 8,0 km/h (2 Bft)
02.10.2022 04:11 11,3 C 10,6 C 91 % 1018,5 hPa 0,0 l/m 11,3 km/h (2 Bft) S-SW 202 0 min 0,0 UV-I 0 W/m 9,9 C 8,4 C 17,7 km/h (3 Bft)
02.10.2022 04:12 11,4 C 10,6 C 91 % 1018,5 hPa 0,0 l/m 11,3 km/h (2 Bft) S-SW 202 0 min 0,0 UV-I 0 W/m 10,0 C 8,5 C 14,5 km/h (3 Bft)
02.10.2022 04:13 11,3 C 10,6 C 91 % 1018,5 hPa 0,0 l/m 9,7 km/h (2 Bft) S 180 0 min 0,0 UV-I 0 W/m 9,9 C 9,2 C 17,7 km/h (3 Bft)
02.10.2022 04:14 11,3 C 10,6 C 91 % 1018,5 hPa 0,0 l/m 12,9 km/h (3 Bft) S 180 0 min 0,0 UV-I 0 W/m 9,9 C 7,6 C 17,7 km/h (3 Bft)
02.10.2022 04:15 11,3 C 10,6 C 91 % 1018,5 hPa 0,0 l/m 9,7 km/h (2 Bft) S 180 0 min 0,0 UV-I 0 W/m 9,9 C 9,2 C 14,5 km/h (3 Bft)
02.10.2022 04:16 11,3 C 10,6 C 91 % 1018,5 hPa 0,0 l/m 9,7 km/h (2 Bft) S-SW 202 0 min 0,0 UV-I 0 W/m 9,9 C 9,2 C 14,5 km/h (3 Bft)
02.10.2022 04:17 11,3 C 10,6 C 91 % 1018,5 hPa 0,0 l/m 11,3 km/h (2 Bft) S-SW 202 0 min 0,0 UV-I 0 W/m 9,9 C 8,4 C 17,7 km/h (3 Bft)
02.10.2022 04:18 11,3 C 10,6 C 91 % 1018,5 hPa 0,0 l/m 9,7 km/h (2 Bft) S-SW 202 0 min 0,0 UV-I 0 W/m 9,9 C 9,2 C 12,9 km/h (3 Bft)
02.10.2022 04:19 11,3 C 10,6 C 91 % 1018,6 hPa 0,0 l/m 8,0 km/h (2 Bft) S 180 0 min 0,0 UV-I 0 W/m 9,9 C 10,2 C 11,3 km/h (2 Bft)
02.10.2022 04:20 11,3 C 10,6 C 91 % 1018,5 hPa 0,0 l/m 12,9 km/h (3 Bft) S 180 0 min 0,0 UV-I 0 W/m 9,9 C 7,6 C 27,4 km/h (4 Bft)
02.10.2022 04:21 11,3 C 10,6 C 91 % 1018,5 hPa 0,0 l/m 9,7 km/h (2 Bft) S-SW 202 0 min 0,0 UV-I 0 W/m 9,9 C 9,2 C 24,1 km/h (4 Bft)
02.10.2022 04:22 11,3 C 10,6 C 91 % 1018,5 hPa 0,0 l/m 9,7 km/h (2 Bft) S-SW 202 0 min 0,0 UV-I 0 W/m 9,9 C 9,2 C 12,9 km/h (3 Bft)
02.10.2022 04:23 11,3 C 10,6 C 91 % 1018,4 hPa 0,0 l/m 8,0 km/h (2 Bft) S 180 0 min 0,0 UV-I 0 W/m 9,9 C 10,2 C 12,9 km/h (3 Bft)
02.10.2022 04:24 11,3 C 10,6 C 91 % 1018,4 hPa 0,0 l/m 6,4 km/h (2 Bft) S-SW 202 0 min 0,0 UV-I 0 W/m 9,9 C 11,3 C 9,7 km/h (2 Bft)
02.10.2022 04:25 11,3 C 10,6 C 91 % 1018,4 hPa 0,0 l/m 6,4 km/h (2 Bft) S-SO 157 0 min 0,0 UV-I 0 W/m 9,9 C 11,3 C 12,9 km/h (3 Bft)
02.10.2022 04:26 11,3 C 10,6 C 91 % 1018,4 hPa 0,0 l/m 14,5 km/h (3 Bft) S-SW 202 0 min 0,0 UV-I 0 W/m 9,9 C 6,9 C 16,1 km/h (3 Bft)
02.10.2022 04:27 11,3 C 10,6 C 91 % 1018,5 hPa 0,0 l/m 12,9 km/h (3 Bft) S 180 0 min 0,0 UV-I 0 W/m 9,9 C 7,6 C 16,1 km/h (3 Bft)
02.10.2022 04:28 11,3 C 10,6 C 91 % 1018,4 hPa 0,0 l/m 9,7 km/h (2 Bft) SW 225 0 min 0,0 UV-I 0 W/m 9,9 C 9,2 C 14,5 km/h (3 Bft)
02.10.2022 04:29 11,3 C 10,6 C 91 % 1018,5 hPa 0,0 l/m 9,7 km/h (2 Bft) S-SW 202 0 min 0,0 UV-I 0 W/m 9,9 C 9,2 C 12,9 km/h (3 Bft)
02.10.2022 04:30 11,3 C 10,6 C 91 % 1018,5 hPa 0,0 l/m 12,9 km/h (3 Bft) S-SW 202 0 min 0,0 UV-I 0 W/m 9,9 C 7,6 C 16,1 km/h (3 Bft)
02.10.2022 04:31 11,3 C 10,6 C 91 % 1018,5 hPa 0,0 l/m 9,7 km/h (2 Bft) S-SW 202 0 min 0,0 UV-I 0 W/m 9,9 C 9,2 C 16,1 km/h (3 Bft)
02.10.2022 04:32 11,4 C 10,6 C 91 % 1018,4 hPa 0,0 l/m 9,7 km/h (2 Bft) SW 225 0 min 0,0 UV-I 0 W/m 10,0 C 9,3 C 14,5 km/h (3 Bft)
02.10.2022 04:33 11,3 C 10,6 C 91 % 1018,4 hPa 0,0 l/m 11,3 km/h (2 Bft) S-SW 202 0 min 0,0 UV-I 0 W/m 9,9 C 8,4 C 16,1 km/h (3 Bft)
02.10.2022 04:34 11,3 C 10,6 C 91 % 1018,4 hPa 0,0 l/m 9,7 km/h (2 Bft) S-SW 202 0 min 0,0 UV-I 0 W/m 9,9 C 9,2 C 12,9 km/h (3 Bft)
02.10.2022 04:35 11,4 C 10,6 C 91 % 1018,4 hPa 0,0 l/m 11,3 km/h (2 Bft) S 180 0 min 0,0 UV-I 0 W/m 10,0 C 8,5 C 14,5 km/h (3 Bft)
02.10.2022 04:36 11,3 C 10,6 C 91 % 1018,5 hPa 0,0 l/m 8,0 km/h (2 Bft) S-SW 202 0 min 0,0 UV-I 0 W/m 9,9 C 10,2 C 9,7 km/h (2 Bft)
02.10.2022 04:37 11,3 C 10,6 C 91 % 1018,4 hPa 0,0 l/m 12,9 km/h (3 Bft) S 180 0 min 0,0 UV-I 0 W/m 9,9 C 7,6 C 19,3 km/h (3 Bft)
02.10.2022 04:38 11,3 C 10,6 C 91 % 1018,4 hPa 0,0 l/m 14,5 km/h (3 Bft) S-SW 202 0 min 0,0 UV-I 0 W/m 9,9 C 6,9 C 16,1 km/h (3 Bft)
02.10.2022 04:39 11,3 C 10,6 C 91 % 1018,6 hPa 0,0 l/m 9,7 km/h (2 Bft) S 180 0 min 0,0 UV-I 0 W/m 9,9 C 9,2 C 16,1 km/h (3 Bft)
02.10.2022 04:40 11,3 C 10,6 C 91 % 1018,4 hPa 0,0 l/m 12,9 km/h (3 Bft) S 180 0 min 0,0 UV-I 0 W/m 9,9 C 7,6 C 16,1 km/h (3 Bft)
02.10.2022 04:41 11,4 C 10,6 C 91 % 1018,4 hPa 0,0 l/m 14,5 km/h (3 Bft) S-SW 202 0 min 0,0 UV-I 0 W/m 10,0 C 7,0 C 22,5 km/h (4 Bft)
02.10.2022 04:42 11,4 C 10,6 C 91 % 1018,4 hPa 0,0 l/m 8,0 km/h (2 Bft) S 180 0 min 0,0 UV-I 0 W/m 10,0 C 10,3 C 11,3 km/h (2 Bft)
02.10.2022 04:43 11,4 C 10,6 C 91 % 1018,4 hPa 0,0 l/m 9,7 km/h (2 Bft) SW 225 0 min 0,0 UV-I 0 W/m 10,0 C 9,3 C 12,9 km/h (3 Bft)
02.10.2022 04:44 11,3 C 10,6 C 91 % 1018,4 hPa 0,0 l/m 8,0 km/h (2 Bft) S 180 0 min 0,0 UV-I 0 W/m 9,9 C 10,2 C 14,5 km/h (3 Bft)
02.10.2022 04:45 11,3 C 10,6 C 91 % 1018,3 hPa 0,0 l/m 9,7 km/h (2 Bft) S 180 0 min 0,0 UV-I 0 W/m 9,9 C 9,2 C 14,5 km/h (3 Bft)
02.10.2022 04:46 11,4 C 10,6 C 91 % 1018,4 hPa 0,0 l/m 11,3 km/h (2 Bft) S 180 0 min 0,0 UV-I 0 W/m 10,0 C 8,5 C 16,1 km/h (3 Bft)
02.10.2022 04:47 11,4 C 10,6 C 91 % 1018,4 hPa 0,0 l/m 11,3 km/h (2 Bft) S-SW 202 0 min 0,0 UV-I 0 W/m 10,0 C 8,5 C 14,5 km/h (3 Bft)
02.10.2022 04:48 11,3 C 10,6 C 91 % 1018,5 hPa 0,0 l/m 12,9 km/h (3 Bft) S-SW 202 0 min 0,0 UV-I 0 W/m 9,9 C 7,6 C 19,3 km/h (3 Bft)
02.10.2022 04:49 11,3 C 10,6 C 91 % 1018,5 hPa 0,0 l/m 11,3 km/h (2 Bft) S-SW 202 0 min 0,0 UV-I 0 W/m 9,9 C 8,4 C 17,7 km/h (3 Bft)
02.10.2022 04:50 11,4 C 10,6 C 91 % 1018,4 hPa 0,0 l/m 11,3 km/h (2 Bft) S-SW 202 0 min 0,0 UV-I 0 W/m 10,0 C 8,5 C 14,5 km/h (3 Bft)
02.10.2022 04:51 11,3 C 10,6 C 91 % 1018,4 hPa 0,0 l/m 12,9 km/h (3 Bft) S-SW 202 0 min 0,0 UV-I 0 W/m 9,9 C 7,6 C 25,7 km/h (4 Bft)
02.10.2022 04:52 11,3 C 10,6 C 91 % 1018,5 hPa 0,0 l/m 9,7 km/h (2 Bft) S-SW 202 0 min 0,0 UV-I 0 W/m 9,9 C 9,2 C 16,1 km/h (3 Bft)
02.10.2022 04:53 11,3 C 10,6 C 91 % 1018,4 hPa 0,0 l/m 14,5 km/h (3 Bft) S-SW 202 0 min 0,0 UV-I 0 W/m 9,9 C 6,9 C 17,7 km/h (3 Bft)
02.10.2022 04:54 11,4 C 10,6 C 91 % 1018,3 hPa 0,0 l/m 11,3 km/h (2 Bft) S-SW 202 0 min 0,0 UV-I 0 W/m 10,0 C 8,5 C 16,1 km/h (3 Bft)
02.10.2022 04:55 11,3 C 10,6 C 91 % 1018,4 hPa 0,0 l/m 12,9 km/h (3 Bft) S-SW 202 0 min 0,0 UV-I 0 W/m 9,9 C 7,6 C 20,9 km/h (4 Bft)
02.10.2022 04:56 11,3 C 10,6 C 91 % 1018,3 hPa 0,0 l/m 9,7 km/h (2 Bft) S 180 0 min 0,0 UV-I 0 W/m 9,9 C 9,2 C 17,7 km/h (3 Bft)
02.10.2022 04:57 11,3 C 10,6 C 91 % 1018,3 hPa 0,0 l/m 12,9 km/h (3 Bft) S-SW 202 0 min 0,0 UV-I 0 W/m 9,9 C 7,6 C 16,1 km/h (3 Bft)
02.10.2022 04:58 11,3 C 10,6 C 91 % 1018,3 hPa 0,0 l/m 11,3 km/h (2 Bft) S-SW 202 0 min 0,0 UV-I 0 W/m 9,9 C 8,4 C 16,1 km/h (3 Bft)
02.10.2022 04:59 11,3 C 10,6 C 91 % 1018,4 hPa 0,0 l/m 14,5 km/h (3 Bft) S 180 0 min 0,0 UV-I 0 W/m 9,9 C 6,9 C 20,9 km/h (4 Bft)
02.10.2022 05:00 11,3 C 10,6 C 91 % 1018,4 hPa 0,0 l/m 14,5 km/h (3 Bft) S-SW 202 0 min 0,0 UV-I 0 W/m 9,9 C 6,9 C 19,3 km/h (3 Bft)
02.10.2022 05:01 11,3 C 10,6 C 91 % 1018,4 hPa 0,0 l/m 14,5 km/h (3 Bft) S 180 0 min 0,0 UV-I 0 W/m 9,9 C 6,9 C 22,5 km/h (4 Bft)
02.10.2022 05:02 11,3 C 10,6 C 91 % 1018,4 hPa 0,0 l/m 14,5 km/h (3 Bft) S-SW 202 0 min 0,0 UV-I 0 W/m 9,9 C 6,9 C 19,3 km/h (3 Bft)
02.10.2022 05:03 11,3 C 10,6 C 91 % 1018,5 hPa 0,0 l/m 11,3 km/h (2 Bft) S-SW 202 0 min 0,0 UV-I 0 W/m 9,9 C 8,4 C 14,5 km/h (3 Bft)
02.10.2022 05:04 11,3 C 10,6 C 91 % 1018,4 hPa 0,0 l/m 12,9 km/h (3 Bft) S 180 0 min 0,0 UV-I 0 W/m 9,9 C 7,6 C 19,3 km/h (3 Bft)
02.10.2022 05:05 11,3 C 10,6 C 91 % 1018,4 hPa 0,0 l/m 8,0 km/h (2 Bft) S-SW 202 0 min 0,0 UV-I 0 W/m 9,9 C 10,2 C 14,5 km/h (3 Bft)
02.10.2022 05:06 11,3 C 10,6 C 91 % 1018,5 hPa 0,0 l/m 9,7 km/h (2 Bft) S 180 0 min 0,0 UV-I 0 W/m 9,9 C 9,2 C 16,1 km/h (3 Bft)
02.10.2022 05:07 11,3 C 10,6 C 91 % 1018,4 hPa 0,0 l/m 11,3 km/h (2 Bft) S 180 0 min 0,0 UV-I 0 W/m 9,9 C 8,4 C 16,1 km/h (3 Bft)
02.10.2022 05:08 11,3 C 10,6 C 91 % 1018,4 hPa 0,0 l/m 12,9 km/h (3 Bft) S-SW 202 0 min 0,0 UV-I 0 W/m 9,9 C 7,6 C 16,1 km/h (3 Bft)
02.10.2022 05:09 11,3 C 10,6 C 91 % 1018,4 hPa 0,0 l/m 12,9 km/h (3 Bft) S 180 0 min 0,0 UV-I 0 W/m 9,9 C 7,6 C 16,1 km/h (3 Bft)
02.10.2022 05:10 11,3 C 10,6 C 91 % 1018,4 hPa 0,0 l/m 11,3 km/h (2 Bft) S 180 0 min 0,0 UV-I 0 W/m 9,9 C 8,4 C 16,1 km/h (3 Bft)
02.10.2022 05:11 11,3 C 10,6 C 91 % 1018,4 hPa 0,0 l/m 9,7 km/h (2 Bft) S-SW 202 0 min 0,0 UV-I 0 W/m 9,9 C 9,2 C 16,1 km/h (3 Bft)
02.10.2022 05:12 11,3 C 10,6 C 91 % 1018,4 hPa 0,0 l/m 14,5 km/h (3 Bft) S 180 0 min 0,0 UV-I 0 W/m 9,9 C 6,9 C 22,5 km/h (4 Bft)
02.10.2022 05:13 11,3 C 10,6 C 92 % 1018,4 hPa 0,0 l/m 11,3 km/h (2 Bft) S 180 0 min 0,0 UV-I 0 W/m 10,0 C 8,4 C 14,5 km/h (3 Bft)
02.10.2022 05:14 11,2 C 10,6 C 92 % 1018,4 hPa 0,0 l/m 9,7 km/h (2 Bft) S-SW 202 0 min 0,0 UV-I 0 W/m 9,9 C 9,1 C 19,3 km/h (3 Bft)
02.10.2022 05:15 11,3 C 10,6 C 92 % 1018,5 hPa 0,0 l/m 8,0 km/h (2 Bft) S 180 0 min 0,0 UV-I 0 W/m 10,0 C 10,2 C 9,7 km/h (2 Bft)
02.10.2022 05:16 11,3 C 10,6 C 92 % 1018,3 hPa 0,0 l/m 9,7 km/h (2 Bft) S-SW 202 0 min 0,0 UV-I 0 W/m 10,0 C 9,2 C 14,5 km/h (3 Bft)
02.10.2022 05:17 11,2 C 10,6 C 92 % 1018,4 hPa 0,0 l/m 9,7 km/h (2 Bft) S 180 0 min 0,0 UV-I 0 W/m 9,9 C 9,1 C 12,9 km/h (3 Bft)
02.10.2022 05:18 11,2 C 10,6 C 92 % 1018,3 hPa 0,0 l/m 9,7 km/h (2 Bft) S 180 0 min 0,0 UV-I 0 W/m 9,9 C 9,1 C 17,7 km/h (3 Bft)
02.10.2022 05:19 11,2 C 10,6 C 92 % 1018,4 hPa 0,0 l/m 11,3 km/h (2 Bft) S-SW 202 0 min 0,0 UV-I 0 W/m 9,9 C 8,2 C 17,7 km/h (3 Bft)
02.10.2022 05:20 11,2 C 10,6 C 92 % 1018,4 hPa 0,0 l/m 9,7 km/h (2 Bft) S-SW 202 0 min 0,0 UV-I 0 W/m 9,9 C 9,1 C 17,7 km/h (3 Bft)
02.10.2022 05:21 11,2 C 10,6 C 92 % 1018,3 hPa 0,0 l/m 11,3 km/h (2 Bft) S 180 0 min 0,0 UV-I 0 W/m 9,9 C 8,2 C 14,5 km/h (3 Bft)
02.10.2022 05:22 11,2 C 10,6 C 92 % 1018,3 hPa 0,0 l/m 11,3 km/h (2 Bft) S-SW 202 0 min 0,0 UV-I 0 W/m 9,9 C 8,2 C 16,1 km/h (3 Bft)
02.10.2022 05:23 11,2 C 10,6 C 92 % 1018,2 hPa 0,0 l/m 12,9 km/h (3 Bft) S 180 0 min 0,0 UV-I 0 W/m 9,9 C 7,5 C 17,7 km/h (3 Bft)
02.10.2022 05:24 11,2 C 10,6 C 92 % 1018,3 hPa 0,0 l/m 11,3 km/h (2 Bft) SW 225 0 min 0,0 UV-I 0 W/m 9,9 C 8,2 C 16,1 km/h (3 Bft)
02.10.2022 05:25 11,2 C 10,6 C 92 % 1018,2 hPa 0,0 l/m 9,7 km/h (2 Bft) S 180 0 min 0,0 UV-I 0 W/m 9,9 C 9,1 C 12,9 km/h (3 Bft)
02.10.2022 05:26 11,2 C 10,6 C 92 % 1018,3 hPa 0,0 l/m 8,0 km/h (2 Bft) S 180 0 min 0,0 UV-I 0 W/m 9,9 C 10,1 C 12,9 km/h (3 Bft)
02.10.2022 05:27 11,3 C 10,6 C 92 % 1018,3 hPa 0,0 l/m 16,1 km/h (3 Bft) S-SW 202 0 min 0,0 UV-I 0 W/m 10,0 C 6,3 C 20,9 km/h (4 Bft)
02.10.2022 05:28 11,2 C 10,6 C 92 % 1018,3 hPa 0,0 l/m 11,3 km/h (2 Bft) S-SW 202 0 min 0,0 UV-I 0 W/m 9,9 C 8,2 C 17,7 km/h (3 Bft)
02.10.2022 05:29 11,2 C 10,6 C 92 % 1018,3 hPa 0,0 l/m 16,1 km/h (3 Bft) S-SW 202 0 min 0,0 UV-I 0 W/m 9,9 C 6,2 C 20,9 km/h (4 Bft)
02.10.2022 05:30 11,2 C 10,6 C 92 % 1018,3 hPa 0,0 l/m 11,3 km/h (2 Bft) SW 225 0 min 0,0 UV-I 0 W/m 9,9 C 8,2 C 19,3 km/h (3 Bft)
02.10.2022 05:31 11,3 C 10,6 C 92 % 1018,2 hPa 0,0 l/m 14,5 km/h (3 Bft) S-SW 202 0 min 0,0 UV-I 0 W/m 10,0 C 6,9 C 19,3 km/h (3 Bft)
02.10.2022 05:32 11,2 C 10,6 C 92 % 1018,2 hPa 0,0 l/m 12,9 km/h (3 Bft) S-SW 202 0 min 0,0 UV-I 0 W/m 9,9 C 7,5 C 20,9 km/h (4 Bft)
02.10.2022 05:33 11,2 C 10,6 C 92 % 1018,4 hPa 0,0 l/m 11,3 km/h (2 Bft) SW 225 0 min 0,0 UV-I 0 W/m 9,9 C 8,2 C 20,9 km/h (4 Bft)
02.10.2022 05:34 11,3 C 10,6 C 92 % 1018,2 hPa 0,0 l/m 9,7 km/h (2 Bft) S 180 0 min 0,0 UV-I 0 W/m 10,0 C 9,2 C 16,1 km/h (3 Bft)
02.10.2022 05:35 11,3 C 10,6 C 92 % 1018,3 hPa 0,0 l/m 11,3 km/h (2 Bft) S-SW 202 0 min 0,0 UV-I 0 W/m 10,0 C 8,4 C 16,1 km/h (3 Bft)
02.10.2022 05:36 11,2 C 10,6 C 92 % 1018,3 hPa 0,0 l/m 12,9 km/h (3 Bft) S-SW 202 0 min 0,0 UV-I 0 W/m 9,9 C 7,5 C 20,9 km/h (4 Bft)
02.10.2022 05:37 11,3 C 10,6 C 92 % 1018,2 hPa 0,0 l/m 14,5 km/h (3 Bft) S-SW 202 0 min 0,0 UV-I 0 W/m 10,0 C 6,9 C 17,7 km/h (3 Bft)
02.10.2022 05:38 11,3 C 10,6 C 92 % 1018,2 hPa 0,0 l/m 9,7 km/h (2 Bft) S-SW 202 0 min 0,0 UV-I 0 W/m 10,0 C 9,2 C 16,1 km/h (3 Bft)
02.10.2022 05:39 11,3 C 10,6 C 92 % 1018,3 hPa 0,2 l/m 11,3 km/h (2 Bft) S-SW 202 0 min 0,0 UV-I 0 W/m 10,0 C 8,4 C 19,3 km/h (3 Bft)
02.10.2022 05:40 11,3 C 10,6 C 92 % 1018,3 hPa 0,0 l/m 9,7 km/h (2 Bft) S-SW 202 0 min 0,0 UV-I 0 W/m 10,0 C 9,2 C 16,1 km/h (3 Bft)
02.10.2022 05:41 11,3 C 10,6 C 92 % 1018,2 hPa 0,0 l/m 11,3 km/h (2 Bft) S 180 0 min 0,0 UV-I 0 W/m 10,0 C 8,4 C 17,7 km/h (3 Bft)
02.10.2022 05:42 11,3 C 10,6 C 92 % 1018,2 hPa 0,0 l/m 14,5 km/h (3 Bft) S 180 0 min 0,0 UV-I 0 W/m 10,0 C 6,9 C 20,9 km/h (4 Bft)
02.10.2022 05:43 11,3 C 10,6 C 92 % 1018,2 hPa 0,0 l/m 11,3 km/h (2 Bft) S-SW 202 0 min 0,0 UV-I 0 W/m 10,0 C 8,4 C 14,5 km/h (3 Bft)
02.10.2022 05:44 11,3 C 10,6 C 92 % 1018,2 hPa 0,0 l/m 11,3 km/h (2 Bft) S 180 0 min 0,0 UV-I 0 W/m 10,0 C 8,4 C 14,5 km/h (3 Bft)
02.10.2022 05:45 11,3 C 10,6 C 92 % 1018,3 hPa 0,0 l/m 9,7 km/h (2 Bft) S-SW 202 0 min 0,0 UV-I 0 W/m 10,0 C 9,2 C 14,5 km/h (3 Bft)
02.10.2022 05:46 11,2 C 10,6 C 92 % 1018,2 hPa 0,0 l/m 11,3 km/h (2 Bft) S 180 0 min 0,0 UV-I 0 W/m 9,9 C 8,2 C 19,3 km/h (3 Bft)
02.10.2022 05:47 11,2 C 10,6 C 92 % 1018,3 hPa 0,0 l/m 6,4 km/h (2 Bft) S-SW 202 0 min 0,0 UV-I 0 W/m 9,9 C 11,2 C 12,9 km/h (3 Bft)
02.10.2022 05:48 11,2 C 10,6 C 92 % 1018,3 hPa 0,0 l/m 8,0 km/h (2 Bft) S 180 0 min 0,0 UV-I 0 W/m 9,9 C 10,1 C 11,3 km/h (2 Bft)
02.10.2022 05:49 11,2 C 10,6 C 92 % 1018,2 hPa 0,0 l/m 9,7 km/h (2 Bft) S 180 0 min 0,0 UV-I 0 W/m 9,9 C 9,1 C 12,9 km/h (3 Bft)
02.10.2022 05:50 11,2 C 10,6 C 92 % 1018,2 hPa 0,0 l/m 9,7 km/h (2 Bft) S-SW 202 0 min 0,0 UV-I 0 W/m 9,9 C 9,1 C 14,5 km/h (3 Bft)
02.10.2022 05:51 11,2 C 10,6 C 92 % 1018,2 hPa 0,0 l/m 9,7 km/h (2 Bft) S-SW 202 0 min 0,0 UV-I 0 W/m 9,9 C 9,1 C 12,9 km/h (3 Bft)
02.10.2022 05:52 11,2 C 10,6 C 92 % 1018,1 hPa 0,0 l/m 9,7 km/h (2 Bft) S 180 0 min 0,0 UV-I 0 W/m 9,9 C 9,1 C 12,9 km/h (3 Bft)
02.10.2022 05:53 11,2 C 10,6 C 92 % 1018,2 hPa 0,0 l/m 6,4 km/h (2 Bft) S-SW 202 0 min 0,0 UV-I 0 W/m 9,9 C 11,2 C 11,3 km/h (2 Bft)
02.10.2022 05:54 11,2 C 10,6 C 92 % 1018,1 hPa 0,0 l/m 11,3 km/h (2 Bft) S 180 0 min 0,0 UV-I 0 W/m 9,9 C 8,2 C 17,7 km/h (3 Bft)
02.10.2022 05:55 11,2 C 10,6 C 92 % 1018,1 hPa 0,0 l/m 12,9 km/h (3 Bft) S 180 0 min 0,0 UV-I 0 W/m 9,9 C 7,5 C 16,1 km/h (3 Bft)
02.10.2022 05:56 11,2 C 10,6 C 92 % 1018,1 hPa 0,0 l/m 9,7 km/h (2 Bft) S-SW 202 0 min 0,0 UV-I 0 W/m 9,9 C 9,1 C 14,5 km/h (3 Bft)
02.10.2022 05:57 11,2 C 10,6 C 92 % 1018,2 hPa 0,0 l/m 11,3 km/h (2 Bft) S-SW 202 0 min 0,0 UV-I 0 W/m 9,9 C 8,2 C 17,7 km/h (3 Bft)
02.10.2022 05:58 11,2 C 10,6 C 92 % 1018,2 hPa 0,0 l/m 11,3 km/h (2 Bft) S-SW 202 0 min 0,0 UV-I 0 W/m 9,9 C 8,2 C 16,1 km/h (3 Bft)
02.10.2022 05:59 11,2 C 10,6 C 92 % 1018,1 hPa 0,0 l/m 6,4 km/h (2 Bft) S 180 0 min 0,0 UV-I 0 W/m 9,9 C 11,2 C 8,0 km/h (2 Bft)
02.10.2022 06:00 11,2 C 10,6 C 92 % 1018,1 hPa 0,0 l/m 9,7 km/h (2 Bft) S 180 0 min 0,0 UV-I 0 W/m 9,9 C 9,1 C 16,1 km/h (3 Bft)
02.10.2022 06:01 11,2 C 10,6 C 92 % 1018,3 hPa 0,0 l/m 11,3 km/h (2 Bft) S-SW 202 0 min 0,0 UV-I 0 W/m 9,9 C 8,2 C 17,7 km/h (3 Bft)
02.10.2022 06:02 11,2 C 10,6 C 92 % 1018,2 hPa 0,0 l/m 9,7 km/h (2 Bft) S 180 0 min 0,0 UV-I 0 W/m 9,9 C 9,1 C 12,9 km/h (3 Bft)
02.10.2022 06:03 11,2 C 10,6 C 92 % 1018,2 hPa 0,2 l/m 9,7 km/h (2 Bft) S-SW 202 0 min 0,0 UV-I 0 W/m 9,9 C 9,1 C 14,5 km/h (3 Bft)
02.10.2022 06:04 11,2 C 10,6 C 92 % 1018,2 hPa 0,0 l/m 12,9 km/h (3 Bft) S-SW 202 0 min 0,0 UV-I 0 W/m 9,9 C 7,5 C 17,7 km/h (3 Bft)
02.10.2022 06:05 11,2 C 10,6 C 92 % 1018,2 hPa 0,0 l/m 11,3 km/h (2 Bft) S-SW 202 0 min 0,0 UV-I 0 W/m 9,9 C 8,2 C 17,7 km/h (3 Bft)
02.10.2022 06:06 11,2 C 10,6 C 92 % 1018,2 hPa 0,0 l/m 11,3 km/h (2 Bft) S 180 0 min 0,0 UV-I 0 W/m 9,9 C 8,2 C 16,1 km/h (3 Bft)
02.10.2022 06:07 11,2 C 10,6 C 92 % 1018,1 hPa 0,0 l/m 11,3 km/h (2 Bft) S-SW 202 0 min 0,0 UV-I 0 W/m 9,9 C 8,2 C 16,1 km/h (3 Bft)
02.10.2022 06:08 11,2 C 10,6 C 92 % 1018,2 hPa 0,0 l/m 12,9 km/h (3 Bft) S 180 0 min 0,0 UV-I 0 W/m 9,9 C 7,5 C 17,7 km/h (3 Bft)
02.10.2022 06:09 11,2 C 10,6 C 92 % 1018,2 hPa 0,0 l/m 8,0 km/h (2 Bft) SW 225 0 min 0,0 UV-I 0 W/m 9,9 C 10,1 C 11,3 km/h (2 Bft)
02.10.2022 06:10 11,2 C 10,6 C 92 % 1018,2 hPa 0,0 l/m 9,7 km/h (2 Bft) S-SW 202 0 min 0,0 UV-I 0 W/m 9,9 C 9,1 C 12,9 km/h (3 Bft)
02.10.2022 06:11 11,2 C 10,6 C 92 % 1018,2 hPa 0,0 l/m 9,7 km/h (2 Bft) S 180 0 min 0,0 UV-I 0 W/m 9,9 C 9,1 C 11,3 km/h (2 Bft)
02.10.2022 06:12 11,1 C 10,6 C 92 % 1018,2 hPa 0,0 l/m 11,3 km/h (2 Bft) S-SW 202 0 min 0,0 UV-I 0 W/m 9,8 C 8,1 C 19,3 km/h (3 Bft)
02.10.2022 06:13 11,1 C 10,6 C 92 % 1018,2 hPa 0,0 l/m 14,5 km/h (3 Bft) S 180 0 min 0,0 UV-I 0 W/m 9,8 C 6,7 C 17,7 km/h (3 Bft)
02.10.2022 06:14 11,2 C 10,6 C 92 % 1018,3 hPa 0,2 l/m 11,3 km/h (2 Bft) S-SW 202 0 min 0,0 UV-I 0 W/m 9,9 C 8,2 C 12,9 km/h (3 Bft)
02.10.2022 06:15 11,2 C 10,6 C 92 % 1018,2 hPa 0,0 l/m 11,3 km/h (2 Bft) S-SW 202 0 min 0,0 UV-I 0 W/m 9,9 C 8,2 C 16,1 km/h (3 Bft)
02.10.2022 06:16 11,1 C 10,6 C 92 % 1018,3 hPa 0,0 l/m 14,5 km/h (3 Bft) S-SW 202 0 min 0,0 UV-I 0 W/m 9,8 C 6,7 C 19,3 km/h (3 Bft)
02.10.2022 06:17 11,1 C 10,6 C 92 % 1018,2 hPa 0,0 l/m 11,3 km/h (2 Bft) S 180 0 min 0,0 UV-I 0 W/m 9,8 C 8,1 C 16,1 km/h (3 Bft)
02.10.2022 06:18 11,1 C 10,6 C 92 % 1018,2 hPa 0,0 l/m 16,1 km/h (3 Bft) S 180 0 min 0,0 UV-I 0 W/m 9,8 C 6,0 C 22,5 km/h (4 Bft)
02.10.2022 06:19 11,1 C 10,6 C 92 % 1018,2 hPa 0,0 l/m 9,7 km/h (2 Bft) S-SW 202 0 min 0,0 UV-I 0 W/m 9,8 C 9,0 C 12,9 km/h (3 Bft)
02.10.2022 06:20 11,1 C 10,6 C 92 % 1018,2 hPa 0,0 l/m 12,9 km/h (3 Bft) S 180 0 min 0,0 UV-I 0 W/m 9,8 C 7,4 C 17,7 km/h (3 Bft)
02.10.2022 06:21 11,1 C 10,6 C 92 % 1018,2 hPa 0,0 l/m 12,9 km/h (3 Bft) S-SW 202 0 min 0,0 UV-I 0 W/m 9,8 C 7,4 C 17,7 km/h (3 Bft)
02.10.2022 06:22 11,1 C 10,6 C 92 % 1018,2 hPa 0,0 l/m 12,9 km/h (3 Bft) S 180 0 min 0,0 UV-I 0 W/m 9,8 C 7,4 C 19,3 km/h (3 Bft)
02.10.2022 06:23 11,1 C 10,6 C 92 % 1018,2 hPa 0,0 l/m 17,7 km/h (3 Bft) S 180 0 min 0,0 UV-I 0 W/m 9,8 C 5,5 C 29,0 km/h (5 Bft)
02.10.2022 06:24 11,1 C 10,6 C 92 % 1018,1 hPa 0,0 l/m 16,1 km/h (3 Bft) S 180 0 min 0,0 UV-I 0 W/m 9,8 C 6,0 C 27,4 km/h (4 Bft)
02.10.2022 06:25 11,1 C 10,6 C 92 % 1018,1 hPa 0,0 l/m 14,5 km/h (3 Bft) S-SW 202 0 min 0,0 UV-I 0 W/m 9,8 C 6,7 C 29,0 km/h (5 Bft)
02.10.2022 06:26 11,1 C 10,6 C 92 % 1018,2 hPa 0,0 l/m 19,3 km/h (3 Bft) SW 225 0 min 0,0 UV-I 0 W/m 9,8 C 4,9 C 25,7 km/h (4 Bft)
02.10.2022 06:27 11,1 C 10,6 C 92 % 1018,2 hPa 0,0 l/m 14,5 km/h (3 Bft) S-SW 202 0 min 0,0 UV-I 0 W/m 9,8 C 6,7 C 20,9 km/h (4 Bft)
02.10.2022 06:28 11,1 C 10,6 C 92 % 1018,3 hPa 0,0 l/m 12,9 km/h (3 Bft) S-SW 202 0 min 0,0 UV-I 0 W/m 9,8 C 7,4 C 16,1 km/h (3 Bft)
02.10.2022 06:29 11,1 C 10,6 C 92 % 1018,3 hPa 0,0 l/m 9,7 km/h (2 Bft) S-SW 202 0 min 0,0 UV-I 0 W/m 9,8 C 9,0 C 17,7 km/h (3 Bft)
02.10.2022 06:30 11,1 C 10,6 C 92 % 1018,3 hPa 0,0 l/m 14,5 km/h (3 Bft) S-SW 202 0 min 0,0 UV-I 0 W/m 9,8 C 6,7 C 19,3 km/h (3 Bft)
02.10.2022 06:31 11,1 C 10,6 C 92 % 1018,2 hPa 0,0 l/m 8,0 km/h (2 Bft) S 180 0 min 0,0 UV-I 0 W/m 9,8 C 10,0 C 12,9 km/h (3 Bft)
02.10.2022 06:32 11,1 C 10,6 C 92 % 1018,3 hPa 0,0 l/m 11,3 km/h (2 Bft) S-SW 202 0 min 0,0 UV-I 0 W/m 9,8 C 8,1 C 19,3 km/h (3 Bft)
02.10.2022 06:33 11,1 C 10,6 C 92 % 1018,3 hPa 0,0 l/m 12,9 km/h (3 Bft) S-SW 202 0 min 0,0 UV-I 0 W/m 9,8 C 7,4 C 14,5 km/h (3 Bft)
02.10.2022 06:34 11,1 C 10,6 C 92 % 1018,3 hPa 0,0 l/m 17,7 km/h (3 Bft) S-SW 202 0 min 0,0 UV-I 0 W/m 9,8 C 5,5 C 24,1 km/h (4 Bft)
02.10.2022 06:35 11,1 C 10,6 C 92 % 1018,3 hPa 0,0 l/m 17,7 km/h (3 Bft) S-SW 202 0 min 0,0 UV-I 0 W/m 9,8 C 5,5 C 24,1 km/h (4 Bft)
02.10.2022 06:36 11,1 C 10,6 C 92 % 1018,3 hPa 0,0 l/m 14,5 km/h (3 Bft) SW 225 0 min 0,0 UV-I 0 W/m 9,8 C 6,7 C 20,9 km/h (4 Bft)
02.10.2022 06:37 11,1 C 10,6 C 92 % 1018,3 hPa 0,0 l/m 12,9 km/h (3 Bft) SW 225 0 min 0,0 UV-I 0 W/m 9,8 C 7,4 C 20,9 km/h (4 Bft)
02.10.2022 06:38 11,1 C 10,6 C 92 % 1018,3 hPa 0,0 l/m 14,5 km/h (3 Bft) S-SW 202 0 min 0,0 UV-I 0 W/m 9,8 C 6,7 C 16,1 km/h (3 Bft)
02.10.2022 06:39 11,1 C 10,6 C 92 % 1018,3 hPa 0,0 l/m 9,7 km/h (2 Bft) S 180 0 min 0,0 UV-I 0 W/m 9,8 C 9,0 C 12,9 km/h (3 Bft)
02.10.2022 06:40 11,1 C 10,6 C 92 % 1018,3 hPa 0,0 l/m 12,9 km/h (3 Bft) S-SW 202 0 min 0,0 UV-I 0 W/m 9,8 C 7,4 C 17,7 km/h (3 Bft)
02.10.2022 06:41 11,1 C 10,6 C 92 % 1018,3 hPa 0,0 l/m 16,1 km/h (3 Bft) SW 225 0 min 0,0 UV-I 0 W/m 9,8 C 6,0 C 20,9 km/h (4 Bft)
02.10.2022 06:42 11,1 C 10,6 C 92 % 1018,4 hPa 0,0 l/m 6,4 km/h (2 Bft) W 270 0 min 0,0 UV-I 0 W/m 9,8 C 11,1 C 12,9 km/h (3 Bft)
02.10.2022 06:43 11,1 C 10,6 C 92 % 1018,4 hPa 0,0 l/m 14,5 km/h (3 Bft) S-SW 202 0 min 0,0 UV-I 0 W/m 9,8 C 6,7 C 19,3 km/h (3 Bft)
02.10.2022 06:44 11,1 C 10,6 C 92 % 1018,4 hPa 0,0 l/m 14,5 km/h (3 Bft) S-SW 202 0 min 0,0 UV-I 0 W/m 9,8 C 6,7 C 19,3 km/h (3 Bft)
02.10.2022 06:45 11,1 C 10,6 C 92 % 1018,4 hPa 0,0 l/m 17,7 km/h (3 Bft) S-SW 202 0 min 0,0 UV-I 0 W/m 9,8 C 5,5 C 27,4 km/h (4 Bft)
02.10.2022 06:46 11,1 C 10,6 C 92 % 1018,4 hPa 0,0 l/m 14,5 km/h (3 Bft) S-SW 202 0 min 0,0 UV-I 0 W/m 9,8 C 6,7 C 22,5 km/h (4 Bft)
02.10.2022 06:47 11,1 C 10,6 C 92 % 1018,3 hPa 0,0 l/m 9,7 km/h (2 Bft) SW 225 0 min 0,0 UV-I 0 W/m 9,8 C 9,0 C 12,9 km/h (3 Bft)
02.10.2022 06:48 11,1 C 10,6 C 92 % 1018,4 hPa 0,0 l/m 11,3 km/h (2 Bft) S-SW 202 0 min 0,0 UV-I 0 W/m 9,8 C 8,1 C 17,7 km/h (3 Bft)
02.10.2022 06:49 11,1 C 10,6 C 92 % 1018,4 hPa 0,0 l/m 11,3 km/h (2 Bft) S-SW 202 0 min 0,0 UV-I 0 W/m 9,8 C 8,1 C 16,1 km/h (3 Bft)
02.10.2022 06:50 11,1 C 10,6 C 92 % 1018,4 hPa 0,0 l/m 11,3 km/h (2 Bft) S-SW 202 0 min 0,0 UV-I 0 W/m 9,8 C 8,1 C 20,9 km/h (4 Bft)
02.10.2022 06:51 11,1 C 10,6 C 92 % 1018,3 hPa 0,0 l/m 16,1 km/h (3 Bft) SW 225 0 min 0,0 UV-I 0 W/m 9,8 C 6,0 C 22,5 km/h (4 Bft)
02.10.2022 06:52 11,1 C 10,6 C 92 % 1018,3 hPa 0,0 l/m 12,9 km/h (3 Bft) S-SW 202 0 min 0,0 UV-I 0 W/m 9,8 C 7,4 C 16,1 km/h (3 Bft)
02.10.2022 06:53 11,1 C 10,6 C 92 % 1018,4 hPa 0,2 l/m 9,7 km/h (2 Bft) SW 225 0 min 0,0 UV-I 0 W/m 9,8 C 9,0 C 19,3 km/h (3 Bft)
02.10.2022 06:54 11,0 C 10,6 C 92 % 1018,4 hPa 0,0 l/m 12,9 km/h (3 Bft) SW 225 0 min 0,0 UV-I 0 W/m 9,8 C 7,2 C 19,3 km/h (3 Bft)
02.10.2022 06:55 11,0 C 10,0 C 92 % 1018,3 hPa 0,0 l/m 16,1 km/h (3 Bft) S-SW 202 0 min 0,0 UV-I 0 W/m 9,8 C 5,9 C 25,7 km/h (4 Bft)
02.10.2022 06:56 11,0 C 10,0 C 92 % 1018,4 hPa 0,0 l/m 11,3 km/h (2 Bft) SW 225 0 min 0,0 UV-I 0 W/m 9,8 C 8,0 C 14,5 km/h (3 Bft)
02.10.2022 06:57 10,9 C 10,0 C 92 % 1018,4 hPa 0,0 l/m 9,7 km/h (2 Bft) SW 225 0 min 0,0 UV-I 0 W/m 9,7 C 8,8 C 14,5 km/h (3 Bft)
02.10.2022 06:58 11,0 C 10,0 C 92 % 1018,4 hPa 0,0 l/m 9,7 km/h (2 Bft) S-SW 202 0 min 0,0 UV-I 0 W/m 9,8 C 8,9 C 11,3 km/h (2 Bft)
02.10.2022 06:59 10,9 C 10,0 C 92 % 1018,4 hPa 0,0 l/m 8,0 km/h (2 Bft) S-SW 202 0 min 0,0 UV-I 0 W/m 9,7 C 9,8 C 12,9 km/h (3 Bft)
02.10.2022 07:00 10,9 C 10,0 C 92 % 1018,4 hPa 0,0 l/m 12,9 km/h (3 Bft) S-SW 202 0 min 0,0 UV-I 0 W/m 9,7 C 7,1 C 17,7 km/h (3 Bft)
02.10.2022 07:01 10,9 C 10,0 C 92 % 1018,4 hPa 0,0 l/m 11,3 km/h (2 Bft) S-SW 202 0 min 0,0 UV-I 0 W/m 9,7 C 7,9 C 14,5 km/h (3 Bft)
02.10.2022 07:02 10,9 C 10,0 C 92 % 1018,4 hPa 0,0 l/m 12,9 km/h (3 Bft) SW 225 0 min 0,0 UV-I 0 W/m 9,7 C 7,1 C 19,3 km/h (3 Bft)
02.10.2022 07:03 10,9 C 10,0 C 92 % 1018,5 hPa 0,0 l/m 8,0 km/h (2 Bft) S-SW 202 0 min 0,0 UV-I 0 W/m 9,7 C 9,8 C 14,5 km/h (3 Bft)
02.10.2022 07:04 10,9 C 10,0 C 92 % 1018,4 hPa 0,0 l/m 9,7 km/h (2 Bft) S-SW 202 0 min 0,0 UV-I 0 W/m 9,7 C 8,8 C 14,5 km/h (3 Bft)
02.10.2022 07:05 10,9 C 10,0 C 92 % 1018,5 hPa 0,0 l/m 6,4 km/h (2 Bft) SW 225 0 min 0,0 UV-I 0 W/m 9,7 C 10,9 C 11,3 km/h (2 Bft)
02.10.2022 07:06 10,9 C 10,0 C 92 % 1018,4 hPa 0,0 l/m 11,3 km/h (2 Bft) S-SW 202 0 min 0,0 UV-I 0 W/m 9,7 C 7,9 C 17,7 km/h (3 Bft)
02.10.2022 07:07 10,9 C 10,0 C 92 % 1018,4 hPa 0,0 l/m 9,7 km/h (2 Bft) S-SW 202 0 min 0,0 UV-I 0 W/m 9,7 C 8,8 C 14,5 km/h (3 Bft)
02.10.2022 07:08 10,9 C 10,0 C 92 % 1018,4 hPa 0,0 l/m 12,9 km/h (3 Bft) S-SW 202 0 min 0,0 UV-I 0 W/m 9,7 C 7,1 C 19,3 km/h (3 Bft)
02.10.2022 07:09 10,9 C 10,0 C 92 % 1018,3 hPa 0,0 l/m 12,9 km/h (3 Bft) SW 225 0 min 0,0 UV-I 0 W/m 9,7 C 7,1 C 19,3 km/h (3 Bft)
02.10.2022 07:10 10,9 C 10,0 C 92 % 1018,3 hPa 0,0 l/m 12,9 km/h (3 Bft) S-SW 202 0 min 0,0 UV-I 0 W/m 9,7 C 7,1 C 17,7 km/h (3 Bft)
02.10.2022 07:11 10,9 C 10,0 C 92 % 1018,3 hPa 0,0 l/m 9,7 km/h (2 Bft) S-SW 202 0 min 0,0 UV-I 0 W/m 9,7 C 8,8 C 14,5 km/h (3 Bft)
02.10.2022 07:12 10,8 C 10,0 C 92 % 1018,3 hPa 0,0 l/m 14,5 km/h (3 Bft) SW 225 0 min 0,0 UV-I 0 W/m 9,6 C 6,3 C 20,9 km/h (4 Bft)
02.10.2022 07:13 10,8 C 10,0 C 92 % 1018,4 hPa 0,0 l/m 11,3 km/h (2 Bft) S-SW 202 0 min 0,0 UV-I 0 W/m 9,6 C 7,8 C 14,5 km/h (3 Bft)
02.10.2022 07:14 10,8 C 10,0 C 92 % 1018,4 hPa 0,0 l/m 9,7 km/h (2 Bft) SW 225 0 min 0,0 UV-I 0 W/m 9,6 C 8,6 C 14,5 km/h (3 Bft)
02.10.2022 07:15 10,9 C 10,0 C 92 % 1018,4 hPa 0,0 l/m 9,7 km/h (2 Bft) S-SW 202 0 min 0,0 UV-I 0 W/m 9,7 C 8,8 C 16,1 km/h (3 Bft)
02.10.2022 07:16 10,8 C 10,0 C 92 % 1018,3 hPa 0,0 l/m 12,9 km/h (3 Bft) S-SW 202 0 min 0,0 UV-I 0 W/m 9,6 C 7,0 C 16,1 km/h (3 Bft)
02.10.2022 07:17 10,8 C 10,0 C 92 % 1018,3 hPa 0,0 l/m 14,5 km/h (3 Bft) S-SW 202 0 min 0,0 UV-I 0 W/m 9,6 C 6,3 C 19,3 km/h (3 Bft)
02.10.2022 07:18 10,8 C 10,0 C 92 % 1018,3 hPa 0,0 l/m 11,3 km/h (2 Bft) S 180 0 min 0,0 UV-I 0 W/m 9,6 C 7,8 C 16,1 km/h (3 Bft)
02.10.2022 07:19 10,8 C 10,0 C 92 % 1018,3 hPa 0,0 l/m 9,7 km/h (2 Bft) SW 225 0 min 0,0 UV-I 0 W/m 9,6 C 8,6 C 12,9 km/h (3 Bft)
02.10.2022 07:20 10,8 C 10,0 C 92 % 1018,4 hPa 0,0 l/m 8,0 km/h (2 Bft) S 180 0 min 0,0 UV-I 0 W/m 9,6 C 9,7 C 11,3 km/h (2 Bft)
02.10.2022 07:21 10,8 C 10,0 C 92 % 1018,4 hPa 0,0 l/m 9,7 km/h (2 Bft) S-SW 202 0 min 0,0 UV-I 0 W/m 9,6 C 8,6 C 12,9 km/h (3 Bft)
02.10.2022 07:22 10,8 C 10,0 C 92 % 1018,4 hPa 0,2 l/m 11,3 km/h (2 Bft) S-SW 202 0 min 0,0 UV-I 0 W/m 9,6 C 7,8 C 14,5 km/h (3 Bft)
02.10.2022 07:23 10,8 C 10,0 C 92 % 1018,4 hPa 0,0 l/m 11,3 km/h (2 Bft) S-SW 202 0 min 0,0 UV-I 0 W/m 9,6 C 7,8 C 14,5 km/h (3 Bft)
02.10.2022 07:24 10,8 C 10,0 C 92 % 1018,5 hPa 0,0 l/m 8,0 km/h (2 Bft) SW 225 0 min 0,0 UV-I 0 W/m 9,6 C 9,7 C 9,7 km/h (2 Bft)
02.10.2022 07:25 10,8 C 10,0 C 92 % 1018,4 hPa 0,0 l/m 9,7 km/h (2 Bft) SW 225 0 min 0,0 UV-I 0 W/m 9,6 C 8,6 C 11,3 km/h (2 Bft)
02.10.2022 07:26 10,8 C 10,0 C 92 % 1018,4 hPa 0,0 l/m 9,7 km/h (2 Bft) S-SW 202 0 min 0,0 UV-I 0 W/m 9,6 C 8,6 C 12,9 km/h (3 Bft)
02.10.2022 07:27 10,8 C 10,0 C 92 % 1018,5 hPa 0,0 l/m 11,3 km/h (2 Bft) S-SW 202 0 min 0,0 UV-I 0 W/m 9,6 C 7,8 C 16,1 km/h (3 Bft)
02.10.2022 07:28 10,8 C 10,0 C 92 % 1018,5 hPa 0,0 l/m 11,3 km/h (2 Bft) S-SW 202 0 min 0,0 UV-I 0 W/m 9,6 C 7,8 C 14,5 km/h (3 Bft)
02.10.2022 07:29 10,8 C 10,0 C 92 % 1018,5 hPa 0,0 l/m 9,7 km/h (2 Bft) S-SW 202 0 min 0,0 UV-I 0 W/m 9,6 C 8,6 C 11,3 km/h (2 Bft)
02.10.2022 07:30 10,8 C 10,0 C 92 % 1018,5 hPa 0,0 l/m 9,7 km/h (2 Bft) S 180 0 min 0,0 UV-I 0 W/m 9,6 C 8,6 C 14,5 km/h (3 Bft)
02.10.2022 07:31 10,8 C 10,0 C 92 % 1018,5 hPa 0,0 l/m 11,3 km/h (2 Bft) S 180 0 min 0,0 UV-I 0 W/m 9,6 C 7,8 C 17,7 km/h (3 Bft)
02.10.2022 07:32 10,8 C 10,0 C 92 % 1018,4 hPa 0,0 l/m 9,7 km/h (2 Bft) S 180 0 min 0,0 UV-I 0 W/m 9,6 C 8,6 C 17,7 km/h (3 Bft)
02.10.2022 07:33 10,8 C 10,0 C 92 % 1018,4 hPa 0,0 l/m 12,9 km/h (3 Bft) S-SW 202 0 min 0,0 UV-I 0 W/m 9,6 C 7,0 C 17,7 km/h (3 Bft)
02.10.2022 07:34 10,8 C 10,0 C 92 % 1018,4 hPa 0,0 l/m 11,3 km/h (2 Bft) SW 225 0 min 0,0 UV-I 0 W/m 9,6 C 7,8 C 17,7 km/h (3 Bft)
02.10.2022 07:35 10,8 C 10,0 C 92 % 1018,4 hPa 0,0 l/m 12,9 km/h (3 Bft) S-SW 202 0 min 0,0 UV-I 0 W/m 9,6 C 7,0 C 16,1 km/h (3 Bft)
02.10.2022 07:36 10,8 C 10,0 C 92 % 1018,4 hPa 0,0 l/m 11,3 km/h (2 Bft) S-SW 202 0 min 0,0 UV-I 0 W/m 9,6 C 7,8 C 12,9 km/h (3 Bft)
02.10.2022 07:37 10,8 C 10,0 C 92 % 1018,4 hPa 0,0 l/m 11,3 km/h (2 Bft) S-SW 202 0 min 0,0 UV-I 0 W/m 9,6 C 7,8 C 14,5 km/h (3 Bft)
02.10.2022 07:38 10,8 C 10,0 C 92 % 1018,5 hPa 0,0 l/m 9,7 km/h (2 Bft) S-SW 202 0 min 0,0 UV-I 0 W/m 9,6 C 8,6 C 12,9 km/h (3 Bft)
02.10.2022 07:39 10,8 C 10,0 C 92 % 1018,4 hPa 0,0 l/m 12,9 km/h (3 Bft) S-SW 202 0 min 0,0 UV-I 0 W/m 9,6 C 7,0 C 17,7 km/h (3 Bft)
02.10.2022 07:40 10,8 C 10,0 C 92 % 1018,4 hPa 0,0 l/m 12,9 km/h (3 Bft) S-SW 202 0 min 0,0 UV-I 5 W/m 9,6 C 7,0 C 19,3 km/h (3 Bft)
02.10.2022 07:41 10,8 C 10,0 C 92 % 1018,5 hPa 0,0 l/m 9,7 km/h (2 Bft) S-SW 202 0 min 0,0 UV-I 5 W/m 9,6 C 8,6 C 14,5 km/h (3 Bft)
02.10.2022 07:42 10,8 C 10,0 C 92 % 1018,4 hPa 0,0 l/m 9,7 km/h (2 Bft) S-SW 202 0 min 0,0 UV-I 5 W/m 9,6 C 8,6 C 14,5 km/h (3 Bft)
02.10.2022 07:43 10,8 C 10,0 C 92 % 1018,4 hPa 0,0 l/m 11,3 km/h (2 Bft) S-SW 202 0 min 0,0 UV-I 5 W/m 9,6 C 7,8 C 16,1 km/h (3 Bft)
02.10.2022 07:44 10,8 C 10,0 C 92 % 1018,5 hPa 0,0 l/m 11,3 km/h (2 Bft) SW 225 0 min 0,0 UV-I 5 W/m 9,6 C 7,8 C 14,5 km/h (3 Bft)
02.10.2022 07:45 10,8 C 10,0 C 92 % 1018,4 hPa 0,0 l/m 11,3 km/h (2 Bft) S-SW 202 0 min 0,0 UV-I 5 W/m 9,6 C 7,8 C 16,1 km/h (3 Bft)
02.10.2022 07:46 10,8 C 10,0 C 92 % 1018,5 hPa 0,0 l/m 8,0 km/h (2 Bft) S-SW 202 0 min 0,0 UV-I 0 W/m 9,6 C 9,7 C 9,7 km/h (2 Bft)
02.10.2022 07:47 10,8 C 10,0 C 92 % 1018,5 hPa 0,0 l/m 12,9 km/h (3 Bft) S-SW 202 0 min 0,0 UV-I 5 W/m 9,6 C 7,0 C 17,7 km/h (3 Bft)
02.10.2022 07:48 10,8 C 10,0 C 92 % 1018,5 hPa 0,0 l/m 11,3 km/h (2 Bft) SW 225 0 min 0,0 UV-I 5 W/m 9,6 C 7,8 C 14,5 km/h (3 Bft)
02.10.2022 07:49 10,8 C 10,0 C 92 % 1018,5 hPa 0,0 l/m 9,7 km/h (2 Bft) S-SW 202 0 min 0,0 UV-I 5 W/m 9,6 C 8,6 C 12,9 km/h (3 Bft)
02.10.2022 07:50 10,8 C 10,0 C 92 % 1018,4 hPa 0,0 l/m 6,4 km/h (2 Bft) S-SW 202 0 min 0,0 UV-I 0 W/m 9,6 C 10,8 C 9,7 km/h (2 Bft)
02.10.2022 07:51 10,7 C 10,0 C 92 % 1018,5 hPa 0,0 l/m 8,0 km/h (2 Bft) S-SW 202 0 min 0,0 UV-I 0 W/m 9,5 C 9,6 C 14,5 km/h (3 Bft)
02.10.2022 07:52 10,8 C 10,0 C 92 % 1018,5 hPa 0,0 l/m 9,7 km/h (2 Bft) S-SW 202 0 min 0,0 UV-I 0 W/m 9,6 C 8,6 C 16,1 km/h (3 Bft)
02.10.2022 07:53 10,8 C 10,0 C 92 % 1018,4 hPa 0,0 l/m 12,9 km/h (3 Bft) S-SW 202 0 min 0,0 UV-I 0 W/m 9,6 C 7,0 C 19,3 km/h (3 Bft)
02.10.2022 07:54 10,8 C 10,0 C 92 % 1018,5 hPa 0,0 l/m 9,7 km/h (2 Bft) S-SW 202 0 min 0,0 UV-I 0 W/m 9,6 C 8,6 C 11,3 km/h (2 Bft)
02.10.2022 07:55 10,8 C 10,0 C 92 % 1018,4 hPa 0,0 l/m 6,4 km/h (2 Bft) S-SW 202 0 min 0,0 UV-I 0 W/m 9,6 C 10,8 C 9,7 km/h (2 Bft)
02.10.2022 07:56 10,7 C 10,0 C 92 % 1018,4 hPa 0,2 l/m 8,0 km/h (2 Bft) S-SW 202 0 min 0,0 UV-I 0 W/m 9,5 C 9,6 C 14,5 km/h (3 Bft)
02.10.2022 07:57 10,8 C 10,0 C 92 % 1018,5 hPa 0,0 l/m 11,3 km/h (2 Bft) S 180 0 min 0,0 UV-I 0 W/m 9,6 C 7,8 C 17,7 km/h (3 Bft)
02.10.2022 07:58 10,7 C 10,0 C 92 % 1018,4 hPa 0,0 l/m 12,9 km/h (3 Bft) S-SW 202 0 min 0,0 UV-I 0 W/m 9,5 C 6,9 C 19,3 km/h (3 Bft)
02.10.2022 07:59 10,8 C 10,0 C 92 % 1018,4 hPa 0,0 l/m 11,3 km/h (2 Bft) S-SW 202 0 min 0,0 UV-I 0 W/m 9,6 C 7,8 C 14,5 km/h (3 Bft)
02.10.2022 08:00 10,7 C 10,0 C 92 % 1018,5 hPa 0,0 l/m 11,3 km/h (2 Bft) S-SW 202 0 min 0,0 UV-I 5 W/m 9,5 C 7,7 C 16,1 km/h (3 Bft)
02.10.2022 08:01 10,7 C 10,0 C 92 % 1018,5 hPa 0,0 l/m 11,3 km/h (2 Bft) S-SW 202 0 min 0,0 UV-I 5 W/m 9,5 C 7,7 C 16,1 km/h (3 Bft)
02.10.2022 08:02 10,8 C 10,0 C 92 % 1018,4 hPa 0,0 l/m 6,4 km/h (2 Bft) S 180 0 min 0,0 UV-I 7 W/m 9,6 C 10,8 C 12,9 km/h (3 Bft)
02.10.2022 08:03 10,8 C 10,0 C 92 % 1018,5 hPa 0,0 l/m 11,3 km/h (2 Bft) S-SW 202 0 min 0,0 UV-I 7 W/m 9,6 C 7,8 C 14,5 km/h (3 Bft)
02.10.2022 08:04 10,8 C 10,0 C 92 % 1018,5 hPa 0,0 l/m 9,7 km/h (2 Bft) S 180 0 min 0,0 UV-I 7 W/m 9,6 C 8,6 C 11,3 km/h (2 Bft)
02.10.2022 08:05 10,7 C 10,0 C 92 % 1018,4 hPa 0,0 l/m 12,9 km/h (3 Bft) S 180 0 min 0,0 UV-I 7 W/m 9,5 C 6,9 C 17,7 km/h (3 Bft)
02.10.2022 08:06 10,7 C 10,0 C 92 % 1018,5 hPa 0,0 l/m 9,7 km/h (2 Bft) S-SW 202 0 min 0,0 UV-I 6 W/m 9,5 C 8,5 C 17,7 km/h (3 Bft)
02.10.2022 08:07 10,7 C 10,0 C 92 % 1018,5 hPa 0,0 l/m 8,0 km/h (2 Bft) S-SW 202 0 min 0,0 UV-I 7 W/m 9,5 C 9,6 C 11,3 km/h (2 Bft)
02.10.2022 08:08 10,7 C 10,0 C 92 % 1018,5 hPa 0,0 l/m 11,3 km/h (2 Bft) S-SW 202 0 min 0,0 UV-I 7 W/m 9,5 C 7,7 C 14,5 km/h (3 Bft)
02.10.2022 08:09 10,8 C 10,0 C 92 % 1018,5 hPa 0,0 l/m 11,3 km/h (2 Bft) S 180 0 min 0,0 UV-I 7 W/m 9,6 C 7,8 C 17,7 km/h (3 Bft)
02.10.2022 08:10 10,7 C 10,0 C 92 % 1018,5 hPa 0,0 l/m 11,3 km/h (2 Bft) S 180 0 min 0,0 UV-I 7 W/m 9,5 C 7,7 C 14,5 km/h (3 Bft)
02.10.2022 08:11 10,7 C 10,0 C 92 % 1018,5 hPa 0,0 l/m 9,7 km/h (2 Bft) S 180 0 min 0,0 UV-I 5 W/m 9,5 C 8,5 C 19,3 km/h (3 Bft)
02.10.2022 08:12 10,7 C 10,0 C 92 % 1018,6 hPa 0,0 l/m 11,3 km/h (2 Bft) S-SW 202 0 min 0,0 UV-I 5 W/m 9,5 C 7,7 C 17,7 km/h (3 Bft)
02.10.2022 08:13 10,8 C 10,0 C 92 % 1018,5 hPa 0,0 l/m 12,9 km/h (3 Bft) S-SW 202 0 min 0,0 UV-I 7 W/m 9,6 C 7,0 C 17,7 km/h (3 Bft)
02.10.2022 08:14 10,7 C 10,0 C 92 % 1018,6 hPa 0,0 l/m 12,9 km/h (3 Bft) S 180 0 min 0,0 UV-I 7 W/m 9,5 C 6,9 C 14,5 km/h (3 Bft)
02.10.2022 08:15 10,8 C 10,0 C 92 % 1018,6 hPa 0,0 l/m 9,7 km/h (2 Bft) S-SW 202 0 min 0,0 UV-I 7 W/m 9,6 C 8,6 C 12,9 km/h (3 Bft)
02.10.2022 08:16 10,7 C 10,0 C 92 % 1018,6 hPa 0,0 l/m 11,3 km/h (2 Bft) S 180 0 min 0,0 UV-I 9 W/m 9,5 C 7,7 C 17,7 km/h (3 Bft)
02.10.2022 08:17 10,7 C 10,0 C 92 % 1018,6 hPa 0,2 l/m 9,7 km/h (2 Bft) S 180 0 min 0,0 UV-I 9 W/m 9,5 C 8,5 C 19,3 km/h (3 Bft)
02.10.2022 08:18 10,7 C 10,0 C 92 % 1018,6 hPa 0,0 l/m 12,9 km/h (3 Bft) S 180 0 min 0,0 UV-I 9 W/m 9,5 C 6,9 C 17,7 km/h (3 Bft)
02.10.2022 08:19 10,7 C 10,0 C 92 % 1018,6 hPa 0,0 l/m 9,7 km/h (2 Bft) S 180 0 min 0,0 UV-I 9 W/m 9,5 C 8,5 C 16,1 km/h (3 Bft)
02.10.2022 08:20 10,7 C 10,0 C 92 % 1018,6 hPa 0,0 l/m 8,0 km/h (2 Bft) S-SW 202 0 min 0,0 UV-I 11 W/m 9,5 C 9,6 C 11,3 km/h (2 Bft)
02.10.2022 08:21 10,7 C 10,0 C 92 % 1018,6 hPa 0,0 l/m 12,9 km/h (3 Bft) S-SW 202 0 min 0,0 UV-I 11 W/m 9,5 C 6,9 C 16,1 km/h (3 Bft)
02.10.2022 08:22 10,7 C 10,0 C 92 % 1018,6 hPa 0,0 l/m 12,9 km/h (3 Bft) S-SW 202 0 min 0,0 UV-I 12 W/m 9,5 C 6,9 C 16,1 km/h (3 Bft)
02.10.2022 08:23 10,7 C 10,0 C 92 % 1018,6 hPa 0,0 l/m 9,7 km/h (2 Bft) S-SW 202 0 min 0,0 UV-I 12 W/m 9,5 C 8,5 C 12,9 km/h (3 Bft)
02.10.2022 08:24 10,7 C 10,0 C 92 % 1018,6 hPa 0,0 l/m 12,9 km/h (3 Bft) S-SW 202 0 min 0,0 UV-I 12 W/m 9,5 C 6,9 C 17,7 km/h (3 Bft)
02.10.2022 08:25 10,7 C 10,0 C 92 % 1018,8 hPa 0,0 l/m 8,0 km/h (2 Bft) S 180 0 min 0,0 UV-I 14 W/m 9,5 C 9,6 C 12,9 km/h (3 Bft)
02.10.2022 08:26 10,7 C 10,0 C 92 % 1018,7 hPa 0,0 l/m 8,0 km/h (2 Bft) S-SW 202 0 min 0,0 UV-I 18 W/m 9,5 C 9,6 C 11,3 km/h (2 Bft)
02.10.2022 08:27 10,8 C 10,0 C 92 % 1018,7 hPa 0,0 l/m 8,0 km/h (2 Bft) S-SW 202 0 min 0,0 UV-I 18 W/m 9,6 C 9,7 C 11,3 km/h (2 Bft)
02.10.2022 08:28 10,7 C 10,0 C 92 % 1018,6 hPa 0,0 l/m 11,3 km/h (2 Bft) SW 225 0 min 0,0 UV-I 18 W/m 9,5 C 7,7 C 17,7 km/h (3 Bft)
02.10.2022 08:29 10,8 C 10,0 C 92 % 1018,7 hPa 0,0 l/m 11,3 km/h (2 Bft) S-SW 202 0 min 0,0 UV-I 17 W/m 9,6 C 7,8 C 14,5 km/h (3 Bft)
02.10.2022 08:30 10,7 C 10,0 C 92 % 1018,7 hPa 0,0 l/m 9,7 km/h (2 Bft) S 180 0 min 0,0 UV-I 14 W/m 9,5 C 8,5 C 14,5 km/h (3 Bft)
02.10.2022 08:31 10,7 C 10,0 C 92 % 1018,7 hPa 0,0 l/m 9,7 km/h (2 Bft) S 180 0 min 0,0 UV-I 14 W/m 9,5 C 8,5 C 11,3 km/h (2 Bft)
02.10.2022 08:32 10,7 C 10,0 C 92 % 1018,7 hPa 0,0 l/m 9,7 km/h (2 Bft) S-SW 202 0 min 0,0 UV-I 12 W/m 9,5 C 8,5 C 12,9 km/h (3 Bft)
02.10.2022 08:33 10,7 C 10,0 C 92 % 1018,8 hPa 0,0 l/m 9,7 km/h (2 Bft) S 180 0 min 0,0 UV-I 12 W/m 9,5 C 8,5 C 12,9 km/h (3 Bft)
02.10.2022 08:34 10,7 C 10,0 C 92 % 1018,7 hPa 0,0 l/m 9,7 km/h (2 Bft) S 180 0 min 0,0 UV-I 14 W/m 9,5 C 8,5 C 14,5 km/h (3 Bft)
02.10.2022 08:35 10,7 C 10,0 C 92 % 1018,6 hPa 0,0 l/m 9,7 km/h (2 Bft) S-SW 202 0 min 0,0 UV-I 14 W/m 9,5 C 8,5 C 17,7 km/h (3 Bft)
02.10.2022 08:36 10,7 C 10,0 C 92 % 1018,7 hPa 0,0 l/m 9,7 km/h (2 Bft) S-SW 202 0 min 0,0 UV-I 14 W/m 9,5 C 8,5 C 12,9 km/h (3 Bft)
02.10.2022 08:37 10,7 C 10,0 C 92 % 1018,7 hPa 0,0 l/m 8,0 km/h (2 Bft) S-SW 202 0 min 0,0 UV-I 16 W/m 9,5 C 9,6 C 11,3 km/h (2 Bft)
02.10.2022 08:38 10,7 C 10,0 C 93 % 1018,7 hPa 0,0 l/m 6,4 km/h (2 Bft) S 180 0 min 0,0 UV-I 18 W/m 9,6 C 10,7 C 11,3 km/h (2 Bft)
02.10.2022 08:39 10,7 C 10,0 C 93 % 1018,6 hPa 0,0 l/m 6,4 km/h (2 Bft) S 180 0 min 0,0 UV-I 16 W/m 9,6 C 10,7 C 9,7 km/h (2 Bft)
02.10.2022 08:40 10,7 C 10,0 C 93 % 1018,8 hPa 0,0 l/m 11,3 km/h (2 Bft) S-SW 202 0 min 0,0 UV-I 14 W/m 9,6 C 7,7 C 14,5 km/h (3 Bft)
02.10.2022 08:41 10,7 C 10,0 C 93 % 1018,8 hPa 0,0 l/m 8,0 km/h (2 Bft) S-SW 202 0 min 0,0 UV-I 17 W/m 9,6 C 9,6 C 11,3 km/h (2 Bft)
02.10.2022 08:42 10,7 C 10,0 C 93 % 1018,8 hPa 0,0 l/m 9,7 km/h (2 Bft) S 180 0 min 0,0 UV-I 18 W/m 9,6 C 8,5 C 11,3 km/h (2 Bft)
02.10.2022 08:43 10,7 C 10,0 C 93 % 1018,9 hPa 0,0 l/m 9,7 km/h (2 Bft) S-SW 202 0 min 0,0 UV-I 18 W/m 9,6 C 8,5 C 14,5 km/h (3 Bft)
02.10.2022 08:44 10,7 C 10,0 C 93 % 1018,7 hPa 0,2 l/m 6,4 km/h (2 Bft) S-SW 202 0 min 0,0 UV-I 18 W/m 9,6 C 10,7 C 11,3 km/h (2 Bft)
02.10.2022 08:45 10,7 C 10,6 C 93 % 1018,7 hPa 0,0 l/m 4,8 km/h (1 Bft) S-SW 202 0 min 0,0 UV-I 18 W/m 9,6 C 10,7 C 6,4 km/h (2 Bft)
02.10.2022 08:46 10,7 C 10,6 C 93 % 1018,7 hPa 0,0 l/m 8,0 km/h (2 Bft) S-SW 202 0 min 0,0 UV-I 18 W/m 9,6 C 9,6 C 11,3 km/h (2 Bft)
02.10.2022 08:47 10,8 C 10,6 C 93 % 1018,8 hPa 0,0 l/m 9,7 km/h (2 Bft) S 180 0 min 0,0 UV-I 20 W/m 9,7 C 8,6 C 12,9 km/h (3 Bft)
02.10.2022 08:48 10,7 C 10,6 C 93 % 1018,7 hPa 0,0 l/m 6,4 km/h (2 Bft) S 180 0 min 0,0 UV-I 19 W/m 9,6 C 10,7 C 9,7 km/h (2 Bft)
02.10.2022 08:49 10,8 C 10,6 C 93 % 1018,8 hPa 0,0 l/m 6,4 km/h (2 Bft) S-SW 202 0 min 0,0 UV-I 19 W/m 9,7 C 10,8 C 12,9 km/h (3 Bft)
02.10.2022 08:50 10,7 C 10,6 C 93 % 1018,8 hPa 0,0 l/m 9,7 km/h (2 Bft) S-SW 202 0 min 0,0 UV-I 21 W/m 9,6 C 8,5 C 12,9 km/h (3 Bft)
02.10.2022 08:51 10,7 C 10,6 C 93 % 1018,8 hPa 0,0 l/m 8,0 km/h (2 Bft) S 180 0 min 0,0 UV-I 23 W/m 9,6 C 9,6 C 11,3 km/h (2 Bft)
02.10.2022 08:52 10,7 C 10,6 C 93 % 1018,7 hPa 0,0 l/m 8,0 km/h (2 Bft) S-SO 157 0 min 0,0 UV-I 23 W/m 9,6 C 9,6 C 14,5 km/h (3 Bft)
02.10.2022 08:53 10,7 C 10,6 C 93 % 1018,9 hPa 0,0 l/m 8,0 km/h (2 Bft) S-SW 202 0 min 0,0 UV-I 26 W/m 9,6 C 9,6 C 11,3 km/h (2 Bft)
02.10.2022 08:54 10,7 C 10,6 C 93 % 1018,9 hPa 0,0 l/m 9,7 km/h (2 Bft) S-SW 202 0 min 0,0 UV-I 30 W/m 9,6 C 8,5 C 12,9 km/h (3 Bft)
02.10.2022 08:55 10,8 C 10,6 C 93 % 1019,0 hPa 0,0 l/m 9,7 km/h (2 Bft) S-SW 202 0 min 0,0 UV-I 25 W/m 9,7 C 8,6 C 12,9 km/h (3 Bft)
02.10.2022 08:56 10,7 C 10,6 C 93 % 1018,9 hPa 0,0 l/m 11,3 km/h (2 Bft) S-SW 202 0 min 0,0 UV-I 21 W/m 9,6 C 7,7 C 14,5 km/h (3 Bft)
02.10.2022 08:57 10,8 C 10,6 C 93 % 1019,0 hPa 0,0 l/m 8,0 km/h (2 Bft) S-SW 202 0 min 0,0 UV-I 18 W/m 9,7 C 9,7 C 11,3 km/h (2 Bft)
02.10.2022 08:58 10,7 C 10,6 C 93 % 1019,0 hPa 0,0 l/m 6,4 km/h (2 Bft) S-SW 202 0 min 0,0 UV-I 18 W/m 9,6 C 10,7 C 9,7 km/h (2 Bft)
02.10.2022 08:59 10,7 C 10,6 C 93 % 1019,0 hPa 0,0 l/m 6,4 km/h (2 Bft) S-SW 202 0 min 0,0 UV-I 18 W/m 9,6 C 10,7 C 9,7 km/h (2 Bft)
02.10.2022 09:00 10,7 C 10,6 C 93 % 1019,0 hPa 0,0 l/m 6,4 km/h (2 Bft) SW 225 0 min 0,0 UV-I 18 W/m 9,6 C 10,7 C 11,3 km/h (2 Bft)
02.10.2022 09:01 10,7 C 10,6 C 93 % 1019,0 hPa 0,2 l/m 6,4 km/h (2 Bft) S 180 0 min 0,0 UV-I 18 W/m 9,6 C 10,7 C 11,3 km/h (2 Bft)
02.10.2022 09:02 10,8 C 10,6 C 93 % 1019,0 hPa 0,0 l/m 8,0 km/h (2 Bft) S 180 0 min 0,0 UV-I 18 W/m 9,7 C 9,7 C 11,3 km/h (2 Bft)
02.10.2022 09:03 10,8 C 10,6 C 93 % 1019,0 hPa 0,0 l/m 8,0 km/h (2 Bft) S-SW 202 0 min 0,0 UV-I 19 W/m 9,7 C 9,7 C 11,3 km/h (2 Bft)
02.10.2022 09:04 10,7 C 10,6 C 93 % 1019,0 hPa 0,0 l/m 9,7 km/h (2 Bft) S-SW 202 0 min 0,0 UV-I 22 W/m 9,6 C 8,5 C 11,3 km/h (2 Bft)
02.10.2022 09:05 10,7 C 10,6 C 93 % 1019,1 hPa 0,0 l/m 6,4 km/h (2 Bft) S-SW 202 0 min 0,0 UV-I 21 W/m 9,6 C 10,7 C 9,7 km/h (2 Bft)
02.10.2022 09:06 10,8 C 10,6 C 93 % 1019,0 hPa 0,0 l/m 9,7 km/h (2 Bft) S-SW 202 0 min 0,0 UV-I 21 W/m 9,7 C 8,6 C 14,5 km/h (3 Bft)
02.10.2022 09:07 10,7 C 10,6 C 93 % 1019,1 hPa 0,0 l/m 12,9 km/h (3 Bft) S-SW 202 0 min 0,0 UV-I 28 W/m 9,6 C 6,9 C 17,7 km/h (3 Bft)
02.10.2022 09:08 10,7 C 10,6 C 93 % 1018,9 hPa 0,0 l/m 11,3 km/h (2 Bft) S-SW 202 0 min 0,0 UV-I 33 W/m 9,6 C 7,7 C 14,5 km/h (3 Bft)
02.10.2022 09:09 10,8 C 10,6 C 93 % 1019,0 hPa 0,0 l/m 8,0 km/h (2 Bft) S-SW 202 0 min 0,0 UV-I 39 W/m 9,7 C 9,7 C 11,3 km/h (2 Bft)
02.10.2022 09:10 10,8 C 10,6 C 93 % 1019,0 hPa 0,0 l/m 4,8 km/h (1 Bft) S 180 0 min 0,0 UV-I 41 W/m 9,7 C 10,8 C 11,3 km/h (2 Bft)
02.10.2022 09:11 10,8 C 10,6 C 93 % 1019,0 hPa 0,0 l/m 6,4 km/h (2 Bft) S 180 0 min 0,0 UV-I 40 W/m 9,7 C 10,8 C 9,7 km/h (2 Bft)
02.10.2022 09:12 10,8 C 10,6 C 93 % 1019,0 hPa 0,0 l/m 8,0 km/h (2 Bft) S 180 0 min 0,0 UV-I 40 W/m 9,7 C 9,7 C 12,9 km/h (3 Bft)
02.10.2022 09:13 10,8 C 10,6 C 93 % 1019,0 hPa 0,0 l/m 9,7 km/h (2 Bft) SW 225 0 min 0,0 UV-I 40 W/m 9,7 C 8,6 C 14,5 km/h (3 Bft)
02.10.2022 09:14 10,8 C 10,6 C 93 % 1019,0 hPa 0,0 l/m 8,0 km/h (2 Bft) S-SW 202 0 min 0,0 UV-I 42 W/m 9,7 C 9,7 C 12,9 km/h (3 Bft)
02.10.2022 09:15 10,8 C 10,6 C 93 % 1019,0 hPa 0,0 l/m 8,0 km/h (2 Bft) S-SW 202 0 min 0,0 UV-I 37 W/m 9,7 C 9,7 C 11,3 km/h (2 Bft)
02.10.2022 09:16 10,8 C 10,6 C 93 % 1019,0 hPa 0,0 l/m 8,0 km/h (2 Bft) S-SW 202 0 min 0,0 UV-I 39 W/m 9,7 C 9,7 C 11,3 km/h (2 Bft)
02.10.2022 09:17 10,8 C 10,6 C 93 % 1019,0 hPa 0,0 l/m 9,7 km/h (2 Bft) S-SW 202 0 min 0,0 UV-I 44 W/m 9,7 C 8,6 C 12,9 km/h (3 Bft)
02.10.2022 09:18 10,8 C 10,6 C 93 % 1019,0 hPa 0,2 l/m 8,0 km/h (2 Bft) S 180 0 min 0,0 UV-I 39 W/m 9,7 C 9,7 C 12,9 km/h (3 Bft)
02.10.2022 09:19 10,8 C 10,6 C 93 % 1019,0 hPa 0,0 l/m 9,7 km/h (2 Bft) S 180 0 min 0,0 UV-I 44 W/m 9,7 C 8,6 C 17,7 km/h (3 Bft)
02.10.2022 09:20 10,8 C 10,6 C 93 % 1019,0 hPa 0,0 l/m 11,3 km/h (2 Bft) S 180 0 min 0,0 UV-I 42 W/m 9,7 C 7,8 C 14,5 km/h (3 Bft)
02.10.2022 09:21 10,8 C 10,6 C 93 % 1019,1 hPa 0,0 l/m 11,3 km/h (2 Bft) S-SW 202 0 min 0,0 UV-I 42 W/m 9,7 C 7,8 C 14,5 km/h (3 Bft)
02.10.2022 09:22 10,8 C 10,6 C 93 % 1019,0 hPa 0,0 l/m 9,7 km/h (2 Bft) S-SW 202 0 min 0,0 UV-I 42 W/m 9,7 C 8,6 C 16,1 km/h (3 Bft)
02.10.2022 09:23 10,9 C 10,6 C 93 % 1019,1 hPa 0,0 l/m 9,7 km/h (2 Bft) S 180 0 min 0,0 UV-I 37 W/m 9,8 C 8,8 C 11,3 km/h (2 Bft)
02.10.2022 09:24 10,9 C 10,6 C 93 % 1019,0 hPa 0,0 l/m 9,7 km/h (2 Bft) S-SW 202 0 min 0,0 UV-I 39 W/m 9,8 C 8,8 C 12,9 km/h (3 Bft)
02.10.2022 09:25 10,9 C 10,6 C 93 % 1019,0 hPa 0,0 l/m 9,7 km/h (2 Bft) S-SW 202 0 min 0,0 UV-I 40 W/m 9,8 C 8,8 C 12,9 km/h (3 Bft)
02.10.2022 09:26 10,8 C 10,6 C 93 % 1019,0 hPa 0,0 l/m 6,4 km/h (2 Bft) S 180 0 min 0,0 UV-I 46 W/m 9,7 C 10,8 C 9,7 km/h (2 Bft)
02.10.2022 09:27 10,9 C 10,6 C 93 % 1019,0 hPa 0,0 l/m 4,8 km/h (1 Bft) S-SW 202 0 min 0,0 UV-I 44 W/m 9,8 C 10,9 C 6,4 km/h (2 Bft)
02.10.2022 09:28 10,9 C 10,6 C 93 % 1019,1 hPa 0,0 l/m 6,4 km/h (2 Bft) S-SW 202 0 min 0,0 UV-I 47 W/m 9,8 C 10,9 C 9,7 km/h (2 Bft)
02.10.2022 09:29 10,9 C 10,6 C 93 % 1018,9 hPa 0,0 l/m 9,7 km/h (2 Bft) S-SW 202 0 min 0,0 UV-I 53 W/m 9,8 C 8,8 C 12,9 km/h (3 Bft)
02.10.2022 09:30 10,9 C 10,6 C 93 % 1018,9 hPa 0,0 l/m 9,7 km/h (2 Bft) S-SW 202 0 min 0,0 UV-I 54 W/m 9,8 C 8,8 C 12,9 km/h (3 Bft)
02.10.2022 09:31 10,9 C 10,6 C 93 % 1019,0 hPa 0,2 l/m 11,3 km/h (2 Bft) S-SW 202 0 min 0,0 UV-I 56 W/m 9,8 C 7,9 C 14,5 km/h (3 Bft)
02.10.2022 09:32 10,9 C 10,6 C 93 % 1019,0 hPa 0,0 l/m 11,3 km/h (2 Bft) S-SW 202 0 min 0,0 UV-I 58 W/m 9,8 C 7,9 C 14,5 km/h (3 Bft)
02.10.2022 09:33 10,9 C 10,6 C 93 % 1019,0 hPa 0,0 l/m 8,0 km/h (2 Bft) S-SW 202 0 min 0,0 UV-I 54 W/m 9,8 C 9,8 C 12,9 km/h (3 Bft)
02.10.2022 09:34 10,9 C 10,6 C 93 % 1019,0 hPa 0,0 l/m 12,9 km/h (3 Bft) S-SW 202 0 min 0,0 UV-I 56 W/m 9,8 C 7,1 C 17,7 km/h (3 Bft)
02.10.2022 09:35 10,9 C 10,6 C 93 % 1019,0 hPa 0,0 l/m 8,0 km/h (2 Bft) SW 225 0 min 0,0 UV-I 54 W/m 9,8 C 9,8 C 12,9 km/h (3 Bft)
02.10.2022 09:36 10,9 C 10,6 C 93 % 1019,0 hPa 0,0 l/m 8,0 km/h (2 Bft) S-SW 202 0 min 0,0 UV-I 56 W/m 9,8 C 9,8 C 12,9 km/h (3 Bft)
02.10.2022 09:37 10,9 C 10,6 C 93 % 1019,1 hPa 0,0 l/m 14,5 km/h (3 Bft) S-SW 202 0 min 0,0 UV-I 67 W/m 9,8 C 6,4 C 17,7 km/h (3 Bft)
02.10.2022 09:39 10,9 C 10,6 C 93 % 1019,1 hPa 0,0 l/m 12,1 km/h (2 Bft) S 184 0 min 0,0 UV-I 65 W/m 9,8 C 7,5 C 12,9 km/h (3 Bft)
02.10.2022 09:42 10,9 C 10,6 C 93 % 1019,2 hPa 0,0 l/m 10,3 km/h (2 Bft) S 191 0 min 0,0 UV-I 49 W/m 9,8 C 8,4 C 14,5 km/h (3 Bft)
02.10.2022 09:45 10,9 C 10,6 C 93 % 1019,2 hPa 0,0 l/m 10,5 km/h (2 Bft) S-SW 200 0 min 0,0 UV-I 35 W/m 9,8 C 8,3 C 16,1 km/h (3 Bft)
02.10.2022 09:48 10,9 C 10,6 C 93 % 1019,4 hPa 0,2 l/m 8,8 km/h (2 Bft) S 184 0 min 0,0 UV-I 32 W/m 9,8 C 9,3 C 12,9 km/h (3 Bft)
02.10.2022 09:51 10,9 C 10,6 C 93 % 1019,4 hPa 0,0 l/m 11,2 km/h (2 Bft) SW 215 0 min 0,0 UV-I 29 W/m 9,8 C 7,9 C 16,1 km/h (3 Bft)
02.10.2022 09:54 10,9 C 10,6 C 93 % 1019,4 hPa 0,0 l/m 9,9 km/h (2 Bft) S 173 0 min 0,0 UV-I 34 W/m 9,8 C 8,6 C 16,1 km/h (3 Bft)
02.10.2022 09:57 10,9 C 10,6 C 93 % 1019,4 hPa 0,2 l/m 8,8 km/h (2 Bft) S-SW 205 0 min 0,0 UV-I 34 W/m 9,8 C 9,3 C 14,5 km/h (3 Bft)
02.10.2022 10:00 10,9 C 10,6 C 93 % 1019,4 hPa 0,0 l/m 8,8 km/h (2 Bft) S-SW 203 0 min 0,0 UV-I 37 W/m 9,8 C 9,3 C 12,9 km/h (3 Bft)
02.10.2022 10:03 10,9 C 10,6 C 93 % 1019,4 hPa 0,0 l/m 9,5 km/h (2 Bft) S 178 0 min 0,0 UV-I 39 W/m 9,8 C 8,9 C 14,5 km/h (3 Bft)
02.10.2022 10:06 10,9 C 10,6 C 93 % 1019,4 hPa 0,2 l/m 8,9 km/h (2 Bft) S-SW 193 0 min 0,0 UV-I 50 W/m 9,8 C 9,2 C 14,5 km/h (3 Bft)
02.10.2022 10:09 10,9 C 10,6 C 93 % 1019,3 hPa 0,2 l/m 9,7 km/h (2 Bft) S-SW 213 0 min 0,0 UV-I 57 W/m 9,8 C 8,8 C 14,5 km/h (3 Bft)
02.10.2022 10:12 10,9 C 10,6 C 93 % 1019,4 hPa 0,0 l/m 8,2 km/h (2 Bft) S-SW 200 0 min 0,0 UV-I 53 W/m 9,8 C 9,7 C 12,9 km/h (3 Bft)
02.10.2022 10:15 11,0 C 10,6 C 93 % 1019,4 hPa 0,2 l/m 6,8 km/h (2 Bft) S-SW 194 0 min 0,0 UV-I 61 W/m 9,9 C 10,7 C 11,3 km/h (2 Bft)
02.10.2022 10:18 11,0 C 10,6 C 93 % 1019,4 hPa 0,0 l/m 6,5 km/h (2 Bft) SW 217 0 min 0,0 UV-I 63 W/m 9,9 C 11,0 C 11,3 km/h (2 Bft)
02.10.2022 10:21 11,1 C 10,6 C 93 % 1019,3 hPa 0,0 l/m 7,4 km/h (2 Bft) S 188 0 min 0,0 UV-I 67 W/m 10,0 C 10,4 C 14,5 km/h (3 Bft)
02.10.2022 10:24 11,1 C 10,6 C 93 % 1019,4 hPa 0,2 l/m 7,8 km/h (2 Bft) S-SW 195 0 min 0,0 UV-I 70 W/m 10,0 C 10,1 C 12,9 km/h (3 Bft)
02.10.2022 10:27 11,1 C 11,1 C 93 % 1019,4 hPa 0,0 l/m 8,2 km/h (2 Bft) S-SW 208 0 min 0,0 UV-I 65 W/m 10,0 C 9,9 C 14,5 km/h (3 Bft)
02.10.2022 10:30 11,1 C 11,1 C 93 % 1019,3 hPa 0,2 l/m 6,9 km/h (2 Bft) S 184 0 min 0,0 UV-I 64 W/m 10,0 C 10,8 C 12,9 km/h (3 Bft)
02.10.2022 10:33 11,1 C 10,6 C 93 % 1019,4 hPa 0,0 l/m 8,5 km/h (2 Bft) SW 215 0 min 0,0 UV-I 53 W/m 10,0 C 9,7 C 16,1 km/h (3 Bft)
02.10.2022 10:36 11,1 C 10,6 C 93 % 1019,4 hPa 0,0 l/m 6,6 km/h (2 Bft) SW 230 0 min 0,0 UV-I 34 W/m 10,0 C 11,0 C 11,3 km/h (2 Bft)
02.10.2022 10:39 11,1 C 10,6 C 93 % 1019,5 hPa 0,2 l/m 8,3 km/h (2 Bft) W 266 0 min 0,0 UV-I 32 W/m 10,0 C 9,8 C 12,9 km/h (3 Bft)
02.10.2022 10:42 11,1 C 10,6 C 93 % 1019,5 hPa 0,0 l/m 6,5 km/h (2 Bft) SW 227 0 min 0,0 UV-I 35 W/m 10,0 C 11,1 C 12,9 km/h (3 Bft)
02.10.2022 10:45 11,1 C 10,6 C 93 % 1019,5 hPa 0,0 l/m 7,1 km/h (2 Bft) S-SW 205 0 min 0,0 UV-I 38 W/m 10,0 C 10,6 C 17,7 km/h (3 Bft)
02.10.2022 10:48 11,1 C 10,6 C 93 % 1019,4 hPa 0,2 l/m 6,8 km/h (2 Bft) SW 217 0 min 0,0 UV-I 52 W/m 10,0 C 10,8 C 17,7 km/h (3 Bft)
02.10.2022 10:51 11,1 C 11,1 C 93 % 1019,4 hPa 0,0 l/m 5,4 km/h (1 Bft) SW 233 0 min 0,0 UV-I 57 W/m 10,0 C 11,1 C 9,7 km/h (2 Bft)
02.10.2022 10:54 11,2 C 11,1 C 93 % 1019,4 hPa 0,0 l/m 5,1 km/h (1 Bft) SW 218 0 min 0,2 UV-I 67 W/m 10,1 C 11,2 C 8,0 km/h (2 Bft)
02.10.2022 10:57 11,2 C 11,1 C 93 % 1019,4 hPa 0,0 l/m 7,2 km/h (2 Bft) S-SW 200 0 min 0,1 UV-I 64 W/m 10,1 C 10,6 C 11,3 km/h (2 Bft)
02.10.2022 11:00 11,2 C 11,1 C 93 % 1019,5 hPa 0,2 l/m 7,8 km/h (2 Bft) S-SW 196 0 min 0,0 UV-I 60 W/m 10,1 C 10,2 C 12,9 km/h (3 Bft)
02.10.2022 11:03 11,2 C 11,1 C 93 % 1019,5 hPa 0,0 l/m 5,3 km/h (1 Bft) S-SW 213 0 min 0,0 UV-I 51 W/m 10,1 C 11,2 C 8,0 km/h (2 Bft)
02.10.2022 11:06 11,2 C 11,1 C 93 % 1019,4 hPa 0,0 l/m 6,3 km/h (2 Bft) SW 219 0 min 0,4 UV-I 72 W/m 10,1 C 11,2 C 9,7 km/h (2 Bft)
02.10.2022 11:09 11,3 C 11,1 C 93 % 1019,4 hPa 0,0 l/m 5,2 km/h (1 Bft) SW 219 0 min 0,6 UV-I 93 W/m 10,2 C 11,3 C 9,7 km/h (2 Bft)
02.10.2022 11:12 11,3 C 11,1 C 93 % 1019,5 hPa 0,2 l/m 5,6 km/h (1 Bft) S-SW 213 0 min 0,7 UV-I 104 W/m 10,2 C 11,3 C 8,0 km/h (2 Bft)
02.10.2022 11:15 11,4 C 11,1 C 93 % 1019,5 hPa 0,0 l/m 8,0 km/h (2 Bft) S-SW 197 0 min 0,6 UV-I 86 W/m 10,3 C 10,3 C 11,3 km/h (2 Bft)
02.10.2022 11:18 11,4 C 11,1 C 93 % 1019,5 hPa 0,0 l/m 7,0 km/h (2 Bft) S-SW 213 0 min 0,5 UV-I 82 W/m 10,3 C 11,0 C 12,9 km/h (3 Bft)
02.10.2022 11:21 11,4 C 11,1 C 93 % 1019,5 hPa 0,0 l/m 8,3 km/h (2 Bft) SW 223 0 min 0,8 UV-I 117 W/m 10,3 C 10,1 C 11,3 km/h (2 Bft)
02.10.2022 11:24 11,4 C 11,7 C 93 % 1019,4 hPa 0,0 l/m 9,8 km/h (2 Bft) S-SW 206 0 min 0,9 UV-I 129 W/m 10,3 C 9,3 C 16,1 km/h (3 Bft)
02.10.2022 11:27 11,5 C 11,7 C 93 % 1019,4 hPa 0,0 l/m 7,8 km/h (2 Bft) S-SW 196 0 min 0,7 UV-I 102 W/m 10,4 C 10,6 C 14,5 km/h (3 Bft)
02.10.2022 11:30 11,5 C 11,7 C 93 % 1019,4 hPa 0,0 l/m 7,4 km/h (2 Bft) S-SW 196 0 min 0,6 UV-I 92 W/m 10,4 C 10,8 C 14,5 km/h (3 Bft)
02.10.2022 11:33 11,6 C 11,7 C 93 % 1019,5 hPa 0,0 l/m 8,4 km/h (2 Bft) S-SW 210 0 min 0,7 UV-I 97 W/m 10,5 C 10,3 C 12,9 km/h (3 Bft)
02.10.2022 11:36 11,6 C 11,7 C 93 % 1019,5 hPa 0,0 l/m 8,2 km/h (2 Bft) S-SW 200 0 min 0,7 UV-I 103 W/m 10,5 C 10,4 C 14,5 km/h (3 Bft)
02.10.2022 11:39 11,6 C 11,7 C 93 % 1019,5 hPa 0,0 l/m 7,5 km/h (2 Bft) S 176 0 min 0,7 UV-I 101 W/m 10,5 C 10,9 C 14,5 km/h (3 Bft)
02.10.2022 11:42 11,7 C 11,7 C 93 % 1019,5 hPa 0,0 l/m 6,6 km/h (2 Bft) S-SW 202 0 min 0,8 UV-I 114 W/m 10,6 C 11,6 C 11,3 km/h (2 Bft)
02.10.2022 11:45 11,7 C 11,7 C 92 % 1019,5 hPa 0,0 l/m 8,8 km/h (2 Bft) SW 229 0 min 0,6 UV-I 92 W/m 10,4 C 10,1 C 16,1 km/h (3 Bft)
02.10.2022 11:48 11,7 C 11,7 C 93 % 1019,5 hPa 0,0 l/m 7,6 km/h (2 Bft) S 178 0 min 0,6 UV-I 93 W/m 10,6 C 10,9 C 16,1 km/h (3 Bft)
02.10.2022 11:51 11,7 C 11,7 C 92 % 1019,5 hPa 0,0 l/m 8,8 km/h (2 Bft) W 259 0 min 0,6 UV-I 86 W/m 10,4 C 10,1 C 16,1 km/h (3 Bft)
02.10.2022 11:54 11,7 C 11,7 C 92 % 1019,6 hPa 0,0 l/m 9,4 km/h (2 Bft) W-SW 243 0 min 0,6 UV-I 89 W/m 10,4 C 9,8 C 17,7 km/h (3 Bft)
02.10.2022 11:57 11,7 C 11,7 C 92 % 1019,6 hPa 0,0 l/m 9,1 km/h (2 Bft) SW 219 0 min 0,6 UV-I 87 W/m 10,4 C 10,0 C 16,1 km/h (3 Bft)
02.10.2022 12:00 11,6 C 11,1 C 92 % 1019,6 hPa 0,2 l/m 9,0 km/h (2 Bft) SW 234 0 min 0,7 UV-I 97 W/m 10,3 C 9,9 C 16,1 km/h (3 Bft)
02.10.2022 12:03 11,6 C 11,7 C 92 % 1019,7 hPa 0,0 l/m 5,9 km/h (2 Bft) S-SW 212 0 min 0,6 UV-I 91 W/m 10,3 C 11,6 C 11,3 km/h (2 Bft)
02.10.2022 12:06 11,7 C 11,1 C 92 % 1019,7 hPa 0,0 l/m 7,7 km/h (2 Bft) SW 227 0 min 0,6 UV-I 80 W/m 10,4 C 10,8 C 12,9 km/h (3 Bft)
02.10.2022 12:09 11,6 C 11,1 C 92 % 1019,6 hPa 0,0 l/m 7,4 km/h (2 Bft) SW 227 0 min 0,5 UV-I 71 W/m 10,3 C 10,9 C 16,1 km/h (3 Bft)
02.10.2022 12:12 11,6 C 11,7 C 92 % 1019,6 hPa 0,0 l/m 7,6 km/h (2 Bft) SW 226 0 min 0,7 UV-I 100 W/m 10,3 C 10,8 C 12,9 km/h (3 Bft)
02.10.2022 12:15 11,6 C 11,7 C 92 % 1019,7 hPa 0,0 l/m 7,2 km/h (2 Bft) SW 221 0 min 0,8 UV-I 110 W/m 10,3 C 11,1 C 12,9 km/h (3 Bft)
02.10.2022 12:18 11,6 C 11,1 C 92 % 1019,7 hPa 0,2 l/m 8,3 km/h (2 Bft) S-SW 209 0 min 0,8 UV-I 112 W/m 10,3 C 10,3 C 19,3 km/h (3 Bft)
02.10.2022 12:21 11,6 C 11,7 C 92 % 1019,8 hPa 0,0 l/m 8,2 km/h (2 Bft) W-SW 244 0 min 0,8 UV-I 104 W/m 10,3 C 10,4 C 14,5 km/h (3 Bft)
02.10.2022 12:24 11,6 C 11,7 C 92 % 1019,8 hPa 0,0 l/m 5,7 km/h (1 Bft) SW 227 0 min 0,7 UV-I 95 W/m 10,3 C 11,6 C 11,3 km/h (2 Bft)
02.10.2022 12:27 11,7 C 11,7 C 92 % 1019,8 hPa 0,0 l/m 4,4 km/h (1 Bft) W 259 0 min 0,8 UV-I 101 W/m 10,4 C 11,7 C 9,7 km/h (2 Bft)
02.10.2022 12:30 11,7 C 11,7 C 92 % 1019,9 hPa 0,0 l/m 5,4 km/h (1 Bft) SW 235 0 min 0,6 UV-I 90 W/m 10,4 C 11,7 C 14,5 km/h (3 Bft)
02.10.2022 12:33 11,7 C 11,7 C 92 % 1020,0 hPa 0,2 l/m 5,9 km/h (2 Bft) S-SW 196 0 min 0,7 UV-I 90 W/m 10,4 C 11,7 C 11,3 km/h (2 Bft)
02.10.2022 12:36 11,7 C 11,7 C 92 % 1019,9 hPa 0,0 l/m 6,0 km/h (2 Bft) W 280 0 min 0,6 UV-I 73 W/m 10,4 C 11,7 C 11,3 km/h (2 Bft)
02.10.2022 12:39 11,7 C 11,7 C 92 % 1020,0 hPa 0,0 l/m 4,5 km/h (1 Bft) W-SW 246 0 min 0,4 UV-I 65 W/m 10,4 C 11,7 C 8,0 km/h (2 Bft)
02.10.2022 12:42 11,6 C 11,7 C 92 % 1020,0 hPa 0,2 l/m 5,7 km/h (1 Bft) W-SW 239 0 min 0,6 UV-I 72 W/m 10,3 C 11,6 C 9,7 km/h (2 Bft)
02.10.2022 12:45 11,6 C 11,7 C 92 % 1020,1 hPa 0,0 l/m 6,6 km/h (2 Bft) W-SW 240 0 min 0,6 UV-I 75 W/m 10,3 C 11,5 C 14,5 km/h (3 Bft)
02.10.2022 12:48 11,6 C 11,7 C 92 % 1020,1 hPa 0,0 l/m 5,6 km/h (1 Bft) W-SW 256 0 min 0,6 UV-I 81 W/m 10,3 C 11,6 C 14,5 km/h (3 Bft)
02.10.2022 12:51 11,5 C 11,1 C 92 % 1020,2 hPa 0,2 l/m 11,3 km/h (2 Bft) SW 225 0 min 0,7 UV-I 91 W/m 10,2 C 8,6 C 20,9 km/h (4 Bft)
02.10.2022 12:54 11,6 C 11,7 C 92 % 1020,2 hPa 0,0 l/m 8,1 km/h (2 Bft) W 273 0 min 0,7 UV-I 104 W/m 10,3 C 10,5 C 14,5 km/h (3 Bft)
02.10.2022 12:57 11,6 C 11,7 C 92 % 1020,2 hPa 0,0 l/m 9,1 km/h (2 Bft) W-SW 244 0 min 0,9 UV-I 121 W/m 10,3 C 9,9 C 14,5 km/h (3 Bft)
02.10.2022 13:00 11,6 C 11,7 C 92 % 1020,3 hPa 0,2 l/m 11,9 km/h (2 Bft) W-SW 256 0 min 1,1 UV-I 157 W/m 10,3 C 8,4 C 22,5 km/h (4 Bft)
02.10.2022 13:03 11,7 C 11,7 C 92 % 1020,3 hPa 0,0 l/m 9,6 km/h (2 Bft) W 259 0 min 0,9 UV-I 127 W/m 10,4 C 9,7 C 17,7 km/h (3 Bft)
02.10.2022 13:06 11,6 C 11,1 C 92 % 1020,1 hPa 0,0 l/m 9,4 km/h (2 Bft) W-SW 254 0 min 0,7 UV-I 96 W/m 10,3 C 9,7 C 14,5 km/h (3 Bft)
02.10.2022 13:09 11,6 C 11,1 C 92 % 1020,3 hPa 0,0 l/m 8,0 km/h (2 Bft) W-NW 289 0 min 0,7 UV-I 89 W/m 10,3 C 10,5 C 14,5 km/h (3 Bft)
02.10.2022 13:12 11,7 C 11,1 C 92 % 1020,3 hPa 0,0 l/m 7,3 km/h (2 Bft) W 267 0 min 0,7 UV-I 93 W/m 10,4 C 11,1 C 12,9 km/h (3 Bft)
02.10.2022 13:15 11,7 C 11,7 C 92 % 1020,3 hPa 0,0 l/m 4,7 km/h (1 Bft) W-SW 254 0 min 0,7 UV-I 92 W/m 10,4 C 11,7 C 11,3 km/h (2 Bft)
02.10.2022 13:18 11,7 C 11,7 C 92 % 1020,3 hPa 0,0 l/m 8,1 km/h (2 Bft) S-SW 212 0 min 0,8 UV-I 109 W/m 10,4 C 10,6 C 19,3 km/h (3 Bft)
02.10.2022 13:21 11,7 C 11,7 C 91 % 1020,2 hPa 0,0 l/m 8,4 km/h (2 Bft) W-SW 253 0 min 0,9 UV-I 129 W/m 10,3 C 10,4 C 17,7 km/h (3 Bft)
02.10.2022 13:24 11,7 C 11,7 C 91 % 1020,1 hPa 0,2 l/m 7,6 km/h (2 Bft) W-SW 243 0 min 1,0 UV-I 134 W/m 10,3 C 10,9 C 16,1 km/h (3 Bft)
02.10.2022 13:27 11,7 C 11,7 C 91 % 1020,0 hPa 0,0 l/m 5,0 km/h (1 Bft) SW 234 0 min 0,7 UV-I 109 W/m 10,3 C 11,7 C 11,3 km/h (2 Bft)
02.10.2022 13:30 11,6 C 11,7 C 92 % 1020,1 hPa 0,0 l/m 8,7 km/h (2 Bft) W-SW 252 0 min 0,7 UV-I 99 W/m 10,3 C 10,1 C 12,9 km/h (3 Bft)
02.10.2022 13:33 11,6 C 11,1 C 91 % 1020,0 hPa 0,0 l/m 6,6 km/h (2 Bft) W-SW 256 0 min 0,6 UV-I 92 W/m 10,2 C 11,5 C 12,9 km/h (3 Bft)
02.10.2022 13:34 11,7 C 11,7 C 92 % 1020,2 hPa 0,0 l/m 8,0 km/h (2 Bft) W-SW 247 0 min 0,7 UV-I 110 W/m 10,4 C 10,6 C 14,5 km/h (3 Bft)
02.10.2022 13:35 11,6 C 11,7 C 91 % 1020,3 hPa 0,0 l/m 9,7 km/h (2 Bft) W 270 0 min 0,9 UV-I 127 W/m 10,2 C 9,5 C 16,1 km/h (3 Bft)
02.10.2022 13:36 11,6 C 11,7 C 91 % 1020,3 hPa 0,0 l/m 9,7 km/h (2 Bft) W 270 0 min 0,9 UV-I 132 W/m 10,2 C 9,5 C 14,5 km/h (3 Bft)
02.10.2022 13:37 11,6 C 11,7 C 91 % 1020,3 hPa 0,0 l/m 6,4 km/h (2 Bft) W 270 0 min 1,0 UV-I 134 W/m 10,2 C 11,6 C 11,3 km/h (2 Bft)
02.10.2022 13:38 11,6 C 11,7 C 91 % 1020,3 hPa 0,0 l/m 6,4 km/h (2 Bft) W-NW 292 0 min 1,0 UV-I 137 W/m 10,2 C 11,6 C 8,0 km/h (2 Bft)
02.10.2022 13:39 11,6 C 11,7 C 91 % 1020,4 hPa 0,0 l/m 3,2 km/h (1 Bft) W 270 0 min 0,9 UV-I 131 W/m 10,2 C 11,6 C 4,8 km/h (1 Bft)
02.10.2022 13:40 11,6 C 11,7 C 91 % 1020,3 hPa 0,0 l/m 3,2 km/h (1 Bft) W 270 0 min 0,9 UV-I 120 W/m 10,2 C 11,6 C 6,4 km/h (2 Bft)
02.10.2022 13:41 11,7 C 11,7 C 92 % 1020,3 hPa 0,0 l/m 4,8 km/h (1 Bft) W-NW 292 0 min 0,8 UV-I 107 W/m 10,4 C 11,7 C 6,4 km/h (2 Bft)
02.10.2022 13:42 11,6 C 11,7 C 91 % 1020,4 hPa 0,0 l/m 3,2 km/h (1 Bft) W 261 0 min 0,7 UV-I 105 W/m 10,2 C 11,6 C 3,2 km/h (1 Bft)
02.10.2022 13:45 11,5 C 11,7 C 91 % 1020,3 hPa 0,0 l/m 5,2 km/h (1 Bft) W-NW 284 0 min 0,8 UV-I 112 W/m 10,1 C 11,5 C 12,9 km/h (3 Bft)
02.10.2022 13:48 11,6 C 11,7 C 91 % 1020,3 hPa 0,0 l/m 4,4 km/h (1 Bft) W 281 0 min 0,7 UV-I 104 W/m 10,2 C 11,6 C 11,3 km/h (2 Bft)
02.10.2022 13:51 11,5 C 11,7 C 91 % 1020,3 hPa 0,0 l/m 4,0 km/h (1 Bft) W 279 0 min 0,7 UV-I 111 W/m 10,1 C 11,5 C 9,7 km/h (2 Bft)
02.10.2022 13:54 11,6 C 11,7 C 91 % 1020,5 hPa 0,0 l/m 3,1 km/h (1 Bft) W 265 0 min 0,8 UV-I 119 W/m 10,2 C 11,6 C 6,4 km/h (2 Bft)
02.10.2022 13:57 11,6 C 11,7 C 91 % 1020,5 hPa 0,0 l/m 6,3 km/h (2 Bft) W 273 0 min 0,5 UV-I 81 W/m 10,2 C 11,6 C 12,9 km/h (3 Bft)
02.10.2022 14:00 11,5 C 11,7 C 91 % 1020,5 hPa 0,0 l/m 6,4 km/h (2 Bft) SW 216 0 min 0,6 UV-I 87 W/m 10,1 C 11,5 C 12,9 km/h (3 Bft)
02.10.2022 14:03 11,4 C 11,1 C 91 % 1020,5 hPa 0,0 l/m 6,9 km/h (2 Bft) SW 222 0 min 0,6 UV-I 86 W/m 10,0 C 11,1 C 12,9 km/h (3 Bft)
02.10.2022 14:06 11,4 C 11,1 C 91 % 1020,5 hPa 0,0 l/m 8,6 km/h (2 Bft) W-SW 256 0 min 0,6 UV-I 88 W/m 10,0 C 9,9 C 16,1 km/h (3 Bft)
02.10.2022 14:09 11,3 C 11,1 C 91 % 1020,4 hPa 0,0 l/m 5,7 km/h (1 Bft) W 262 0 min 0,7 UV-I 95 W/m 9,9 C 11,3 C 12,9 km/h (3 Bft)
02.10.2022 14:12 11,4 C 11,1 C 91 % 1020,4 hPa 0,0 l/m 7,3 km/h (2 Bft) W 266 0 min 0,7 UV-I 94 W/m 10,0 C 10,8 C 14,5 km/h (3 Bft)
02.10.2022 14:15 11,4 C 11,1 C 91 % 1020,5 hPa 0,0 l/m 4,3 km/h (1 Bft) W 275 0 min 0,4 UV-I 79 W/m 10,0 C 11,4 C 11,3 km/h (2 Bft)
02.10.2022 14:18 11,4 C 11,1 C 91 % 1020,6 hPa 0,0 l/m 5,9 km/h (2 Bft) W 267 0 min 0,2 UV-I 67 W/m 10,0 C 11,4 C 12,9 km/h (3 Bft)
02.10.2022 14:21 11,4 C 11,1 C 91 % 1020,6 hPa 0,0 l/m 4,6 km/h (1 Bft) W 267 0 min 0,6 UV-I 84 W/m 10,0 C 11,4 C 9,7 km/h (2 Bft)
02.10.2022 14:24 11,4 C 11,7 C 91 % 1020,6 hPa 0,0 l/m 3,2 km/h (1 Bft) W 263 0 min 0,1 UV-I 73 W/m 10,0 C 11,4 C 6,4 km/h (2 Bft)
02.10.2022 14:27 11,4 C 11,7 C 91 % 1020,5 hPa 0,0 l/m 2,9 km/h (1 Bft) W-SW 253 0 min 0,7 UV-I 101 W/m 10,0 C 11,4 C 4,8 km/h (1 Bft)
02.10.2022 14:30 11,4 C 11,7 C 91 % 1020,5 hPa 0,0 l/m 4,3 km/h (1 Bft) W-SW 252 0 min 0,9 UV-I 127 W/m 10,0 C 11,4 C 8,0 km/h (2 Bft)
02.10.2022 14:33 11,4 C 11,7 C 91 % 1020,5 hPa 0,0 l/m 4,9 km/h (1 Bft) W-SW 243 0 min 1,1 UV-I 150 W/m 10,0 C 11,4 C 12,9 km/h (3 Bft)
02.10.2022 14:36 11,4 C 11,7 C 91 % 1020,4 hPa 0,0 l/m 7,4 km/h (2 Bft) W 267 0 min 1,0 UV-I 148 W/m 10,0 C 10,7 C 12,9 km/h (3 Bft)
02.10.2022 14:39 11,3 C 11,1 C 91 % 1020,4 hPa 0,0 l/m 7,7 km/h (2 Bft) W-SW 239 0 min 1,0 UV-I 144 W/m 9,9 C 10,4 C 16,1 km/h (3 Bft)
02.10.2022 14:42 11,4 C 11,7 C 91 % 1020,4 hPa 0,0 l/m 6,7 km/h (2 Bft) W-SW 254 0 min 0,9 UV-I 133 W/m 10,0 C 11,2 C 14,5 km/h (3 Bft)
02.10.2022 14:45 11,4 C 11,7 C 91 % 1020,4 hPa 0,0 l/m 6,0 km/h (2 Bft) W-SW 241 0 min 0,9 UV-I 124 W/m 10,0 C 11,4 C 11,3 km/h (2 Bft)
02.10.2022 14:48 11,4 C 11,7 C 91 % 1020,3 hPa 0,0 l/m 6,3 km/h (2 Bft) W 274 0 min 0,9 UV-I 130 W/m 10,0 C 11,4 C 12,9 km/h (3 Bft)
02.10.2022 14:51 11,3 C 11,7 C 90 % 1020,5 hPa 0,0 l/m 7,0 km/h (2 Bft) W-SW 251 0 min 0,9 UV-I 134 W/m 9,7 C 10,9 C 12,9 km/h (3 Bft)
02.10.2022 14:54 11,3 C 11,7 C 90 % 1020,4 hPa 0,0 l/m 6,7 km/h (2 Bft) W-SW 244 0 min 0,9 UV-I 128 W/m 9,7 C 11,1 C 12,9 km/h (3 Bft)
02.10.2022 14:57 11,3 C 11,7 C 90 % 1020,5 hPa 0,0 l/m 4,4 km/h (1 Bft) W 276 0 min 0,7 UV-I 114 W/m 9,7 C 11,3 C 6,4 km/h (2 Bft)
02.10.2022 15:00 11,4 C 11,7 C 90 % 1020,5 hPa 0,0 l/m 7,6 km/h (2 Bft) W 267 0 min 0,6 UV-I 95 W/m 9,8 C 10,6 C 12,9 km/h (3 Bft)
02.10.2022 15:03 11,3 C 11,7 C 90 % 1020,5 hPa 0,0 l/m 4,9 km/h (1 Bft) W-SW 254 0 min 0,6 UV-I 93 W/m 9,7 C 11,3 C 8,0 km/h (2 Bft)
02.10.2022 15:06 11,3 C 11,1 C 90 % 1020,7 hPa 0,0 l/m 6,7 km/h (2 Bft) W 273 0 min 0,6 UV-I 94 W/m 9,7 C 11,1 C 11,3 km/h (2 Bft)
02.10.2022 15:09 11,3 C 11,1 C 90 % 1020,6 hPa 0,0 l/m 4,1 km/h (1 Bft) W-SW 253 0 min 0,5 UV-I 83 W/m 9,7 C 11,3 C 6,4 km/h (2 Bft)
02.10.2022 15:12 11,3 C 11,1 C 90 % 1020,7 hPa 0,0 l/m 5,8 km/h (2 Bft) W 272 0 min 0,4 UV-I 75 W/m 9,7 C 11,3 C 11,3 km/h (2 Bft)
02.10.2022 15:15 11,3 C 11,1 C 90 % 1020,6 hPa 0,0 l/m 4,6 km/h (1 Bft) W-SW 246 0 min 0,1 UV-I 70 W/m 9,7 C 11,3 C 8,0 km/h (2 Bft)
02.10.2022 15:18 11,3 C 11,1 C 90 % 1020,6 hPa 0,0 l/m 5,5 km/h (1 Bft) W-SW 251 0 min 0,0 UV-I 67 W/m 9,7 C 11,3 C 12,9 km/h (3 Bft)
02.10.2022 15:21 11,3 C 11,1 C 90 % 1020,6 hPa 0,0 l/m 4,9 km/h (1 Bft) W-SW 241 0 min 0,3 UV-I 76 W/m 9,7 C 11,3 C 9,7 km/h (2 Bft)
02.10.2022 15:24 11,3 C 11,1 C 90 % 1020,6 hPa 0,0 l/m 4,5 km/h (1 Bft) W-SW 252 0 min 0,5 UV-I 77 W/m 9,7 C 11,3 C 6,4 km/h (2 Bft)
02.10.2022 15:27 11,4 C 11,1 C 90 % 1020,7 hPa 0,0 l/m 2,2 km/h (1 Bft) W-SW 248 0 min 0,5 UV-I 76 W/m 9,8 C 11,4 C 4,8 km/h (1 Bft)
02.10.2022 15:30 11,4 C 11,1 C 90 % 1020,6 hPa 0,0 l/m 3,1 km/h (1 Bft) W-SW 238 0 min 0,5 UV-I 77 W/m 9,8 C 11,4 C 6,4 km/h (2 Bft)
02.10.2022 15:33 11,4 C 11,7 C 90 % 1020,7 hPa 0,0 l/m 2,8 km/h (1 Bft) W-SW 254 0 min 0,5 UV-I 82 W/m 9,8 C 11,4 C 8,0 km/h (2 Bft)
02.10.2022 15:36 11,4 C 11,7 C 90 % 1020,7 hPa 0,0 l/m 5,2 km/h (1 Bft) W-SW 248 0 min 0,2 UV-I 76 W/m 9,8 C 11,4 C 11,3 km/h (2 Bft)
02.10.2022 15:39 11,4 C 11,1 C 90 % 1020,7 hPa 0,0 l/m 5,8 km/h (2 Bft) W 261 0 min 0,0 UV-I 56 W/m 9,8 C 11,4 C 9,7 km/h (2 Bft)
02.10.2022 15:42 11,4 C 11,1 C 90 % 1020,9 hPa 0,0 l/m 4,4 km/h (1 Bft) W-SW 257 0 min 0,0 UV-I 42 W/m 9,8 C 11,4 C 6,4 km/h (2 Bft)
02.10.2022 15:45 11,3 C 11,1 C 90 % 1020,9 hPa 0,0 l/m 3,8 km/h (1 Bft) W-SW 254 0 min 0,0 UV-I 48 W/m 9,7 C 11,3 C 8,0 km/h (2 Bft)
02.10.2022 15:48 11,3 C 11,1 C 90 % 1020,9 hPa 0,0 l/m 2,9 km/h (1 Bft) SW 232 0 min 0,0 UV-I 45 W/m 9,7 C 11,3 C 6,4 km/h (2 Bft)
02.10.2022 15:51 11,3 C 11,1 C 90 % 1020,9 hPa 0,0 l/m 4,8 km/h (1 Bft) SW 220 0 min 0,0 UV-I 58 W/m 9,7 C 11,3 C 11,3 km/h (2 Bft)
02.10.2022 15:54 11,2 C 11,1 C 90 % 1021,0 hPa 0,0 l/m 4,6 km/h (1 Bft) W-SW 257 0 min 0,0 UV-I 63 W/m 9,6 C 11,2 C 11,3 km/h (2 Bft)
02.10.2022 15:57 11,2 C 11,1 C 90 % 1021,0 hPa 0,0 l/m 5,7 km/h (1 Bft) W-SW 240 0 min 0,0 UV-I 60 W/m 9,6 C 11,2 C 11,3 km/h (2 Bft)
02.10.2022 16:00 11,2 C 11,1 C 90 % 1021,1 hPa 0,0 l/m 7,1 km/h (2 Bft) SW 231 0 min 0,0 UV-I 65 W/m 9,6 C 10,7 C 12,9 km/h (3 Bft)
02.10.2022 16:03 11,2 C 11,1 C 90 % 1021,1 hPa 0,0 l/m 5,4 km/h (1 Bft) S-SW 213 0 min 0,2 UV-I 82 W/m 9,6 C 11,2 C 11,3 km/h (2 Bft)
02.10.2022 16:06 11,3 C 11,1 C 90 % 1021,1 hPa 0,0 l/m 6,6 km/h (2 Bft) W 266 0 min 0,6 UV-I 99 W/m 9,7 C 11,2 C 14,5 km/h (3 Bft)
02.10.2022 16:09 11,3 C 11,1 C 90 % 1021,0 hPa 0,0 l/m 5,8 km/h (2 Bft) W-SW 248 0 min 0,5 UV-I 90 W/m 9,7 C 11,3 C 12,9 km/h (3 Bft)
02.10.2022 16:12 11,3 C 11,1 C 91 % 1021,0 hPa 0,0 l/m 5,7 km/h (1 Bft) SW 234 0 min 0,5 UV-I 93 W/m 9,9 C 11,3 C 11,3 km/h (2 Bft)
02.10.2022 16:15 11,3 C 11,7 C 91 % 1021,1 hPa 0,0 l/m 4,9 km/h (1 Bft) W 269 0 min 0,3 UV-I 81 W/m 9,9 C 11,3 C 9,7 km/h (2 Bft)
02.10.2022 16:18 11,3 C 11,7 C 91 % 1021,0 hPa 0,0 l/m 5,9 km/h (2 Bft) W 259 0 min 0,0 UV-I 66 W/m 9,9 C 11,3 C 12,9 km/h (3 Bft)
02.10.2022 16:21 11,3 C 11,7 C 91 % 1021,0 hPa 0,0 l/m 6,4 km/h (2 Bft) S-SW 201 0 min 0,1 UV-I 76 W/m 9,9 C 11,3 C 11,3 km/h (2 Bft)
02.10.2022 16:24 11,3 C 11,7 C 91 % 1021,0 hPa 0,0 l/m 6,0 km/h (2 Bft) SW 233 0 min 0,6 UV-I 116 W/m 9,9 C 11,3 C 9,7 km/h (2 Bft)
02.10.2022 16:27 11,3 C 11,7 C 91 % 1021,0 hPa 0,0 l/m 5,9 km/h (2 Bft) W-SW 254 0 min 0,6 UV-I 123 W/m 9,9 C 11,3 C 11,3 km/h (2 Bft)
02.10.2022 16:30 11,3 C 11,7 C 90 % 1021,0 hPa 0,0 l/m 8,6 km/h (2 Bft) W-SW 238 0 min 0,6 UV-I 114 W/m 9,7 C 9,8 C 16,1 km/h (3 Bft)
02.10.2022 16:33 11,3 C 11,7 C 91 % 1021,0 hPa 0,0 l/m 6,2 km/h (2 Bft) SW 227 0 min 0,5 UV-I 104 W/m 9,9 C 11,3 C 12,9 km/h (3 Bft)
02.10.2022 16:36 11,4 C 11,7 C 91 % 1020,9 hPa 0,0 l/m 4,9 km/h (1 Bft) W 266 0 min 0,5 UV-I 98 W/m 10,0 C 11,4 C 11,3 km/h (2 Bft)
02.10.2022 16:39 11,4 C 11,7 C 91 % 1021,1 hPa 0,0 l/m 4,9 km/h (1 Bft) W-SW 243 0 min 0,5 UV-I 96 W/m 10,0 C 11,4 C 12,9 km/h (3 Bft)
02.10.2022 16:42 11,3 C 11,7 C 90 % 1021,0 hPa 0,0 l/m 6,9 km/h (2 Bft) W 261 0 min 0,5 UV-I 91 W/m 9,7 C 11,0 C 12,9 km/h (3 Bft)
02.10.2022 16:45 11,3 C 11,7 C 90 % 1021,1 hPa 0,0 l/m 5,5 km/h (1 Bft) SW 217 0 min 0,0 UV-I 88 W/m 9,7 C 11,3 C 9,7 km/h (2 Bft)
02.10.2022 16:48 11,3 C 11,7 C 90 % 1021,0 hPa 0,0 l/m 4,7 km/h (1 Bft) W-SW 238 0 min 0,0 UV-I 86 W/m 9,7 C 11,3 C 11,3 km/h (2 Bft)
02.10.2022 16:51 11,3 C 11,7 C 90 % 1021,0 hPa 0,0 l/m 4,8 km/h (1 Bft) W-SW 254 0 min 0,0 UV-I 86 W/m 9,7 C 11,3 C 12,9 km/h (3 Bft)
02.10.2022 16:54 11,3 C 11,7 C 90 % 1021,0 hPa 0,0 l/m 4,9 km/h (1 Bft) W-SW 243 0 min 0,0 UV-I 90 W/m 9,7 C 11,3 C 9,7 km/h (2 Bft)
02.10.2022 16:57 11,4 C 11,7 C 90 % 1021,0 hPa 0,0 l/m 5,7 km/h (1 Bft) W-SW 258 0 min 0,0 UV-I 94 W/m 9,8 C 11,4 C 12,9 km/h (3 Bft)
02.10.2022 17:00 11,3 C 11,7 C 90 % 1021,1 hPa 0,0 l/m 5,2 km/h (1 Bft) W-SW 241 0 min 0,0 UV-I 96 W/m 9,7 C 11,3 C 9,7 km/h (2 Bft)
02.10.2022 17:03 11,3 C 11,7 C 90 % 1021,0 hPa 0,0 l/m 6,0 km/h (2 Bft) W-SW 237 0 min 0,0 UV-I 97 W/m 9,7 C 11,3 C 11,3 km/h (2 Bft)
02.10.2022 17:06 11,3 C 11,7 C 90 % 1021,1 hPa 0,0 l/m 5,5 km/h (1 Bft) W-SW 239 0 min 0,0 UV-I 95 W/m 9,7 C 11,3 C 12,9 km/h (3 Bft)
02.10.2022 17:09 11,3 C 11,7 C 90 % 1021,2 hPa 0,0 l/m 4,1 km/h (1 Bft) W 261 0 min 0,0 UV-I 91 W/m 9,7 C 11,3 C 6,4 km/h (2 Bft)
02.10.2022 17:12 11,4 C 11,7 C 90 % 1021,2 hPa 0,0 l/m 5,0 km/h (1 Bft) SW 228 0 min 0,0 UV-I 87 W/m 9,8 C 11,4 C 11,3 km/h (2 Bft)
02.10.2022 17:15 11,3 C 11,7 C 90 % 1021,2 hPa 0,0 l/m 4,1 km/h (1 Bft) SW 231 0 min 0,0 UV-I 83 W/m 9,7 C 11,3 C 6,4 km/h (2 Bft)
02.10.2022 17:18 11,3 C 11,7 C 90 % 1021,2 hPa 0,0 l/m 2,6 km/h (1 Bft) W-SW 241 0 min 0,0 UV-I 80 W/m 9,7 C 11,3 C 6,4 km/h (2 Bft)
02.10.2022 17:21 11,3 C 11,7 C 90 % 1021,2 hPa 0,0 l/m 4,2 km/h (1 Bft) W-SW 246 0 min 0,0 UV-I 77 W/m 9,7 C 11,3 C 6,4 km/h (2 Bft)
02.10.2022 17:24 11,3 C 11,7 C 90 % 1021,2 hPa 0,0 l/m 3,5 km/h (1 Bft) W 265 0 min 0,0 UV-I 76 W/m 9,7 C 11,3 C 8,0 km/h (2 Bft)
02.10.2022 17:27 11,3 C 11,7 C 90 % 1021,3 hPa 0,0 l/m 1,0 km/h (0 Bft) W 266 0 min 0,0 UV-I 75 W/m 9,7 C 11,3 C 4,8 km/h (1 Bft)
02.10.2022 17:30 11,3 C 11,7 C 91 % 1021,3 hPa 0,0 l/m 3,2 km/h (1 Bft) W 265 0 min 0,0 UV-I 76 W/m 9,9 C 11,3 C 6,4 km/h (2 Bft)
02.10.2022 17:33 11,3 C 11,7 C 91 % 1021,4 hPa 0,0 l/m 0,6 km/h (0 Bft) W 265 0 min 0,0 UV-I 77 W/m 9,9 C 11,3 C 3,2 km/h (1 Bft)
02.10.2022 17:36 11,3 C 11,7 C 90 % 1021,4 hPa 0,0 l/m 3,8 km/h (1 Bft) W 267 0 min 0,0 UV-I 79 W/m 9,7 C 11,3 C 6,4 km/h (2 Bft)
02.10.2022 17:39 11,3 C 11,7 C 90 % 1021,4 hPa 0,0 l/m 2,8 km/h (1 Bft) W-SW 252 0 min 0,0 UV-I 82 W/m 9,7 C 11,3 C 4,8 km/h (1 Bft)
02.10.2022 17:42 11,3 C 11,7 C 90 % 1021,4 hPa 0,0 l/m 2,6 km/h (1 Bft) W-NW 286 0 min 0,0 UV-I 83 W/m 9,7 C 11,3 C 4,8 km/h (1 Bft)
02.10.2022 17:45 11,2 C 11,7 C 90 % 1021,5 hPa 0,0 l/m 6,2 km/h (2 Bft) W-SW 257 0 min 0,0 UV-I 86 W/m 9,6 C 11,2 C 14,5 km/h (3 Bft)
02.10.2022 17:48 11,3 C 11,7 C 90 % 1021,4 hPa 0,0 l/m 4,6 km/h (1 Bft) S-SW 202 0 min 0,0 UV-I 92 W/m 9,7 C 11,3 C 8,0 km/h (2 Bft)
02.10.2022 17:51 11,2 C 11,7 C 90 % 1021,4 hPa 0,0 l/m 4,1 km/h (1 Bft) SW 225 0 min 0,0 UV-I 92 W/m 9,6 C 11,2 C 6,4 km/h (2 Bft)
02.10.2022 17:54 11,2 C 11,7 C 90 % 1021,5 hPa 0,0 l/m 5,8 km/h (2 Bft) SW 229 0 min 0,0 UV-I 93 W/m 9,6 C 11,2 C 8,0 km/h (2 Bft)
02.10.2022 17:57 11,3 C 12,2 C 90 % 1021,4 hPa 0,0 l/m 3,0 km/h (1 Bft) SW 224 0 min 0,0 UV-I 116 W/m 9,7 C 11,3 C 6,4 km/h (2 Bft)
02.10.2022 18:00 11,3 C 14,4 C 90 % 1021,5 hPa 0,0 l/m 2,7 km/h (1 Bft) W-SW 243 0 min 0,0 UV-I 140 W/m 9,7 C 11,3 C 8,0 km/h (2 Bft)
02.10.2022 18:03 11,3 C 15,0 C 90 % 1021,6 hPa 0,0 l/m 5,0 km/h (1 Bft) S 187 0 min 0,0 UV-I 101 W/m 9,7 C 11,3 C 8,0 km/h (2 Bft)
02.10.2022 18:06 11,3 C 14,4 C 89 % 1021,5 hPa 0,0 l/m 4,8 km/h (1 Bft) W-SW 251 0 min 0,0 UV-I 89 W/m 9,6 C 11,3 C 8,0 km/h (2 Bft)
02.10.2022 18:09 11,4 C 15,0 C 89 % 1021,5 hPa 0,0 l/m 4,3 km/h (1 Bft) W-SW 244 0 min 0,0 UV-I 99 W/m 9,7 C 11,4 C 8,0 km/h (2 Bft)
02.10.2022 18:12 11,4 C 14,4 C 89 % 1021,6 hPa 0,0 l/m 4,9 km/h (1 Bft) W 260 0 min 0,0 UV-I 96 W/m 9,7 C 11,4 C 8,0 km/h (2 Bft)
02.10.2022 18:15 11,5 C 13,9 C 89 % 1021,6 hPa 0,0 l/m 3,3 km/h (1 Bft) W-SW 238 0 min 0,0 UV-I 101 W/m 9,8 C 11,5 C 6,4 km/h (2 Bft)
02.10.2022 18:18 11,6 C 15,0 C 89 % 1021,7 hPa 0,0 l/m 0,6 km/h (0 Bft) W-SW 238 0 min 0,0 UV-I 126 W/m 9,8 C 11,6 C 3,2 km/h (1 Bft)
02.10.2022 18:21 11,6 C 13,9 C 89 % 1021,7 hPa 0,0 l/m 0,5 km/h (0 Bft) W-SW 238 0 min 0,0 UV-I 83 W/m 9,8 C 11,6 C 3,2 km/h (1 Bft)
02.10.2022 18:24 11,5 C 12,8 C 89 % 1021,8 hPa 0,0 l/m 2,4 km/h (1 Bft) W 261 0 min 0,0 UV-I 56 W/m 9,8 C 11,5 C 6,4 km/h (2 Bft)
02.10.2022 18:27 11,3 C 11,7 C 89 % 1021,8 hPa 0,0 l/m 4,1 km/h (1 Bft) W 264 0 min 0,0 UV-I 56 W/m 9,6 C 11,3 C 9,7 km/h (2 Bft)
02.10.2022 18:30 11,2 C 11,1 C 88 % 1021,8 hPa 0,0 l/m 4,5 km/h (1 Bft) W-SW 250 0 min 0,0 UV-I 32 W/m 9,3 C 11,2 C 11,3 km/h (2 Bft)
02.10.2022 18:33 11,1 C 10,6 C 89 % 1021,8 hPa 0,0 l/m 2,7 km/h (1 Bft) W-SW 252 0 min 0,0 UV-I 38 W/m 9,4 C 11,1 C 4,8 km/h (1 Bft)
02.10.2022 18:36 10,9 C 10,6 C 89 % 1021,8 hPa 0,0 l/m 3,3 km/h (1 Bft) W 259 0 min 0,0 UV-I 34 W/m 9,2 C 10,9 C 4,8 km/h (1 Bft)
02.10.2022 18:39 10,8 C 10,6 C 89 % 1021,8 hPa 0,0 l/m 5,4 km/h (1 Bft) W 270 0 min 0,0 UV-I 37 W/m 9,1 C 10,8 C 9,7 km/h (2 Bft)
02.10.2022 18:42 10,8 C 10,6 C 89 % 1022,0 hPa 0,0 l/m 2,5 km/h (1 Bft) N-NW 343 0 min 0,0 UV-I 32 W/m 9,1 C 10,8 C 4,8 km/h (1 Bft)
02.10.2022 18:45 10,8 C 10,6 C 90 % 1022,1 hPa 0,0 l/m 1,3 km/h (1 Bft) N-NW 335 0 min 0,0 UV-I 15 W/m 9,2 C 10,8 C 4,8 km/h (1 Bft)
02.10.2022 18:48 10,9 C 10,6 C 90 % 1022,2 hPa 0,0 l/m 1,3 km/h (1 Bft) N-NW 333 0 min 0,0 UV-I 12 W/m 9,3 C 10,9 C 3,2 km/h (1 Bft)
02.10.2022 18:51 10,9 C 10,6 C 90 % 1022,3 hPa 0,0 l/m 1,7 km/h (1 Bft) N-NW 333 0 min 0,0 UV-I 13 W/m 9,3 C 10,9 C 3,2 km/h (1 Bft)
02.10.2022 18:54 10,8 C 10,6 C 90 % 1022,2 hPa 0,0 l/m 1,6 km/h (1 Bft) N-NW 327 0 min 0,0 UV-I 7 W/m 9,2 C 10,8 C 4,8 km/h (1 Bft)
02.10.2022 18:57 10,8 C 10,0 C 90 % 1022,4 hPa 0,0 l/m 1,7 km/h (1 Bft) NW 325 0 min 0,0 UV-I 7 W/m 9,2 C 10,8 C 3,2 km/h (1 Bft)
02.10.2022 19:00 10,8 C 10,0 C 90 % 1022,3 hPa 0,0 l/m 3,7 km/h (1 Bft) W 268 0 min 0,0 UV-I 6 W/m 9,2 C 10,8 C 6,4 km/h (2 Bft)
02.10.2022 19:03 10,6 C 9,4 C 90 % 1022,4 hPa 0,0 l/m 3,5 km/h (1 Bft) W-SW 257 0 min 0,0 UV-I 5 W/m 9,0 C 10,6 C 6,4 km/h (2 Bft)
02.10.2022 19:06 10,5 C 9,4 C 90 % 1022,5 hPa 0,2 l/m 3,9 km/h (1 Bft) W-SW 252 0 min 0,0 UV-I 5 W/m 8,9 C 10,5 C 6,4 km/h (2 Bft)
02.10.2022 19:09 10,4 C 8,9 C 90 % 1022,6 hPa 0,0 l/m 3,4 km/h (1 Bft) W-SW 250 0 min 0,0 UV-I 2 W/m 8,8 C 10,4 C 6,4 km/h (2 Bft)
02.10.2022 19:12 10,3 C 8,9 C 90 % 1022,6 hPa 0,0 l/m 3,4 km/h (1 Bft) W-SW 248 0 min 0,0 UV-I 0 W/m 8,7 C 10,3 C 6,4 km/h (2 Bft)
02.10.2022 19:15 10,2 C 8,9 C 90 % 1022,7 hPa 0,0 l/m 4,2 km/h (1 Bft) W-SW 245 0 min 0,0 UV-I 0 W/m 8,6 C 10,2 C 6,4 km/h (2 Bft)
02.10.2022 19:18 10,1 C 8,3 C 90 % 1022,7 hPa 0,0 l/m 3,4 km/h (1 Bft) W-SW 248 0 min 0,0 UV-I 0 W/m 8,5 C 10,1 C 4,8 km/h (1 Bft)
02.10.2022 19:21 10,1 C 8,3 C 91 % 1022,7 hPa 0,0 l/m 3,0 km/h (1 Bft) W-SW 247 0 min 0,0 UV-I 0 W/m 8,7 C 10,1 C 4,8 km/h (1 Bft)
02.10.2022 19:24 9,9 C 8,3 C 91 % 1022,7 hPa 0,0 l/m 3,3 km/h (1 Bft) W-SW 245 0 min 0,0 UV-I 0 W/m 8,5 C 9,9 C 4,8 km/h (1 Bft)
02.10.2022 19:27 9,8 C 7,8 C 91 % 1022,8 hPa 0,0 l/m 2,7 km/h (1 Bft) W-SW 246 0 min 0,0 UV-I 0 W/m 8,4 C 9,8 C 4,8 km/h (1 Bft)
02.10.2022 19:30 9,7 C 7,8 C 91 % 1022,9 hPa 0,0 l/m 2,3 km/h (1 Bft) W-SW 246 0 min 0,0 UV-I 0 W/m 8,3 C 9,7 C 4,8 km/h (1 Bft)
02.10.2022 19:33 9,7 C 7,8 C 91 % 1022,9 hPa 0,0 l/m 3,8 km/h (1 Bft) W-SW 246 0 min 0,0 UV-I 0 W/m 8,3 C 9,7 C 6,4 km/h (2 Bft)
02.10.2022 19:36 9,7 C 7,2 C 91 % 1023,0 hPa 0,0 l/m 3,1 km/h (1 Bft) W-SW 249 0 min 0,0 UV-I 0 W/m 8,3 C 9,7 C 6,4 km/h (2 Bft)
02.10.2022 19:39 9,6 C 7,8 C 91 % 1023,0 hPa 0,0 l/m 3,8 km/h (1 Bft) W-SW 252 0 min 0,0 UV-I 0 W/m 8,2 C 9,6 C 6,4 km/h (2 Bft)
02.10.2022 19:42 9,6 C 7,8 C 91 % 1023,1 hPa 0,0 l/m 2,5 km/h (1 Bft) W-SW 258 0 min 0,0 UV-I 0 W/m 8,2 C 9,6 C 6,4 km/h (2 Bft)
02.10.2022 19:45 9,6 C 7,2 C 91 % 1023,2 hPa 0,0 l/m 1,1 km/h (1 Bft) W-SW 258 0 min 0,0 UV-I 0 W/m 8,2 C 9,6 C 3,2 km/h (1 Bft)
02.10.2022 19:48 9,5 C 7,2 C 91 % 1023,2 hPa 0,0 l/m 2,7 km/h (1 Bft) W 260 0 min 0,0 UV-I 0 W/m 8,1 C 9,5 C 4,8 km/h (1 Bft)
02.10.2022 19:51 9,4 C 7,2 C 91 % 1023,3 hPa 0,0 l/m 1,6 km/h (1 Bft) W 260 0 min 0,0 UV-I 0 W/m 8,0 C 9,4 C 3,2 km/h (1 Bft)
02.10.2022 19:54 9,4 C 7,2 C 92 % 1023,2 hPa 0,0 l/m 3,0 km/h (1 Bft) W 259 0 min 0,0 UV-I 0 W/m 8,2 C 9,4 C 4,8 km/h (1 Bft)
02.10.2022 19:57 9,4 C 7,2 C 92 % 1023,3 hPa 0,0 l/m 3,2 km/h (1 Bft) W 259 0 min 0,0 UV-I 0 W/m 8,2 C 9,4 C 4,8 km/h (1 Bft)
02.10.2022 20:00 9,3 C 7,2 C 91 % 1023,4 hPa 0,0 l/m 2,3 km/h (1 Bft) W 259 0 min 0,0 UV-I 0 W/m 7,9 C 9,3 C 4,8 km/h (1 Bft)
02.10.2022 20:03 9,2 C 6,7 C 91 % 1023,5 hPa 0,0 l/m 3,3 km/h (1 Bft) W-SW 256 0 min 0,0 UV-I 0 W/m 7,8 C 9,2 C 6,4 km/h (2 Bft)
02.10.2022 20:07 9,1 C 7,2 C 92 % 1023,5 hPa 0,0 l/m 4,0 km/h (1 Bft) W 269 0 min 0,0 UV-I 0 W/m 7,9 C 9,1 C 6,4 km/h (2 Bft)
02.10.2022 20:09 9,1 C 6,7 C 92 % 1023,5 hPa 0,0 l/m 2,8 km/h (1 Bft) W 267 0 min 0,0 UV-I 0 W/m 7,9 C 9,1 C 4,8 km/h (1 Bft)
02.10.2022 20:14 8,9 C 7,2 C 92 % 1023,7 hPa 0,0 l/m 4,1 km/h (1 Bft) W-SW 240 0 min 0,0 UV-I 0 W/m 7,7 C 8,9 C 6,4 km/h (2 Bft)
02.10.2022 20:15 8,9 C 7,2 C 92 % 1023,9 hPa 0,0 l/m 4,0 km/h (1 Bft) W-SW 253 0 min 0,0 UV-I 0 W/m 7,7 C 8,9 C 6,4 km/h (2 Bft)
02.10.2022 20:16 8,9 C 7,2 C 92 % 1023,8 hPa 0,0 l/m 4,4 km/h (1 Bft) W-SW 246 0 min 0,0 UV-I 0 W/m 7,7 C 8,9 C 6,4 km/h (2 Bft)
02.10.2022 20:17 9,0 C 7,2 C 92 % 1023,8 hPa 0,0 l/m 3,2 km/h (1 Bft) W-SW 247 0 min 0,0 UV-I 0 W/m 7,8 C 9,0 C 6,4 km/h (2 Bft)
02.10.2022 20:18 9,0 C 7,8 C 92 % 1023,9 hPa 0,0 l/m 1,6 km/h (1 Bft) W-SW 247 0 min 0,0 UV-I 0 W/m 7,8 C 9,0 C 3,2 km/h (1 Bft)
02.10.2022 20:21 9,0 C 7,2 C 92 % 1023,9 hPa 0,0 l/m 2,6 km/h (1 Bft) W-SW 252 0 min 0,0 UV-I 0 W/m 7,8 C 9,0 C 4,8 km/h (1 Bft)
02.10.2022 20:24 9,1 C 7,2 C 92 % 1023,9 hPa 0,0 l/m 4,2 km/h (1 Bft) W-SW 246 0 min 0,0 UV-I 0 W/m 7,9 C 9,1 C 6,4 km/h (2 Bft)
02.10.2022 20:27 9,1 C 7,2 C 92 % 1024,0 hPa 0,0 l/m 3,8 km/h (1 Bft) W-SW 238 0 min 0,0 UV-I 0 W/m 7,9 C 9,1 C 6,4 km/h (2 Bft)
02.10.2022 20:30 9,1 C 7,2 C 92 % 1024,0 hPa 0,0 l/m 5,2 km/h (1 Bft) W-SW 247 0 min 0,0 UV-I 0 W/m 7,9 C 9,1 C 8,0 km/h (2 Bft)
02.10.2022 20:33 9,1 C 7,8 C 92 % 1024,0 hPa 0,0 l/m 4,6 km/h (1 Bft) W-SW 248 0 min 0,0 UV-I 0 W/m 7,9 C 9,1 C 9,7 km/h (2 Bft)
02.10.2022 20:36 9,1 C 7,2 C 92 % 1024,1 hPa 0,0 l/m 4,3 km/h (1 Bft) W-SW 237 0 min 0,0 UV-I 0 W/m 7,9 C 9,1 C 6,4 km/h (2 Bft)
02.10.2022 20:39 9,1 C 7,2 C 92 % 1024,2 hPa 0,0 l/m 4,0 km/h (1 Bft) W-SW 253 0 min 0,0 UV-I 0 W/m 7,9 C 9,1 C 6,4 km/h (2 Bft)
02.10.2022 20:42 9,0 C 7,2 C 92 % 1024,2 hPa 0,0 l/m 3,4 km/h (1 Bft) W-SW 252 0 min 0,0 UV-I 0 W/m 7,8 C 9,0 C 4,8 km/h (1 Bft)
02.10.2022 20:45 9,0 C 6,7 C 92 % 1024,3 hPa 0,0 l/m 4,6 km/h (1 Bft) W-SW 244 0 min 0,0 UV-I 0 W/m 7,8 C 9,0 C 8,0 km/h (2 Bft)
02.10.2022 20:48 8,9 C 6,7 C 92 % 1024,3 hPa 0,0 l/m 3,8 km/h (1 Bft) W-SW 238 0 min 0,0 UV-I 0 W/m 7,7 C 8,9 C 6,4 km/h (2 Bft)
02.10.2022 20:51 8,9 C 6,7 C 92 % 1024,3 hPa 0,0 l/m 3,3 km/h (1 Bft) W-SW 239 0 min 0,0 UV-I 0 W/m 7,7 C 8,9 C 4,8 km/h (1 Bft)
02.10.2022 20:54 8,9 C 6,7 C 92 % 1024,3 hPa 0,0 l/m 3,4 km/h (1 Bft) W-SW 238 0 min 0,0 UV-I 0 W/m 7,7 C 8,9 C 4,8 km/h (1 Bft)
02.10.2022 20:57 8,8 C 6,7 C 92 % 1024,4 hPa 0,0 l/m 3,4 km/h (1 Bft) W-SW 242 0 min 0,0 UV-I 0 W/m 7,6 C 8,8 C 4,8 km/h (1 Bft)
02.10.2022 21:00 8,8 C 6,7 C 92 % 1024,5 hPa 0,0 l/m 1,3 km/h (1 Bft) W-SW 242 0 min 0,0 UV-I 0 W/m 7,6 C 8,8 C 3,2 km/h (1 Bft)
02.10.2022 21:03 8,6 C 6,1 C 92 % 1024,6 hPa 0,0 l/m 0,0 km/h (0 Bft) W-SW 242 0 min 0,0 UV-I 0 W/m 7,4 C 8,6 C 0,0 km/h (0 Bft)
02.10.2022 21:06 8,4 C 6,1 C 92 % 1024,6 hPa 0,0 l/m 0,0 km/h (0 Bft) W-SW 242 0 min 0,0 UV-I 0 W/m 7,2 C 8,4 C 1,6 km/h (1 Bft)
02.10.2022 21:09 8,1 C 5,6 C 91 % 1024,4 hPa 0,0 l/m 0,9 km/h (0 Bft) W-SW 242 0 min 0,0 UV-I 0 W/m 6,7 C 8,1 C 3,2 km/h (1 Bft)
02.10.2022 21:12 8,0 C 6,1 C 92 % 1024,4 hPa 0,0 l/m 0,7 km/h (0 Bft) W-SW 242 0 min 0,0 UV-I 0 W/m 6,8 C 8,0 C 1,6 km/h (1 Bft)
02.10.2022 21:15 8,0 C 5,6 C 92 % 1024,5 hPa 0,0 l/m 0,0 km/h (0 Bft) W-SW 242 0 min 0,0 UV-I 0 W/m 6,8 C 8,0 C 1,6 km/h (1 Bft)
02.10.2022 21:18 8,1 C 5,6 C 92 % 1024,5 hPa 0,0 l/m 1,2 km/h (1 Bft) W-SW 242 0 min 0,0 UV-I 0 W/m 6,9 C 8,1 C 3,2 km/h (1 Bft)
02.10.2022 21:21 8,1 C 5,6 C 92 % 1024,6 hPa 0,0 l/m 0,6 km/h (0 Bft) W-SW 242 0 min 0,0 UV-I 0 W/m 6,9 C 8,1 C 1,6 km/h (1 Bft)
02.10.2022 21:24 8,0 C 5,6 C 92 % 1024,6 hPa 0,0 l/m 0,7 km/h (0 Bft) W-SW 242 0 min 0,0 UV-I 0 W/m 6,8 C 8,0 C 1,6 km/h (1 Bft)
02.10.2022 21:27 7,8 C 5,6 C 92 % 1024,7 hPa 0,0 l/m 0,0 km/h (0 Bft) W-SW 242 0 min 0,0 UV-I 0 W/m 6,6 C 7,8 C 0,0 km/h (0 Bft)
02.10.2022 21:30 7,6 C 5,0 C 92 % 1024,7 hPa 0,0 l/m 0,8 km/h (0 Bft) W-SW 242 0 min 0,0 UV-I 0 W/m 6,4 C 7,6 C 1,6 km/h (1 Bft)
02.10.2022 21:33 7,6 C 5,6 C 93 % 1024,7 hPa 0,0 l/m 0,5 km/h (0 Bft) W-SW 242 0 min 0,0 UV-I 0 W/m 6,5 C 7,6 C 1,6 km/h (1 Bft)
02.10.2022 21:36 7,7 C 5,6 C 93 % 1024,8 hPa 0,0 l/m 0,4 km/h (0 Bft) W-SW 242 0 min 0,0 UV-I 0 W/m 6,6 C 7,7 C 1,6 km/h (1 Bft)
02.10.2022 21:39 7,8 C 5,6 C 93 % 1024,8 hPa 0,0 l/m 0,7 km/h (0 Bft) W-SW 242 0 min 0,0 UV-I 0 W/m 6,7 C 7,8 C 3,2 km/h (1 Bft)
02.10.2022 21:42 7,8 C 5,6 C 93 % 1024,8 hPa 0,0 l/m 1,4 km/h (1 Bft) W-SW 240 0 min 0,0 UV-I 0 W/m 6,7 C 7,8 C 3,2 km/h (1 Bft)
02.10.2022 21:45 7,8 C 5,6 C 93 % 1024,9 hPa 0,0 l/m 0,4 km/h (0 Bft) W-SW 240 0 min 0,0 UV-I 0 W/m 6,7 C 7,8 C 1,6 km/h (1 Bft)
02.10.2022 21:48 7,8 C 5,6 C 93 % 1025,0 hPa 0,0 l/m 1,4 km/h (1 Bft) W-SW 240 0 min 0,0 UV-I 0 W/m 6,7 C 7,8 C 3,2 km/h (1 Bft)
02.10.2022 21:51 7,8 C 6,1 C 93 % 1025,0 hPa 0,0 l/m 2,2 km/h (1 Bft) W-SW 240 0 min 0,0 UV-I 0 W/m 6,7 C 7,8 C 3,2 km/h (1 Bft)
02.10.2022 21:54 7,8 C 5,6 C 93 % 1025,0 hPa 0,0 l/m 1,9 km/h (1 Bft) W-SW 240 0 min 0,0 UV-I 0 W/m 6,7 C 7,8 C 3,2 km/h (1 Bft)
02.10.2022 21:57 8,0 C 6,1 C 93 % 1025,0 hPa 0,0 l/m 1,1 km/h (1 Bft) W-SW 240 0 min 0,0 UV-I 0 W/m 6,9 C 8,0 C 3,2 km/h (1 Bft)
02.10.2022 22:00 7,7 C 5,6 C 93 % 1025,0 hPa 0,0 l/m 0,0 km/h (0 Bft) W-SW 240 0 min 0,0 UV-I 0 W/m 6,6 C 7,7 C 0,0 km/h (0 Bft)
02.10.2022 22:03 7,3 C 5,6 C 92 % 1025,1 hPa 0,0 l/m 0,0 km/h (0 Bft) W-SW 240 0 min 0,0 UV-I 0 W/m 6,1 C 7,3 C 1,6 km/h (1 Bft)
02.10.2022 22:06 7,2 C 5,6 C 93 % 1025,0 hPa 0,0 l/m 0,9 km/h (0 Bft) W-SW 240 0 min 0,0 UV-I 0 W/m 6,1 C 7,2 C 3,2 km/h (1 Bft)
02.10.2022 22:09 7,4 C 5,6 C 93 % 1025,1 hPa 0,0 l/m 2,4 km/h (1 Bft) W-SW 240 0 min 0,0 UV-I 0 W/m 6,3 C 7,4 C 4,8 km/h (1 Bft)
02.10.2022 22:12 7,6 C 5,6 C 93 % 1025,2 hPa 0,0 l/m 3,6 km/h (1 Bft) W-SW 240 0 min 0,0 UV-I 0 W/m 6,5 C 7,6 C 4,8 km/h (1 Bft)
02.10.2022 22:15 7,8 C 5,6 C 94 % 1025,3 hPa 0,0 l/m 3,3 km/h (1 Bft) W-SW 240 0 min 0,0 UV-I 0 W/m 6,9 C 7,8 C 4,8 km/h (1 Bft)
02.10.2022 22:18 7,9 C 5,6 C 93 % 1025,3 hPa 0,0 l/m 2,4 km/h (1 Bft) W-SW 240 0 min 0,0 UV-I 0 W/m 6,8 C 7,9 C 3,2 km/h (1 Bft)
02.10.2022 22:21 7,9 C 5,0 C 93 % 1025,3 hPa 0,0 l/m 3,5 km/h (1 Bft) W-SW 240 0 min 0,0 UV-I 0 W/m 6,8 C 7,9 C 4,8 km/h (1 Bft)
02.10.2022 22:24 7,3 C 5,0 C 92 % 1025,4 hPa 0,0 l/m 2,8 km/h (1 Bft) W-SW 240 0 min 0,0 UV-I 0 W/m 6,1 C 7,3 C 4,8 km/h (1 Bft)
02.10.2022 22:27 7,1 C 5,0 C 93 % 1025,4 hPa 0,0 l/m 1,2 km/h (1 Bft) W-SW 240 0 min 0,0 UV-I 0 W/m 6,0 C 7,1 C 3,2 km/h (1 Bft)
02.10.2022 22:30 7,3 C 4,4 C 93 % 1025,4 hPa 0,0 l/m 0,9 km/h (0 Bft) W-SW 240 0 min 0,0 UV-I 0 W/m 6,2 C 7,3 C 3,2 km/h (1 Bft)
02.10.2022 22:33 7,2 C 4,4 C 93 % 1025,5 hPa 0,0 l/m 0,0 km/h (0 Bft) W-SW 240 0 min 0,0 UV-I 0 W/m 6,1 C 7,2 C 0,0 km/h (0 Bft)
02.10.2022 22:36 6,4 C 4,4 C 92 % 1025,5 hPa 0,0 l/m 0,0 km/h (0 Bft) W-SW 240 0 min 0,0 UV-I 0 W/m 5,2 C 6,4 C 0,0 km/h (0 Bft)
02.10.2022 22:39 6,4 C 4,4 C 93 % 1025,5 hPa 0,0 l/m 0,0 km/h (0 Bft) W-SW 240 0 min 0,0 UV-I 0 W/m 5,4 C 6,4 C 0,0 km/h (0 Bft)
02.10.2022 22:42 6,6 C 4,4 C 93 % 1025,5 hPa 0,0 l/m 2,2 km/h (1 Bft) W-SW 237 0 min 0,0 UV-I 0 W/m 5,6 C 6,6 C 4,8 km/h (1 Bft)
02.10.2022 22:45 6,6 C 4,4 C 94 % 1025,5 hPa 0,0 l/m 1,2 km/h (1 Bft) W-SW 237 0 min 0,0 UV-I 0 W/m 5,7 C 6,6 C 3,2 km/h (1 Bft)
02.10.2022 22:48 6,7 C 5,0 C 94 % 1025,6 hPa 0,0 l/m 0,0 km/h (0 Bft) W-SW 237 0 min 0,0 UV-I 0 W/m 5,8 C 6,7 C 0,0 km/h (0 Bft)
02.10.2022 22:51 6,9 C 5,0 C 94 % 1025,6 hPa 0,0 l/m 0,0 km/h (0 Bft) W-SW 237 0 min 0,0 UV-I 0 W/m 6,0 C 6,9 C 0,0 km/h (0 Bft)
02.10.2022 22:54 7,1 C 5,0 C 94 % 1025,6 hPa 0,0 l/m 0,2 km/h (0 Bft) W-SW 237 0 min 0,0 UV-I 0 W/m 6,2 C 7,1 C 1,6 km/h (1 Bft)
02.10.2022 22:57 7,3 C 5,0 C 94 % 1025,6 hPa 0,0 l/m 0,8 km/h (0 Bft) W-SW 237 0 min 0,0 UV-I 0 W/m 6,4 C 7,3 C 3,2 km/h (1 Bft)
02.10.2022 23:00 7,3 C 5,0 C 94 % 1025,7 hPa 0,0 l/m 0,2 km/h (0 Bft) W-SW 237 0 min 0,0 UV-I 0 W/m 6,4 C 7,3 C 1,6 km/h (1 Bft)
02.10.2022 23:03 7,3 C 5,0 C 94 % 1025,7 hPa 0,0 l/m 0,0 km/h (0 Bft) W-SW 237 0 min 0,0 UV-I 0 W/m 6,4 C 7,3 C 1,6 km/h (1 Bft)
02.10.2022 23:06 7,4 C 5,6 C 94 % 1025,7 hPa 0,0 l/m 1,1 km/h (1 Bft) W-SW 237 0 min 0,0 UV-I 0 W/m 6,5 C 7,4 C 3,2 km/h (1 Bft)
02.10.2022 23:09 7,7 C 6,1 C 94 % 1025,9 hPa 0,0 l/m 1,9 km/h (1 Bft) W-SW 237 0 min 0,0 UV-I 0 W/m 6,8 C 7,7 C 3,2 km/h (1 Bft)
02.10.2022 23:12 7,8 C 6,1 C 94 % 1025,9 hPa 0,0 l/m 2,5 km/h (1 Bft) W-SW 237 0 min 0,0 UV-I 0 W/m 6,9 C 7,8 C 4,8 km/h (1 Bft)
02.10.2022 23:15 7,9 C 6,1 C 94 % 1026,0 hPa 0,0 l/m 1,8 km/h (1 Bft) W-SW 237 0 min 0,0 UV-I 0 W/m 7,0 C 7,9 C 3,2 km/h (1 Bft)
02.10.2022 23:18 7,8 C 6,1 C 94 % 1026,2 hPa 0,0 l/m 2,2 km/h (1 Bft) W-SW 237 0 min 0,0 UV-I 0 W/m 6,9 C 7,8 C 3,2 km/h (1 Bft)
02.10.2022 23:21 7,3 C 6,1 C 93 % 1026,3 hPa 0,0 l/m 0,5 km/h (0 Bft) W-SW 237 0 min 0,0 UV-I 0 W/m 6,2 C 7,3 C 3,2 km/h (1 Bft)
02.10.2022 23:24 7,0 C 5,6 C 93 % 1026,2 hPa 0,0 l/m 0,0 km/h (0 Bft) W-SW 237 0 min 0,0 UV-I 0 W/m 5,9 C 7,0 C 0,0 km/h (0 Bft)
02.10.2022 23:27 6,7 C 5,6 C 93 % 1026,3 hPa 0,0 l/m 0,0 km/h (0 Bft) W-SW 237 0 min 0,0 UV-I 0 W/m 5,6 C 6,7 C 0,0 km/h (0 Bft)
02.10.2022 23:30 6,5 C 5,6 C 93 % 1026,2 hPa 0,0 l/m 0,0 km/h (0 Bft) W-SW 237 0 min 0,0 UV-I 0 W/m 5,5 C 6,5 C 0,0 km/h (0 Bft)
02.10.2022 23:33 6,3 C 5,0 C 93 % 1026,2 hPa 0,0 l/m 0,2 km/h (0 Bft) W-SW 237 0 min 0,0 UV-I 0 W/m 5,3 C 6,3 C 1,6 km/h (1 Bft)
02.10.2022 23:36 6,3 C 5,0 C 94 % 1026,2 hPa 0,0 l/m 2,0 km/h (1 Bft) W-SW 237 0 min 0,0 UV-I 0 W/m 5,4 C 6,3 C 3,2 km/h (1 Bft)
02.10.2022 23:39 6,8 C 5,0 C 94 % 1026,2 hPa 0,0 l/m 2,0 km/h (1 Bft) W-SW 237 0 min 0,0 UV-I 0 W/m 5,9 C 6,8 C 3,2 km/h (1 Bft)
02.10.2022 23:42 6,8 C 5,0 C 94 % 1026,2 hPa 0,0 l/m 0,9 km/h (0 Bft) W-SW 237 0 min 0,0 UV-I 0 W/m 5,9 C 6,8 C 1,6 km/h (1 Bft)
02.10.2022 23:45 6,7 C 5,0 C 94 % 1026,4 hPa 0,0 l/m 0,9 km/h (0 Bft) W-SW 237 0 min 0,0 UV-I 0 W/m 5,8 C 6,7 C 3,2 km/h (1 Bft)
02.10.2022 23:48 6,9 C 5,6 C 94 % 1026,4 hPa 0,0 l/m 1,5 km/h (1 Bft) W-SW 237 0 min 0,0 UV-I 0 W/m 6,0 C 6,9 C 3,2 km/h (1 Bft)
02.10.2022 23:51 7,2 C 5,6 C 94 % 1026,4 hPa 0,0 l/m 0,0 km/h (0 Bft) W-SW 237 0 min 0,0 UV-I 0 W/m 6,3 C 7,2 C 1,6 km/h (1 Bft)
02.10.2022 23:54 7,2 C 5,6 C 94 % 1026,5 hPa 0,0 l/m 0,2 km/h (0 Bft) W-SW 237 0 min 0,0 UV-I 0 W/m 6,3 C 7,2 C 1,6 km/h (1 Bft)
02.10.2022 23:57 7,3 C 6,1 C 94 % 1026,4 hPa 0,0 l/m 0,2 km/h (0 Bft) W-SW 237 0 min 0,0 UV-I 0 W/m 6,4 C 7,3 C 1,6 km/h (1 Bft)
02.10.2022 23:58 7,3 C 5,6 C 94 % 1026,5 hPa 0,0 l/m 1,6 km/h (1 Bft) W-SW 247 0 min 0,0 UV-I 0 W/m 6,4 C 7,3 C 3,2 km/h (1 Bft)
02.10.2022 23:59 7,3 C 5,6 C 94 % 1026,5 hPa 0,0 l/m 3,2 km/h (1 Bft) W-SW 247 0 min 0,0 UV-I 0 W/m 6,4 C 7,3 C 3,2 km/h (1 Bft)
_ Min-Zeit 22:39 22:30 18:30 00:03 - 21:03 - - - - - 22:36 06:26 21:03
Minimum _ 6,3 C 4,4 C 88 % 1017,2 hPa - 0,0 km/h (0 Bft) - - - - - 5,2 C 4,9 C 0,0 km/h (0 Bft)
_ Max-Zeit 11:42 18:03 22:15 23:54 00:56 06:26 - - 00:00 13:00 13:00 11:42 12:27 06:23
Maximum _ 11,7 C 15,0 C 94 % 1026,5 hPa 0,2 l/m 19,3 km/h
SW (3 Bft)
- - 0 min 1,1 UV-I 157 W/m 10,6 C 11,7 C 29,0 km/h
S (5 Bft)
Durchschnitt _ 10,6 C 10,0 C 92 % 1020,5 hPa #6,2 l/m 6,8 km/h (2 Bft) S-SW - #0 min. 0,6 UV-I 72 W/m 9,3 C 9,6 C 11,1 km/h (2 Bft)